[[{"header":{"parameterUnit":"m.s-1","parameterCategory":1,"la1":30.6,"la2":29.2853,"lo1":-89.7004,"lo2":-87.6739,"dy":0.0162,"dx":0.0183,"nx":112,"ny":82,"refTime":"2024-06-13T06:00:00:Z","depth":0,"parameterNumber":2,"parameterNumberName":"U-component_of_WINDS"},"data":[0.0,0.0,0.0,0.0,0.0,0.0,0.0,0.0,0.0,0.0,0.0,0.0,0.0,0.0,0.0,0.0,0.0,0.0,0.0,0.0,0.0,0.0,0.0,0.0,0.0,0.0,0.0,0.0,0.0,0.0,0.0,0.0,0.0,0.0,0.0,0.0,0.0,0.0,0.0,0.0,0.0,0.0,0.0,0.0,0.0,0.0,0.0,0.0,0.0,0.0,0.0,0.0,0.0,0.0,0.0,0.0,0.0,0.0,0.0,0.0,0.0,0.0,0.0,0.0,0.0,0.0,0.0,0.0,0.0,0.0,0.0,0.0,0.0,0.0,0.0,0.0,0.0,0.0,0.0,0.0,0.0,0.0,0.0,0.0,0.0,0.0,0.0,0.0,0.0,0.0,-4.5723,-4.6758,-4.888,-4.9972,-4.9359,-4.8566,-4.68,-4.3648,0.0,0.0,0.0,0.0,0.0,0.0,0.0,0.0,0.0,0.0,0.0,0.0,0.0,0.0,0.0,0.0,0.0,0.0,0.0,0.0,0.0,0.0,0.0,0.0,0.0,0.0,0.0,0.0,0.0,0.0,0.0,0.0,0.0,0.0,0.0,0.0,0.0,0.0,0.0,0.0,0.0,0.0,0.0,0.0,0.0,0.0,0.0,0.0,0.0,0.0,0.0,0.0,0.0,0.0,0.0,0.0,0.0,0.0,0.0,0.0,0.0,0.0,0.0,0.0,0.0,0.0,0.0,0.0,0.0,0.0,0.0,0.0,0.0,0.0,0.0,0.0,0.0,0.0,0.0,0.0,0.0,0.0,0.0,0.0,0.0,0.0,0.0,0.0,0.0,0.0,0.0,0.0,0.0,0.0,0.0,0.0,0.0,0.0,0.0,0.0,0.0,0.0,0.0,0.0,-4.6411,-4.9299,-4.9956,-4.9972,-4.9359,-4.8147,-4.6531,-4.4317,0.0,0.0,0.0,0.0,0.0,0.0,0.0,0.0,0.0,0.0,0.0,0.0,0.0,0.0,0.0,0.0,0.0,0.0,0.0,0.0,0.0,0.0,0.0,0.0,0.0,0.0,0.0,0.0,0.0,0.0,0.0,0.0,0.0,0.0,0.0,0.0,0.0,0.0,0.0,0.0,0.0,0.0,0.0,0.0,0.0,0.0,0.0,0.0,0.0,0.0,0.0,0.0,0.0,0.0,0.0,0.0,0.0,0.0,0.0,0.0,0.0,0.0,0.0,0.0,0.0,0.0,0.0,0.0,0.0,0.0,0.0,0.0,0.0,0.0,0.0,0.0,0.0,0.0,0.0,0.0,0.0,0.0,0.0,0.0,0.0,0.0,0.0,0.0,0.0,0.0,0.0,0.0,0.0,0.0,0.0,0.0,0.0,0.0,0.0,0.0,0.0,0.0,0.0,-4.5514,-4.698,-4.9867,-4.9912,-4.9434,-4.882,-4.7848,-4.6441,-4.4436,-4.3718,0.0,0.0,0.0,0.0,0.0,0.0,0.0,0.0,0.0,0.0,0.0,0.0,0.0,0.0,0.0,0.0,0.0,0.0,0.0,0.0,0.0,0.0,0.0,0.0,0.0,0.0,0.0,0.0,0.0,0.0,0.0,0.0,0.0,0.0,0.0,0.0,0.0,0.0,0.0,0.0,0.0,0.0,0.0,0.0,0.0,0.0,0.0,0.0,0.0,0.0,0.0,0.0,0.0,0.0,0.0,0.0,0.0,0.0,0.0,0.0,0.0,0.0,0.0,0.0,0.0,0.0,0.0,0.0,0.0,0.0,0.0,0.0,0.0,0.0,0.0,0.0,0.0,0.0,0.0,0.0,0.0,0.0,0.0,0.0,0.0,0.0,0.0,0.0,0.0,0.0,0.0,0.0,0.0,0.0,0.0,0.0,0.0,0.0,0.0,0.0,0.0,0.0,-4.68,-4.7608,-4.9793,-4.9434,-4.888,-4.8327,-4.7399,-4.6112,-4.4436,-4.3419,0.0,0.0,0.0,0.0,0.0,0.0,0.0,0.0,0.0,0.0,0.0,0.0,0.0,0.0,0.0,0.0,0.0,0.0,0.0,0.0,0.0,0.0,0.0,0.0,0.0,0.0,0.0,0.0,0.0,0.0,0.0,0.0,0.0,0.0,0.0,0.0,0.0,0.0,0.0,0.0,0.0,0.0,0.0,0.0,0.0,0.0,0.0,0.0,0.0,0.0,0.0,0.0,0.0,0.0,0.0,0.0,0.0,0.0,0.0,0.0,0.0,0.0,0.0,0.0,0.0,0.0,0.0,0.0,0.0,0.0,0.0,0.0,0.0,0.0,0.0,0.0,0.0,0.0,0.0,0.0,0.0,0.0,0.0,0.0,0.0,0.0,0.0,0.0,0.0,0.0,0.0,0.0,0.0,0.0,0.0,0.0,0.0,0.0,0.0,0.0,0.0,0.0,-4.701,-4.8446,-4.9299,-4.8745,-4.8327,-4.8297,-4.6531,-4.5125,-4.4377,-4.2551,0.0,0.0,0.0,0.0,0.0,0.0,0.0,0.0,0.0,0.0,0.0,0.0,0.0,0.0,0.0,0.0,0.0,0.0,0.0,0.0,0.0,0.0,0.0,0.0,0.0,0.0,0.0,0.0,0.0,0.0,0.0,0.0,0.0,0.0,0.0,0.0,0.0,0.0,0.0,0.0,0.0,0.0,0.0,0.0,0.0,0.0,0.0,0.0,0.0,0.0,0.0,0.0,0.0,0.0,0.0,0.0,0.0,0.0,0.0,0.0,0.0,0.0,0.0,0.0,0.0,0.0,0.0,0.0,0.0,0.0,0.0,0.0,0.0,0.0,0.0,0.0,0.0,0.0,0.0,0.0,0.0,0.0,0.0,0.0,0.0,0.0,0.0,0.0,0.0,0.0,0.0,0.0,0.0,0.0,0.0,0.0,0.0,0.0,0.0,0.0,0.0,0.0,-4.6082,-4.7489,0.0,-4.8446,-4.8117,-4.7698,-4.6621,-4.5484,-4.4377,0.0,0.0,0.0,0.0,0.0,0.0,0.0,0.0,0.0,0.0,0.0,0.0,0.0,0.0,0.0,0.0,0.0,0.0,0.0,0.0,0.0,0.0,0.0,0.0,0.0,0.0,0.0,0.0,0.0,0.0,0.0,0.0,0.0,0.0,0.0,0.0,0.0,0.0,0.0,0.0,0.0,0.0,0.0,0.0,0.0,0.0,0.0,0.0,0.0,0.0,0.0,0.0,0.0,0.0,0.0,0.0,0.0,0.0,0.0,0.0,0.0,0.0,0.0,0.0,0.0,0.0,0.0,0.0,0.0,0.0,0.0,0.0,0.0,0.0,0.0,0.0,0.0,0.0,0.0,0.0,0.0,0.0,0.0,0.0,0.0,0.0,0.0,0.0,0.0,0.0,0.0,0.0,0.0,0.0,0.0,0.0,0.0,0.0,0.0,0.0,0.0,0.0,-4.3698,-4.5,-4.6324,0.0,-4.7967,-4.7567,-4.6533,-4.5631,-4.4566,-4.3194,0.0,0.0,0.0,0.0,0.0,0.0,0.0,0.0,0.0,0.0,0.0,0.0,0.0,0.0,0.0,0.0,0.0,0.0,0.0,0.0,0.0,0.0,0.0,0.0,0.0,0.0,0.0,0.0,0.0,0.0,0.0,0.0,0.0,0.0,0.0,0.0,0.0,0.0,0.0,0.0,0.0,0.0,0.0,0.0,0.0,0.0,0.0,0.0,0.0,0.0,0.0,0.0,0.0,0.0,0.0,0.0,0.0,0.0,0.0,0.0,0.0,0.0,0.0,0.0,0.0,0.0,0.0,0.0,0.0,0.0,0.0,0.0,0.0,0.0,0.0,0.0,0.0,0.0,0.0,0.0,0.0,0.0,0.0,0.0,0.0,0.0,0.0,0.0,0.0,0.0,0.0,0.0,0.0,0.0,0.0,0.0,0.0,0.0,0.0,0.0,0.0,0.0,-4.2952,-4.4043,-4.5259,-4.7046,-4.7266,-4.6504,-4.4746,-4.3373,-4.199,0.0,0.0,0.0,0.0,0.0,0.0,0.0,0.0,0.0,0.0,0.0,0.0,0.0,0.0,0.0,0.0,0.0,0.0,0.0,0.0,0.0,0.0,0.0,0.0,0.0,0.0,0.0,0.0,0.0,0.0,0.0,0.0,0.0,0.0,0.0,0.0,0.0,0.0,0.0,0.0,0.0,0.0,0.0,0.0,0.0,0.0,0.0,0.0,0.0,0.0,0.0,0.0,0.0,0.0,0.0,0.0,0.0,0.0,0.0,0.0,0.0,0.0,0.0,0.0,0.0,0.0,0.0,0.0,0.0,0.0,0.0,0.0,0.0,0.0,0.0,0.0,0.0,0.0,0.0,0.0,0.0,0.0,0.0,0.0,0.0,0.0,0.0,0.0,0.0,0.0,0.0,0.0,0.0,0.0,0.0,0.0,0.0,0.0,0.0,0.0,0.0,0.0,0.0,-4.1691,-4.2735,-4.3628,-4.4525,-4.4627,-4.4234,-4.3339,-4.2463,-4.1243,-3.9564,0.0,0.0,0.0,0.0,0.0,0.0,0.0,0.0,0.0,0.0,0.0,0.0,0.0,0.0,0.0,0.0,0.0,0.0,0.0,0.0,0.0,0.0,0.0,0.0,0.0,0.0,0.0,0.0,0.0,0.0,0.0,0.0,0.0,0.0,0.0,0.0,0.0,0.0,0.0,0.0,0.0,0.0,0.0,0.0,0.0,0.0,0.0,0.0,0.0,0.0,0.0,0.0,0.0,0.0,0.0,0.0,0.0,0.0,0.0,0.0,0.0,0.0,0.0,0.0,0.0,0.0,0.0,0.0,0.0,0.0,0.0,0.0,0.0,0.0,0.0,0.0,0.0,0.0,0.0,0.0,0.0,0.0,0.0,0.0,0.0,0.0,0.0,0.0,0.0,0.0,0.0,0.0,0.0,0.0,0.0,0.0,0.0,0.0,0.0,0.0,0.0,0.0,-4.0435,-4.1239,-4.2098,-4.3346,-4.3504,-4.3066,-4.2038,-4.1346,-4.0187,-3.8353,0.0,0.0,0.0,0.0,0.0,0.0,0.0,0.0,0.0,0.0,0.0,0.0,0.0,0.0,0.0,0.0,0.0,0.0,0.0,0.0,0.0,0.0,0.0,0.0,0.0,0.0,0.0,0.0,0.0,0.0,0.0,0.0,0.0,0.0,0.0,0.0,0.0,0.0,0.0,0.0,0.0,0.0,0.0,0.0,0.0,0.0,0.0,0.0,0.0,0.0,0.0,0.0,0.0,0.0,0.0,0.0,0.0,0.0,0.0,0.0,0.0,0.0,0.0,0.0,0.0,0.0,0.0,0.0,0.0,0.0,0.0,0.0,0.0,0.0,0.0,0.0,0.0,0.0,0.0,0.0,0.0,0.0,0.0,0.0,0.0,0.0,0.0,0.0,0.0,0.0,0.0,0.0,0.0,0.0,0.0,0.0,0.0,0.0,0.0,0.0,0.0,0.0,-3.9262,-3.9712,-4.0606,-4.289,-4.317,-4.2445,-4.0799,-4.0096,-3.8924,-3.7056,0.0,0.0,0.0,0.0,0.0,0.0,0.0,0.0,0.0,0.0,0.0,0.0,0.0,0.0,0.0,0.0,0.0,0.0,0.0,0.0,0.0,0.0,0.0,0.0,0.0,0.0,0.0,0.0,0.0,0.0,0.0,0.0,0.0,0.0,0.0,0.0,0.0,0.0,0.0,0.0,0.0,0.0,0.0,0.0,0.0,0.0,0.0,0.0,0.0,0.0,0.0,0.0,0.0,0.0,0.0,0.0,0.0,0.0,0.0,0.0,-3.616,0.0,0.0,0.0,0.0,0.0,0.0,0.0,0.0,0.0,0.0,0.0,0.0,0.0,0.0,0.0,0.0,0.0,0.0,0.0,0.0,0.0,0.0,0.0,0.0,0.0,0.0,0.0,0.0,0.0,0.0,0.0,0.0,0.0,0.0,0.0,0.0,0.0,0.0,0.0,0.0,0.0,-3.8031,-3.8411,-3.8938,-4.0337,-4.0516,-4.0184,-3.9397,-3.8763,-3.7648,-3.5953,-3.4832,0.0,0.0,0.0,0.0,0.0,0.0,0.0,0.0,0.0,0.0,0.0,0.0,0.0,0.0,0.0,0.0,0.0,0.0,0.0,0.0,0.0,0.0,0.0,0.0,0.0,0.0,0.0,0.0,0.0,0.0,0.0,0.0,0.0,0.0,0.0,0.0,0.0,0.0,0.0,0.0,0.0,0.0,0.0,0.0,0.0,0.0,0.0,0.0,0.0,0.0,0.0,0.0,0.0,0.0,0.0,0.0,0.0,0.0,0.0,0.0,-3.6985,0.0,0.0,0.0,0.0,0.0,0.0,0.0,0.0,0.0,0.0,0.0,0.0,0.0,0.0,0.0,0.0,0.0,0.0,0.0,0.0,0.0,0.0,0.0,0.0,0.0,0.0,0.0,0.0,0.0,0.0,0.0,0.0,0.0,0.0,0.0,0.0,0.0,0.0,0.0,0.0,-3.6944,-3.7698,-3.8442,-3.9572,-3.9697,-3.9572,-3.9295,-3.8492,-3.7538,-3.6408,-3.4801,0.0,0.0,0.0,0.0,0.0,0.0,0.0,0.0,0.0,0.0,0.0,0.0,0.0,0.0,0.0,0.0,0.0,0.0,0.0,0.0,0.0,0.0,0.0,0.0,0.0,0.0,0.0,0.0,0.0,0.0,0.0,0.0,0.0,0.0,0.0,0.0,0.0,0.0,0.0,0.0,0.0,0.0,0.0,0.0,0.0,0.0,0.0,0.0,0.0,0.0,0.0,0.0,0.0,-4.093,-4.0234,-3.8971,-4.0345,-4.0234,-3.8958,-3.8965,-3.8926,-3.8686,-3.7936,0.0,0.0,0.0,0.0,0.0,0.0,0.0,0.0,0.0,0.0,0.0,0.0,0.0,0.0,0.0,0.0,0.0,0.0,0.0,0.0,0.0,0.0,0.0,0.0,-3.2849,-3.3566,0.0,0.0,0.0,0.0,0.0,0.0,0.0,0.0,0.0,0.0,0.0,0.0,-3.6329,-3.7387,-3.8442,-3.9572,-3.9622,-3.9546,-3.9546,-3.8517,-3.7638,-3.7086,-3.5253,-3.3947,0.0,0.0,0.0,0.0,0.0,0.0,0.0,0.0,0.0,0.0,0.0,0.0,0.0,0.0,0.0,0.0,0.0,0.0,0.0,0.0,0.0,0.0,0.0,0.0,0.0,0.0,0.0,0.0,0.0,0.0,0.0,0.0,-3.3446,-3.4464,0.0,0.0,0.0,0.0,0.0,0.0,0.0,0.0,0.0,0.0,0.0,0.0,0.0,-3.7695,-3.8123,-3.8761,-3.901,-3.9032,-3.9522,-3.9604,-3.9421,-3.9665,-3.9604,-3.9399,-3.9401,0.0,-3.8078,-3.6622,0.0,0.0,0.0,0.0,0.0,0.0,0.0,0.0,0.0,0.0,0.0,0.0,0.0,0.0,0.0,0.0,0.0,0.0,0.0,0.0,0.0,0.0,-3.5366,-3.4244,-3.4679,-3.5146,0.0,-3.4295,-3.4294,-3.4474,-3.4575,0.0,0.0,0.0,0.0,0.0,0.0,0.0,-3.686,-3.7613,-3.8442,-3.9572,-3.927,-3.902,-3.902,-3.7939,-3.7061,-3.6556,-3.5755,-3.5031,-3.4525,-3.3445,0.0,0.0,0.0,0.0,0.0,0.0,0.0,0.0,0.0,0.0,0.0,0.0,0.0,0.0,0.0,0.0,0.0,0.0,0.0,0.0,0.0,0.0,0.0,0.0,0.0,0.0,0.0,0.0,0.0,-3.4951,-3.5856,-3.6348,-3.7239,-3.8036,0.0,0.0,0.0,0.0,0.0,0.0,0.0,0.0,0.0,-3.797,-3.8259,-3.8636,-3.9187,-3.9824,-4.0092,-4.0092,-4.0356,-3.9961,-3.9002,-4.0024,-3.9897,-3.9002,-3.9002,-3.8625,-3.79,-3.6933,-3.6331,-3.5982,0.0,0.0,0.0,0.0,-3.4621,-3.4456,-3.3226,-3.2843,0.0,-3.2425,0.0,0.0,0.0,0.0,0.0,0.0,0.0,0.0,0.0,0.0,0.0,-3.3372,-3.341,-3.3868,-3.4254,-3.413,-3.3891,0.0,-3.5186,-3.5824,-3.3579,0.0,0.0,0.0,0.0,-3.6006,-3.7061,-3.7939,-3.8793,-3.9597,-3.9471,-3.932,-3.932,-3.8291,-3.7538,-3.7287,-3.6182,-3.5382,-3.5157,-3.4424,-3.3721,0.0,0.0,0.0,0.0,0.0,0.0,0.0,0.0,0.0,0.0,0.0,0.0,0.0,0.0,0.0,0.0,0.0,0.0,0.0,0.0,0.0,0.0,0.0,0.0,0.0,0.0,0.0,0.0,-3.5772,-3.6534,-3.6737,-3.7577,-3.8467,0.0,0.0,0.0,0.0,0.0,0.0,-3.7942,-3.8033,-3.8192,-3.8314,-3.8743,-3.9153,-3.9498,-3.9996,-4.0191,-4.0191,-4.0061,-3.9361,-3.814,-3.9299,-3.919,-3.7955,-3.7955,-3.7769,-3.7381,-3.6806,-3.6508,-3.6304,-3.5452,-3.5329,-3.5589,-3.5084,-3.4928,-3.4745,-3.3584,-3.3161,-3.3059,-3.2469,0.0,-3.2385,-3.2211,0.0,0.0,0.0,0.0,-3.33,-3.2825,-3.3035,-3.3191,-3.2489,-3.2422,-3.2808,-3.3777,-3.4004,-3.3868,0.0,-3.5395,-3.6275,-3.3635,0.0,0.0,0.0,0.0,-3.6883,-3.7561,-3.8391,-3.9094,-3.9647,-3.9572,-3.9421,-3.927,-3.8366,-3.7739,-3.7588,-3.6433,-3.5708,-3.5708,-3.5182,-3.434,-3.3058,0.0,0.0,0.0,0.0,0.0,0.0,0.0,0.0,0.0,0.0,0.0,0.0,0.0,0.0,0.0,0.0,0.0,0.0,0.0,0.0,0.0,0.0,0.0,0.0,0.0,0.0,0.0,0.0,0.0,-3.3026,-3.5025,0.0,0.0,0.0,0.0,-3.8685,-3.9031,-3.8991,-3.8387,-3.8716,-3.8452,-3.7389,-3.7429,-3.7448,-3.7468,-3.7488,-3.7507,-3.7488,-3.7094,-3.6897,-3.6759,-3.6396,-3.6219,-3.6152,-3.6152,-3.6132,-3.6054,-3.5178,-3.5413,-3.6248,-3.5767,-3.6389,-3.7443,-3.5678,-3.499,-3.4768,-3.2914,-3.225,-3.2309,-3.2662,-3.2975,-3.3141,-3.2758,-3.3283,0.0,0.0,-3.308,-3.3269,-3.2435,-3.2525,-3.2796,-3.2754,-3.3066,-3.3242,-3.2976,-3.3984,-3.4948,0.0,-3.4741,-3.4221,-3.3005,0.0,-3.5001,-3.4978,-3.6235,-3.7538,-3.8693,-3.8894,-3.9094,-3.9647,-3.922,-3.8693,-3.814,-3.7563,-3.701,-3.6531,-3.6405,-3.6355,-3.6355,-3.5805,-3.465,-3.2931,-3.1836,0.0,0.0,0.0,0.0,0.0,0.0,0.0,0.0,0.0,0.0,0.0,0.0,0.0,0.0,0.0,0.0,0.0,0.0,0.0,0.0,0.0,0.0,0.0,0.0,0.0,0.0,0.0,0.0,-3.5515,-3.6535,0.0,-3.804,-3.7905,-3.7975,-3.8445,-3.7975,-3.7644,-3.7657,-3.7837,-3.7739,-3.7285,-3.7305,-3.7305,-3.7305,-3.7305,-3.7305,-3.7305,-3.7148,-3.6934,-3.666,-3.6504,-3.6289,-3.6016,-3.6016,-3.6016,-3.5996,-3.5684,-3.5626,-3.5696,-3.5236,-3.5356,-3.5697,-3.5047,-3.4816,-3.4732,-3.4039,-3.3789,-3.373,-3.332,-3.2925,-3.2595,-3.2435,-3.2609,-3.2802,-3.2454,-3.2695,-3.2953,-3.2642,-3.2891,-3.3203,-3.3203,-3.332,-3.3379,-3.3223,-3.3404,-3.3598,-3.3634,-3.4833,-3.5201,-3.3188,-3.4105,-3.4865,-3.4227,-3.4855,-3.5567,-3.594,-3.6343,-3.6997,-3.8166,-3.8125,-3.8172,-3.8567,-3.7244,-3.6579,-3.6862,-3.4919,-3.4142,-3.5066,-3.4025,-3.2992,-3.2048,-3.1361,-3.0652,0.0,0.0,0.0,0.0,0.0,0.0,0.0,0.0,0.0,0.0,0.0,0.0,0.0,0.0,0.0,0.0,0.0,0.0,0.0,0.0,0.0,0.0,0.0,0.0,0.0,-3.4961,-3.5942,-3.6476,-3.7049,-3.7757,-3.8508,-3.8017,-3.7764,-3.7983,-3.7441,-3.7285,-3.7715,-3.7871,-3.8008,-3.8164,-3.8027,-3.793,-3.793,-3.7793,-3.7734,-3.7734,-3.7578,-3.7363,-3.709,-3.6953,-3.6641,-3.623,-3.623,-3.6152,-3.6016,-3.6016,-3.5859,-3.5566,-3.5254,-3.5156,-3.5137,-3.498,-3.4941,-3.4902,-3.4746,-3.4707,-3.4609,-3.4043,-3.3476,-3.2988,-3.2851,-3.2812,-3.2773,-3.2637,-3.2793,-3.3008,-3.3008,-3.3203,-3.3418,-3.3418,-3.3418,-3.3418,-3.3418,-3.3203,-3.3008,-3.3008,-3.4123,-3.4604,-3.2971,-3.3883,-3.46,-3.3737,-3.4383,-3.4866,-3.4709,-3.5032,-3.5672,-3.6649,-3.6757,-3.6873,-3.7146,-3.6429,-3.58,-3.5574,-3.3936,-3.3204,-3.3674,-3.3254,-3.2289,-3.068,-2.9656,-2.9361,-2.9784,0.0,0.0,0.0,0.0,0.0,0.0,0.0,0.0,0.0,0.0,0.0,0.0,0.0,0.0,0.0,0.0,0.0,0.0,0.0,0.0,0.0,0.0,0.0,-3.3398,-3.4199,-3.4902,-3.5371,-3.6172,-3.668,-3.668,-3.709,-3.7344,-3.7344,-3.7734,-3.8164,-3.8594,-3.9004,-3.9434,-3.9883,-3.9453,-3.9199,-3.9199,-3.8789,-3.8574,-3.8574,-3.8144,-3.793,-3.791,-3.75,-3.709,-3.668,-3.668,-3.6426,-3.6035,-3.6035,-3.6016,-3.6016,-3.6016,-3.6016,-3.5976,-3.5566,-3.541,-3.5351,-3.4902,-3.4726,-3.4726,-3.4726,-3.4707,-3.4629,-3.4219,-3.4082,-3.4004,-3.3555,-3.3437,-3.3437,-3.3418,-3.3418,-3.3418,-3.3418,-3.3418,-3.3418,-3.3418,-3.3418,-3.3418,-3.3418,-3.2773,-3.2207,-3.2187,-3.3375,-3.4198,-3.3717,-3.484,0.0,-3.5212,-3.5201,-3.5178,-3.5233,-3.5233,-3.4853,-3.3922,-3.4982,-3.4695,-3.2471,-3.3525,-3.3624,-3.228,-3.3525,-3.2548,-2.9034,-2.6881,-2.6344,-2.741,0.0,0.0,0.0,0.0,0.0,0.0,0.0,0.0,0.0,0.0,0.0,0.0,0.0,0.0,0.0,0.0,0.0,0.0,0.0,0.0,0.0,-3.3418,-3.4219,-3.4336,-3.5098,-3.582,-3.6269,-3.6797,-3.7129,-3.7129,-3.7793,-3.8223,-3.8223,-3.8926,-3.9414,-3.9531,-3.9648,-3.9766,-3.9883,-3.9453,-3.9199,-3.9199,-3.8789,-3.8574,-3.8574,-3.8457,-3.8223,-3.791,-3.7812,-3.7519,-3.7109,-3.6797,-3.6601,-3.6465,-3.6152,-3.6016,-3.6016,-3.6016,-3.6016,-3.6016,-3.5898,-3.5859,-3.584,-3.5703,-3.5449,-3.5195,-3.5195,-3.498,-3.4668,-3.457,-3.4531,-3.4434,-3.4023,-3.3887,-3.3828,-3.3496,-3.3418,-3.3418,-3.3418,-3.3418,-3.3418,-3.3418,-3.3418,-3.3418,-3.3418,-3.3242,-3.2988,-3.2676,-3.2966,-3.3113,-3.2675,-3.2692,0.0,-3.2542,-3.2296,-3.255,-3.3586,-3.3677,-3.3831,-3.4231,-3.3426,-3.2858,-3.2811,-3.1016,-3.0224,-3.0824,-3.0276,-2.9352,-2.8081,-2.833,-2.826,0.0,0.0,0.0,0.0,0.0,0.0,0.0,0.0,0.0,0.0,0.0,0.0,0.0,0.0,0.0,0.0,0.0,0.0,0.0,0.0,0.0,0.0,-3.4531,-3.5312,-3.5508,-3.5976,-3.6445,-3.6875,-3.7305,-3.7695,-3.8066,-3.8555,-3.8926,-3.9121,-3.9609,-3.9961,-4.0156,-4.0156,-4.0234,-4.043,-4.0,-3.9746,-3.9746,-3.9336,-3.9023,-3.8828,-3.8828,-3.8613,-3.8203,-3.8203,-3.7969,0.0,-3.7305,-3.709,-3.6894,-3.6465,-3.6289,0.0,0.0,0.0,0.0,0.0,-3.6016,-3.6016,-3.6016,-3.5859,-3.5664,-3.5664,-3.5469,-3.5215,-3.5039,-3.498,-3.4902,-3.4453,-3.4336,-3.4277,-3.4023,-3.3828,-3.375,-3.3906,-3.3691,-3.3476,-3.3652,-3.3555,-3.3418,-3.3418,-3.3418,0.0,-3.3105,-3.3066,-3.291,-3.25,-3.2226,-3.1992,-3.1816,-3.1426,-3.1485,-3.2319,-3.2252,-3.2287,-3.2627,-3.2243,0.0,0.0,0.0,-2.9982,-3.0569,-2.8978,0.0,0.0,0.0,0.0,0.0,0.0,0.0,0.0,-2.8921,-2.9485,0.0,0.0,0.0,0.0,0.0,0.0,0.0,0.0,0.0,0.0,0.0,0.0,0.0,0.0,0.0,0.0,-3.5547,-3.625,-3.668,-3.6777,-3.6953,-3.7324,-3.7734,-3.832,-3.9121,-3.9258,-3.9473,-3.9922,-4.0019,-4.0195,-4.0586,0.0,0.0,0.0,0.0,-4.0527,-4.0527,-4.0098,-3.9687,-3.9277,-3.9219,-3.9004,-3.8652,-3.8594,-3.8359,-3.7988,-3.7949,-3.7715,-3.7344,-3.6914,-3.6719,-3.6621,-3.6191,-3.6016,-3.6016,-3.6016,-3.6016,-3.6016,-3.6016,0.0,0.0,-3.6016,-3.6016,-3.5957,-3.5586,-3.5469,-3.5371,-3.4902,-3.4785,-3.4766,-3.4707,-3.4414,-3.4238,-3.4609,-3.4121,-3.3672,-3.4062,-3.3789,-3.3496,-3.3496,-3.3457,-3.3418,-3.3418,-3.3418,-3.3301,-3.293,-3.2832,-3.2656,-3.2285,-3.1855,-3.1582,-3.1582,0.0,0.0,-3.0371,-3.1349,-3.1329,-2.978,-3.077,-3.12,-3.0859,-2.8953,-2.8481,-2.9682,-2.886,-2.8437,-2.8437,-2.9199,-2.959,-2.9665,-2.8491,-2.894,0.0,0.0,0.0,0.0,0.0,0.0,0.0,0.0,0.0,0.0,0.0,0.0,0.0,0.0,0.0,-3.5605,-3.6211,-3.6699,-3.7109,-3.7461,-3.7715,-3.7793,-3.8184,-3.8652,-3.9141,-3.9551,-3.9941,-4.0371,-4.0723,-4.0957,-4.1035,-4.1055,-4.1094,-4.1172,-4.0742,-4.0527,-4.0527,-4.0098,-3.9844,-3.9766,0.0,0.0,-3.9062,-3.873,-3.8535,-3.8418,-3.8086,-3.7871,-3.7773,-3.7344,-3.6973,-3.6621,-3.6191,-3.6016,-3.6016,-3.6016,-3.6016,-3.6016,-3.6016,-3.6016,-3.6016,-3.6016,-3.6016,-3.5996,-3.5918,-3.5898,0.0,-3.5371,-3.5254,-3.5176,-3.4805,-3.4629,-3.459,-3.4687,-3.457,-3.4473,-3.4551,-3.4238,-3.3945,-3.3945,-3.3672,-3.3418,-3.3418,-3.3418,-3.3398,-3.332,-3.3008,-3.2773,-3.2676,-3.2305,-3.2051,-3.2051,-3.166,-3.1367,-3.1269,-3.0817,-3.0441,-3.0135,-3.0027,-2.9957,-2.9877,-2.9443,-2.9364,-2.962,-2.9443,-2.9372,-2.9316,-2.9548,-2.9746,-3.0059,-2.9473,-2.9836,0.0,0.0,0.0,0.0,0.0,0.0,0.0,0.0,0.0,0.0,0.0,-3.3945,-3.4609,0.0,-3.5898,-3.6562,-3.7207,-3.7695,-3.791,-3.8496,-3.875,-3.8301,-3.8633,-3.9141,-3.9805,-4.0078,-4.0391,-4.082,-4.125,-4.1484,-4.1484,-4.1484,-4.1484,-4.1484,-4.1074,-4.084,-4.084,-4.0644,-4.043,-4.0215,-3.998,-3.9746,-3.9531,-3.9082,-3.8887,-3.8867,-3.8437,-3.8242,-3.8223,-3.7793,-3.7246,-3.6641,-3.6426,-3.6211,-3.6016,-3.6016,-3.6016,-3.6016,-3.6016,-3.6016,-3.6016,-3.6016,-3.6016,-3.6016,-3.6016,-3.6016,-3.5976,-3.5762,-3.5703,-3.5664,-3.543,-3.5215,-3.5098,-3.5312,-3.5019,-3.4766,-3.5,-3.4687,-3.4394,-3.4394,-3.4043,-3.375,-3.375,-3.3574,-3.3418,-3.3418,-3.3242,-3.3105,-3.3105,-3.2734,-3.248,-3.248,-3.209,-3.1758,-3.1543,-3.0918,-3.0547,-3.0547,-3.0137,-2.9883,-2.9883,-2.9687,-2.9626,-2.9626,-2.9785,-2.9883,-2.9883,-3.0332,-3.0644,-3.0859,-3.0859,-3.0996,0.0,0.0,0.0,0.0,0.0,0.0,0.0,-3.3125,-3.3535,-3.4394,-3.4922,-3.5449,-3.625,-3.668,-3.709,-3.7578,-3.8242,-3.873,-3.8809,-3.9453,-3.9668,-3.9023,-3.918,-3.9648,-4.0449,-4.0527,-4.0742,-4.125,-4.1601,-4.1836,-4.1914,-4.1914,-4.1894,-4.1797,-4.1465,-4.125,-4.1172,-4.1172,-4.0996,-4.0644,-4.0566,-4.0351,-4.0,-3.9453,-3.9199,-3.918,-3.875,-3.8574,-3.8535,-3.8105,-3.7519,-3.6894,-3.6738,-3.6465,-3.6133,-3.6055,-3.6016,-3.6016,-3.6016,-3.6016,-3.6016,-3.6016,-3.6016,-3.6016,-3.6016,-3.6016,-3.6016,-3.6016,-3.6016,-3.6016,-3.6016,-3.5762,-3.5605,-3.5937,-3.5469,-3.5059,-3.543,-3.5156,-3.4824,-3.4824,-3.4492,-3.416,-3.4082,-3.3789,-3.3516,-3.3437,-3.3418,-3.3418,-3.3418,-3.3125,-3.291,-3.291,-3.2539,-3.2109,-3.168,-3.1328,-3.1133,-3.1133,-3.0781,-3.0586,-3.0586,-3.0176,-2.9941,-2.9941,-3.0273,-3.0449,-3.0449,-3.125,-3.1641,-3.166,-3.209,-3.2109,-2.9961,-3.0703,-3.166,-3.2832,-3.293,-3.3223,0.0,-3.5332,-3.5351,-3.6211,-3.6719,-3.7148,-3.7617,-3.7754,-3.8047,-3.8848,-3.9062,-3.9277,-3.9687,-3.9824,-4.0,-4.0273,-4.0019,-4.0,-4.0469,-4.0527,-4.0859,-4.166,-4.1777,-4.1973,-4.2344,-4.2363,-4.2187,-4.1816,-4.1758,-4.1543,-4.1172,-4.1172,-4.1152,-4.1094,-4.0703,-4.0508,-4.043,-3.959,-3.9199,-3.918,-3.875,-3.8574,-3.8535,-3.8105,-3.7871,-3.7715,-3.6953,-3.6641,-3.6543,-3.6152,-3.6016,-3.6016,-3.6016,-3.6016,-3.6016,-3.6016,-3.6016,-3.6016,-3.6016,-3.6016,-3.6016,-3.6016,-3.6016,-3.6016,-3.6016,-3.5996,-3.5957,-3.6016,-3.5937,-3.5879,-3.5937,-3.5605,-3.5312,-3.5312,-3.4941,-3.4512,-3.4141,-3.4023,-3.3867,-3.3476,-3.3418,-3.3418,-3.3418,-3.3379,-3.3359,-3.3359,-3.2969,-3.2559,-3.2129,-3.2051,-3.2031,-3.2031,-3.2033,-3.2013,-3.2013,-3.1523,-3.1309,-3.1309,-3.1348,-3.1367,-3.1367,-3.1855,-3.209,-3.2109,-3.2519,-3.2695,-3.1465,-3.2344,-3.3125,-3.3672,-3.4238,-3.4902,-3.582,-3.6074,-3.6309,-3.6914,-3.7363,-3.7793,-3.8223,-3.8496,-3.8867,-3.9492,-3.9805,-4.0039,-4.0234,-4.0488,-4.0703,-4.0879,-4.0742,-4.0703,-4.0879,-4.0898,-4.1152,-4.1758,-4.2031,-4.2344,-4.2773,-4.2812,-4.2734,-4.2539,-4.2051,-4.1719,-4.1543,-4.1289,-4.1172,-4.1172,-4.0996,-4.0898,-4.0879,-4.0,-3.9453,-3.9199,-3.9004,-3.8945,-3.8906,-3.8476,-3.8164,-3.7891,-3.7539,-3.7109,-3.6621,-3.6172,-3.6016,-3.6016,-3.6016,-3.6016,-3.6016,-3.6016,-3.6016,-3.6016,-3.6016,-3.6016,-3.6016,-3.6016,-3.6016,-3.6016,-3.6016,-3.6016,-3.6016,-3.6016,-3.6016,-3.6016,-3.6016,-3.5879,-3.5762,-3.5762,-3.541,-3.5039,-3.4863,-3.4609,-3.4297,-3.3867,-3.3574,-3.3418,-3.3418,-3.3418,-3.3418,-3.3418,-3.3047,-3.2734,-3.2559,-3.2305,-3.2229,-3.2229,-3.2229,-3.2229,-3.2229,-3.1992,-3.1894,-3.1894,-3.1894,-3.1894,-3.1894,-3.2324,-3.2539,-3.2539,-3.2969,-3.3164,-3.2676,-3.3516,-3.4141,-3.4375,-3.5156,-3.5879,-3.5996,-3.6348,-3.6758,-3.707,-3.7559,-3.8086,-3.8652,-3.9101,-3.9609,-4.0312,-4.0684,-4.0879,-4.0879,-4.1152,-4.1308,-4.1191,-4.1172,-4.1172,-4.1172,-4.1172,-4.1445,-4.2109,-4.2324,-4.2676,-4.3223,-4.3242,-4.3203,-4.3086,-4.248,-4.2031,-4.1797,-4.1504,-4.1289,-4.1172,-4.1172,-4.1172,-4.1152,-4.0293,-3.957,-3.9023,-3.9023,-3.9023,-3.9004,-3.8691,-3.8398,-3.8086,-3.7969,-3.7559,-3.6973,-3.6523,-3.623,-3.6016,-3.6016,-3.6016,-3.6016,-3.6016,-3.6016,-3.6016,-3.6016,-3.6016,-3.6016,-3.6016,-3.6016,-3.6016,-3.6016,-3.6016,-3.6016,-3.6016,-3.6016,-3.6016,-3.6016,-3.6016,-3.6016,-3.6016,-3.5781,-3.5527,-3.541,-3.5117,-3.4746,-3.4316,-3.3887,-3.3555,-3.3437,-3.3418,-3.3418,-3.3418,-3.3144,-3.2969,-3.2969,-3.2695,-3.2519,-3.2519,-3.2519,-3.2519,-3.2519,-3.2402,-3.2344,-3.2344,-3.2344,-3.2344,-3.2344,-3.2754,-3.2969,-3.2969,-3.3281,-3.3496,-3.3281,-3.373,-3.4277,-3.5137,-3.5391,-3.5527,-3.5937,-3.6348,-3.668,-3.668,-3.7344,-3.8184,-3.9023,-3.9551,-4.0293,-4.1543,-4.1758,-4.1758,-4.1758,-4.1777,-4.1621,-4.123,-4.1172,-4.1172,0.0,-4.1172,-4.1699,-4.2949,-4.2656,-4.2793,-4.3633,-4.3691,-4.3496,-4.3086,-4.3047,-4.2637,-4.1816,-4.1797,-4.1582,-4.1172,-4.1172,-4.1172,-4.1152,-4.0293,-3.9414,-3.8594,-3.8594,-3.8594,-3.8594,-3.8574,-3.8574,-3.8516,-3.8086,-3.791,-3.7832,-3.7422,-3.6738,-3.6016,-3.6016,-3.6016,-3.6016,-3.6016,-3.6016,-3.6016,-3.6016,-3.6016,-3.6016,-3.6016,-3.6016,-3.6016,-3.6016,-3.6016,-3.6016,-3.6016,-3.6016,-3.6016,-3.6016,-3.6016,-3.6016,-3.6016,-3.6016,-3.5879,-3.5469,-3.5391,-3.5215,-3.4746,-3.4316,-3.3906,-3.3476,-3.3418,-3.3418,-3.3418,-3.3418,-3.3398,-3.3398,-3.3398,-3.3379,-3.3379,-3.3379,-3.3379,-3.3379,-3.2988,-3.2773,-3.2773,-3.2773,-3.2773,-3.2773,-3.3203,-3.3398,-3.3398,-3.3418,-3.3652,-3.3672,-3.4394,-3.5019,-3.5312,-3.5605,-3.5918,-3.6348,-3.6562,-3.6758,-3.7031,-3.7305,-3.7773,-3.8633,-3.9141,-3.9863,-4.1172,-4.1621,-4.1894,-4.2168,-4.2207,-4.207,-4.1641,-4.1836,0.0,0.0,0.0,0.0,-4.2578,-4.25,-4.2793,-4.3652,-4.3711,-4.3633,-4.3496,-4.2949,-4.25,-4.2207,-4.166,-4.1308,-4.1172,-4.1172,-4.1016,-4.0742,-4.0742,-4.0273,-3.9453,-3.9453,-3.9277,-3.8965,-3.8691,-3.8574,-3.8555,-3.8418,-3.8184,-3.791,-3.7773,-3.7187,-3.6445,-3.6445,-3.6269,-3.6016,-3.6016,-3.6016,-3.6016,-3.6016,-3.6016,-3.6016,-3.6016,-3.6016,-3.6016,-3.6016,-3.6016,-3.6016,-3.6016,-3.6016,-3.6016,-3.6016,-3.6016,-3.6016,-3.6016,-3.6016,-3.5976,-3.584,-3.5801,-3.5664,-3.5234,-3.4531,-3.3906,-3.3476,-3.3418,-3.3418,-3.3418,-3.3418,-3.3418,-3.3418,-3.3418,-3.3535,-3.3828,-3.3848,-3.3848,-3.3848,-3.3711,-3.3516,-3.3223,-3.3203,-3.3203,-3.3203,-3.3652,-3.3848,-3.3867,-3.4141,-3.4355,-3.4101,-3.4844,-3.543,-3.5586,-3.582,-3.6094,-3.6367,-3.6445,-3.6523,-3.6777,-3.6973,-3.7324,-3.8184,-3.8691,-3.9512,-4.1133,-4.1621,-4.1992,-4.2578,-4.2656,-4.25,-4.207,-4.2266,-4.2324,0.0,0.0,0.0,-4.2598,-4.2656,-4.2969,-4.3672,-4.3711,-4.3711,-4.3711,-4.3027,-4.2578,-4.2422,-4.1738,-4.1328,-4.1172,-4.1172,-4.0937,-4.0527,-4.0664,-4.0332,-3.9648,-3.9492,-3.9258,-3.8965,-3.8691,-3.8574,-3.8574,-3.8574,-3.8398,-3.8164,-3.8164,-3.7715,-3.707,-3.6777,-3.6387,-3.6016,-3.6016,-3.6016,-3.6016,-3.6016,-3.6016,-3.6016,-3.6016,-3.6016,-3.6016,-3.6016,-3.6016,-3.6016,-3.6016,-3.6016,-3.6016,-3.6016,-3.6016,-3.6016,-3.6016,-3.6016,-3.6016,-3.6016,-3.6016,-3.5879,-3.5449,-3.4902,-3.4375,-3.3926,-3.3887,-3.3887,-3.3887,-3.3887,-3.3887,-3.3887,-3.3887,-3.4004,-3.4277,-3.4297,-3.4297,-3.4297,-3.4297,-3.416,-3.3887,-3.3887,-3.3887,-3.3887,-3.416,-3.4297,-3.4297,-3.457,-3.4785,-3.4629,-3.5078,-3.5527,-3.5918,-3.6016,-3.6016,-3.6016,-3.6016,-3.6016,-3.6016,-3.6348,-3.6894,-3.7715,-3.8262,-3.9258,-4.1387,-4.1797,-4.2129,-4.2988,-4.3105,-4.2949,-4.25,-4.248,-4.248,-4.2422,-4.2461,0.0,-4.3047,0.0,-4.3262,-4.3691,-4.3711,-4.3711,-4.3711,-4.3281,-4.2851,-4.2422,-4.1992,-4.1562,-4.1172,-4.1172,-4.0957,-4.0547,-4.0137,-3.9707,-3.9258,-3.8848,-3.8652,-3.8613,-3.8613,-3.8594,-3.8574,-3.8574,-3.8574,-3.8574,-3.8574,-3.8301,-3.7812,-3.7012,-3.6445,-3.6055,-3.6055,-3.6035,-3.6016,-3.6016,-3.6016,-3.6016,-3.6016,-3.6016,-3.6016,-3.6016,-3.6016,-3.6016,-3.6016,-3.6016,-3.6016,-3.6016,-3.6016,-3.6016,-3.6016,-3.6016,-3.6016,-3.6016,-3.6016,-3.5879,-3.5488,-3.543,-3.5254,-3.4766,-3.4707,-3.4707,-3.4707,-3.4707,-3.4707,-3.4707,-3.4707,-3.4707,-3.4726,-3.4726,-3.4726,-3.4726,-3.4726,-3.4726,-3.4707,-3.4707,-3.4707,-3.4707,-3.4726,-3.4726,-3.4726,-3.4766,-3.5,-3.5098,-3.5527,-3.5879,-3.5996,-3.6016,-3.6016,-3.6016,-3.6016,-3.6016,-3.6016,-3.6113,-3.6348,-3.6894,-3.7851,-3.9082,-4.0605,-4.1641,-4.2558,-4.3418,-4.3555,-4.3379,-4.2969,-4.3183,-4.3125,-4.248,-4.3008,-4.3301,0.0,-4.3086,-4.3262,-4.3691,-4.3711,-4.3711,-4.3711,-4.2988,-4.2539,-4.2422,-4.1699,-4.1289,-4.1172,-4.1172,-4.1113,-4.0996,-4.0898,-4.0605,-4.0176,-4.0078,-3.9648,-3.9043,-3.9043,-3.8867,-3.8574,-3.8574,-3.8574,-3.8574,-3.8574,-3.8301,-3.7891,-3.7676,-3.7129,-3.6504,-3.6504,-3.6289,-3.6016,-3.6016,-3.6016,-3.6016,-3.6016,-3.6016,-3.6016,-3.6016,-3.6016,-3.6016,-3.6016,-3.6016,-3.6016,-3.6016,-3.6016,-3.6016,-3.6016,-3.6016,-3.6016,-3.6016,-3.6016,-3.5996,-3.5879,-3.5859,-3.5586,-3.4805,-3.4707,-3.4707,-3.4707,-3.4707,-3.4707,-3.4707,-3.4707,-3.4844,-3.5195,-3.5215,-3.5215,-3.5215,-3.5215,-3.5059,-3.4707,-3.4707,-3.4707,-3.4707,-3.5039,-3.5215,-3.5234,-3.5547,-3.5742,-3.5332,-3.5703,-3.6016,-3.6016,-3.6016,-3.5976,-3.5781,-3.5879,-3.5976,-3.5781,-3.5898,-3.6152,-3.6582,-3.7402,-3.8496,-4.0,-4.1172,-4.2246,-4.3281,-4.3594,-4.3613,-4.3379,-4.3555,-4.3516,-4.3027,-4.3418,-4.3613,-4.3359,-4.3359,-4.3457,-4.3691,-4.3711,-4.3711,-4.3711,-4.2871,-4.2246,-4.1875,-4.1406,-4.1172,-4.1172,-4.1172,-4.1172,-4.1172,-4.0976,-4.0762,-4.0508,0.0,-3.9961,-3.9492,-3.9277,-3.9062,-3.8828,-3.8652,-3.8574,-3.8574,-3.8574,-3.8418,-3.8203,-3.8203,-3.7773,-3.7168,-3.6797,-3.6367,-3.6016,-3.6016,-3.6016,-3.6016,-3.6016,-3.6016,-3.6016,-3.6016,-3.6016,-3.6016,-3.6016,-3.6016,-3.6016,-3.6016,-3.6016,-3.6016,-3.6016,-3.6016,-3.6016,-3.6016,-3.6016,-3.6016,-3.6016,-3.6016,-3.584,-3.5332,-3.5273,-3.5273,-3.5273,-3.5273,-3.5273,-3.5273,-3.5273,-3.5391,-3.5644,-3.5664,-3.5664,-3.5664,-3.5664,-3.5547,-3.5293,-3.5273,-3.5273,-3.5273,-3.5547,-3.5664,-3.5664,-3.5918,-3.6016,-3.5488,-3.5742,-3.6016,-3.6016,-3.6016,-3.5918,-3.5566,-3.5762,-3.5918,-3.5547,-3.5762,-3.6133,-3.6523,-3.6973,-3.7851,-3.9531,-4.0527,-4.1543,-4.2891,-4.3398,-4.3633,-4.3691,-4.3711,-4.3711,-4.3711,-4.3711,-4.3711,-4.3711,-4.3711,-4.3711,-4.3711,-4.3711,-4.3652,-4.3535,-4.2754,-4.1973,-4.1172,-4.1172,-4.1172,-4.1172,-4.1172,-4.1172,-4.1172,-4.0781,-4.0605,-4.0586,-4.0215,0.0,-3.9863,-3.9453,-3.9219,-3.9082,-3.8711,-3.8574,-3.8574,-3.8574,-3.8574,-3.8574,-3.8574,-3.8281,-3.7793,-3.7012,-3.6465,-3.6094,-3.6035,-3.6016,-3.6016,-3.6016,-3.6016,-3.6016,-3.6016,-3.6016,-3.6016,-3.6016,-3.6016,-3.6016,-3.6016,-3.6016,-3.6016,-3.6016,-3.6016,-3.6016,-3.6016,-3.6016,-3.6016,-3.6016,-3.6016,-3.6016,-3.6016,-3.6016,-3.6016,-3.6016,-3.6016,-3.6016,-3.6016,-3.6016,-3.6016,-3.6016,-3.6016,-3.6016,-3.6016,-3.6016,-3.6016,-3.6016,-3.6016,-3.6016,-3.6016,-3.6016,-3.6016,-3.6016,-3.6016,-3.6016,-3.5918,-3.5957,-3.6016,-3.6016,-3.6016,-3.5996,-3.5937,-3.5976,-3.5996,-3.5937,-3.5976,-3.6035,-3.6113,-3.6777,-3.7734,-3.9101,-4.0059,-4.1211,-4.2851,-4.3144,-4.332,-4.3672,-4.3711,-4.3711,-4.3711,-4.3711,-4.3711,0.0,-4.3711,-4.3711,-4.3711,-4.3711,-4.3379,-4.2676,-4.2168,-4.168,-4.1172,-4.1172,-4.1172,-4.1172,-4.1172,-4.1172,-4.1172,-4.1094,-4.1055,-4.1055,-4.0976,0.0,-3.9883,-3.9805,-3.9336,-3.8672,-3.8613,-3.8574,-3.8574,-3.8574,-3.8574,-3.8574,-3.8574,-3.8281,-3.7851,-3.7344,-3.6894,-3.6484,-3.6133,-3.6016,-3.6016,-3.6016,-3.6016,-3.6016,-3.6016,-3.6016,-3.6016,-3.6016,-3.6016,-3.6016,-3.6016,-3.6016,-3.6016,-3.6016,-3.6016,-3.6016,-3.6016,-3.6016,-3.6016,-3.6016,-3.6016,-3.6016,-3.6016,-3.6016,-3.6016,-3.6016,-3.6016,-3.6016,-3.6016,-3.6016,-3.6016,-3.6016,-3.6016,-3.6016,-3.6016,-3.6016,-3.6016,-3.6016,-3.6016,-3.6016,-3.6016,-3.6016,-3.6016,-3.6016,-3.6016,-3.6016,-3.6016,-3.6016,-3.6016,-3.6016,-3.6016,-3.5957,-3.5742,-3.5859,-3.5957,-3.5742,-3.5859,-3.6016,-3.6016,-3.6543,-3.7324,-3.8359,-3.9258,-4.0449,-4.2168,-4.2598,-4.2969,-4.3633,-4.3711,-4.3711,-4.3711,-4.3711,-4.3711,-4.3711,-4.3711,-4.3711,-4.3711,-4.3496,-4.3086,-4.2441,-4.2012,-4.1601,-4.1172,-4.1172,-4.1172,-4.1172,-4.1172,-4.1172,-4.1172,-4.1172,-4.1172,-4.1172,-4.0937,0.0,-4.0195,-3.9726,-3.9277,-3.8887,-3.8652,-3.8574,-3.8574,-3.8574,-3.8574,-3.8574,-3.8574,-3.8437,-3.8184,-3.7754,-3.7344,-3.6953,-3.6738,-3.668,-3.668,-3.668,-3.6523,-3.6348,-3.6348,-3.6191,-3.6016,-3.6016,-3.6016,-3.6016,-3.6016,-3.6016,-3.6016,-3.6016,-3.6016,-3.6016,-3.6016,-3.6016,-3.6016,-3.6016,-3.6016,-3.6016,-3.6016,-3.6016,-3.6016,-3.6016,-3.6016,-3.6016,-3.6016,-3.6016,-3.6016,-3.6016,-3.6016,-3.6016,-3.6016,-3.6016,-3.6016,-3.6016,-3.6016,-3.6016,-3.6016,-3.6016,-3.6016,-3.6016,-3.6016,-3.6016,-3.6016,-3.6016,-3.6016,-3.6016,-3.6016,-3.5937,-3.5605,-3.5781,-3.5937,-3.5605,-3.5801,-3.6016,-3.6016,-3.6289,-3.6836,-3.7773,-3.8496,-3.957,-4.1406,-4.2031,-4.2617,-4.3476,-4.3652,-4.3711,-4.3711,-4.3711,0.0,-4.3711,-4.3711,-4.3711,-4.3711,-4.3301,-4.291,-4.2578,-4.2148,-4.1738,-4.1308,-4.1308,-4.1269,-4.1172,-4.1172,-4.1172,-4.1172,-4.1172,-4.1172,-4.1152,-4.0703,0.0,0.0,-3.9531,-3.9141,-3.9043,-3.8711,-3.8574,-3.8574,-3.8574,-3.8574,-3.8574,-3.8574,-3.8574,-3.8516,-3.8164,-3.7773,-3.7422,-3.7324,-3.7305,-3.7305,-3.7305,-3.6992,-3.668,-3.668,-3.6348,-3.6016,-3.6016,-3.6016,-3.6016,-3.6016,-3.6016,-3.6016,-3.6016,-3.6016,-3.6016,-3.6016,-3.6016,-3.6016,-3.6016,-3.6016,-3.6016,-3.6016,-3.6016,-3.6016,-3.6016,-3.6016,-3.6016,-3.6016,-3.6016,-3.6016,-3.6016,-3.6016,-3.6016,-3.6016,-3.6016,-3.6016,-3.6016,-3.6016,-3.6016,-3.6016,-3.6016,-3.6016,-3.6016,-3.6016,-3.6016,-3.6016,-3.6016,-3.6016,-3.6016,-3.6016,-3.6016,-3.5976,-3.5996,-3.6016,-3.5976,-3.5996,-3.6016,-3.6016,-3.6055,-3.6484,-3.7715,-3.7988,-3.8789,-4.0937,-4.1601,-4.2168,-4.3027,-4.3476,-4.3711,-4.3711,-4.3711,-4.3711,-4.3711,-4.3711,-4.3711,-4.3711,-4.3301,-4.3066,-4.3027,-4.2598,-4.2168,-4.1758,-4.1738,-4.1543,-4.1172,-4.1172,-4.1172,-4.1172,-4.1172,-4.1172,-4.1152,-4.0703,0.0,0.0,-3.9414,-3.8984,-3.8633,-3.8594,-3.8574,-3.8574,-3.8574,-3.8574,-3.8574,-3.8574,-3.8574,-3.8574,-3.8535,-3.8223,-3.7793,-3.7402,-3.7305,-3.7305,-3.7305,-3.6992,-3.668,-3.668,-3.6348,-3.6016,-3.6016,-3.6016,-3.6016,-3.6016,-3.6016,-3.6016,-3.6016,-3.6016,-3.6016,-3.6016,-3.6016,-3.6016,-3.6016,-3.6016,-3.6016,-3.6016,-3.6016,-3.6016,-3.6016,-3.6016,-3.6016,-3.6016,-3.6016,-3.6016,-3.6016,-3.6016,-3.6016,-3.6016,-3.6016,-3.6016,-3.6016,-3.6016,-3.6016,-3.6016,-3.6016,-3.6016,-3.6016,-3.6016,-3.6016,-3.5957,-3.6016,-3.6016,-3.6016,-3.6016,-3.6016,-3.6016,-3.6016,-3.6016,-3.6016,-3.6016,-3.6016,-3.6016,-3.6016,-3.6269,-3.7051,-3.7383,-3.8105,-3.9766,-4.0371,-4.1152,-4.2519,-4.2832,-4.3125,-4.3652,-4.3711,-4.3711,-4.3711,-4.3711,-4.3711,-4.3711,-4.3301,-4.3086,-4.3086,-4.2402,-4.1973,-4.1797,-4.1543,-4.1348,-4.1172,-4.1172,-4.1172,-4.1172,-4.0898,-4.0781,-4.0742,-4.0039,0.0,0.0,-3.9004,-3.873,-3.8574,-3.8574,-3.8574,-3.8574,-3.8574,-3.8574,-3.8574,-3.8574,-3.8574,-3.8574,-3.8574,-3.8457,-3.8281,-3.8125,-3.8066,-3.8066,-3.8066,-3.7578,-3.7051,-3.7051,-3.6543,-3.6016,-3.6016,-3.6016,-3.6016,-3.6016,-3.6016,-3.6016,-3.6016,-3.6016,-3.6016,-3.6016,-3.6016,-3.6016,-3.6016,-3.6016,-3.6016,-3.6016,-3.6016,-3.6016,-3.6016,-3.6016,-3.6016,-3.6016,-3.6016,-3.6016,-3.6016,-3.6016,-3.6016,-3.6016,-3.6016,-3.6016,-3.6016,-3.6016,-3.6016,-3.6016,-3.6016,-3.6016,-3.6016,-3.6016,-3.6016,-3.5762,-3.5918,-3.6016,-3.6016,-3.6016,-3.6016,-3.6016,-3.6016,-3.6016,-3.6016,-3.6016,-3.6016,-3.6016,-3.6016,-3.6152,-3.6601,-3.7031,-3.7695,-3.8848,-3.9531,-4.0391,-4.1699,-4.1973,-4.2383,-4.3242,-4.3555,-4.3711,-4.3711,-4.3594,-4.3574,-4.3691,-4.3183,-4.3008,-4.3262,-4.2558,-4.2109,-4.1992,-4.1562,-4.1308,-4.1172,-4.1172,-4.1172,-4.1152,-4.0723,-4.0527,-4.0469,-3.959,0.0,0.0,-3.875,-3.8574,-3.8574,-3.8574,-3.8574,-3.8574,-3.8574,-3.8574,-3.8574,-3.8574,-3.8574,-3.8574,-3.8574,-3.8574,-3.8574,-3.8574,-3.8574,-3.8574,-3.8574,-3.7949,-3.7246,-3.6992,-3.6465,-3.6016,-3.6016,-3.6016,-3.6016,-3.6016,-3.6016,-3.6016,-3.6016,-3.6016,-3.6016,-3.6016,-3.6016,-3.6016,-3.6016,-3.6016,-3.6016,-3.6016,-3.6016,-3.6016,-3.6016,-3.6016,-3.6016,-3.6016,-3.6016,-3.6016,-3.6016,-3.6016,-3.6016,-3.6016,-3.6016,-3.6016,-3.6016,-3.6016,-3.6016,-3.6016,-3.6016,-3.6016,-3.6016,-3.6016,-3.6016,-3.541,-3.5703,-3.6016,-3.6016,-3.6016,-3.6016,-3.6016,-3.6016,-3.6016,-3.6016,-3.6016,-3.6016,-3.6016,-3.6016,-3.6152,-3.6601,-3.7031,-3.7598,-3.8457,-3.9336,-4.0059,-4.0488,-4.0918,-4.1523,-4.2363,-4.3203,-4.3711,-4.3711,-4.332,0.0,-4.3691,-4.2891,-4.2812,-4.3672,-4.3281,-4.2851,-4.2422,-4.2012,-4.1582,-4.1172,-4.1172,-4.1172,-4.1152,-4.0723,-4.0527,0.0,0.0,0.0,0.0,-3.875,-3.8574,-3.8574,-3.8574,-3.8574,-3.8574,-3.8574,-3.8574,-3.8574,-3.8574,-3.8574,-3.8574,-3.8574,-3.8574,-3.8574,-3.8574,-3.8574,-3.8574,-3.8574,-3.7949,-3.7109,-3.625,-3.6035,-3.6016,-3.6016,-3.6016,-3.6016,-3.6016,-3.6016,-3.6016,-3.6016,-3.6016,-3.6016,-3.6016,-3.6016,-3.6016,-3.6016,-3.6016,-3.6016,-3.6016,-3.6016,-3.6016,-3.6016,-3.6016,-3.6016,-3.6016,-3.6016,-3.6016,-3.6016,-3.6016,-3.6016,-3.6016,-3.6016,-3.6016,-3.6016,-3.6016,-3.6016,-3.6016,-3.6016,-3.6016,-3.6016,-3.6016,-3.6016,-3.4844,-3.5254,-3.5586,-3.5586,-3.5801,-3.6016,-3.6016,-3.6016,-3.6016,-3.6016,-3.6016,-3.6016,-3.6016,-3.6016,-3.6152,-3.6601,-3.7031,-3.75,-3.8047,-3.8867,-3.9687,-4.043,-4.1406,-4.2129,-4.2402,0.0,-4.2832,-4.2832,-4.2715,-4.2812,-4.3262,-4.2734,-4.2695,-4.3262,-4.2578,-4.2129,-4.1992,-4.1582,-4.1308,-4.1172,-4.1172,-4.1172,-4.1152,-4.043,-4.0098,0.0,0.0,0.0,0.0,-3.8633,-3.8574,-3.8574,-3.8574,-3.8574,-3.8574,-3.8574,-3.8574,-3.8574,-3.8574,-3.8574,-3.8574,-3.8574,-3.8574,-3.8574,-3.8574,-3.8574,-3.8516,-3.8223,-3.7734,-3.7168,-3.6601,-3.625,-3.6016,-3.6016,-3.6016,-3.6016,-3.6016,-3.6016,-3.6016,-3.6016,-3.6016,-3.6016,-3.6016,-3.6016,-3.6016,-3.6016,-3.6016,-3.6016,-3.6016,-3.6016,-3.6016,-3.6016,-3.6016,-3.6016,-3.6016,-3.6016,-3.6016,-3.6016,-3.6016,-3.6016,-3.6016,-3.6016,-3.6016,-3.6016,-3.6016,-3.6016,-3.6016,-3.6016,-3.6016,-3.6016,-3.6016,-3.6016,-3.4336,-3.4785,-3.5176,-3.5351,-3.5586,-3.582,-3.5996,-3.6016,-3.6016,-3.6016,-3.6016,-3.6016,-3.6016,-3.6016,-3.6152,-3.6601,-3.7031,-3.7441,-3.7871,-3.8652,-3.9473,-4.0195,-4.1269,-4.1953,0.0,-4.2246,-4.2422,-4.2422,-4.2285,-4.2383,-4.2812,-4.2266,-4.2148,-4.2578,-4.207,-4.1797,-4.1797,-4.1387,-4.1172,-4.1172,-4.1172,-4.1094,-4.0898,-4.0215,-3.9805,0.0,0.0,0.0,0.0,-3.875,-3.8711,-3.8594,-3.875,-3.8711,-3.8574,-3.8574,-3.8574,-3.8574,-3.8574,-3.8574,-3.8574,-3.8574,-3.8044,-3.74,-3.7321,-3.7793,-3.8242,-3.7812,-3.7383,-3.6973,-3.6543,-3.623,-3.6055,-3.623,-3.6269,-3.6309,-3.6465,-3.6504,-3.6504,-3.6504,-3.6504,-3.6445,-3.6289,-3.6269,-3.6211,-3.6035,-3.6152,-3.6269,-3.6269,-3.5678,-3.5338,-3.5338,-3.4543,-3.4033,-3.4033,-3.5253,-3.5743,-3.5021,-3.4952,-3.4952,-3.4952,-3.4227,-3.4158,-3.4952,-3.4952,-3.5314,-3.6016,-3.6016,-3.6016,-3.6016,-3.6016,-3.6016,0.0,-3.4355,-3.4805,-3.5234,-3.5391,-3.5547,-3.5937,-3.6016,0.0,-3.6016,-3.6016,-3.6016,-3.6016,-3.6016,-3.6152,-3.6601,-3.7031,-3.7441,-3.7871,-3.8691,-3.9434,-3.9922,-4.0684,-4.1172,-4.1172,-4.1875,-4.2344,-4.2344,-4.1973,-4.1933,-4.2363,-4.1621,-4.1367,-4.1797,-4.1777,-4.1758,-4.1758,-4.1367,-4.1172,-4.1172,-4.1152,-4.0918,-4.0508,-4.0059,-3.9609,0.0,0.0,0.0,0.0,-3.9023,-3.8965,-3.8652,-3.9043,-3.8965,-3.8613,-3.8594,-3.8574,-3.8574,-3.8574,-3.8574,-3.8574,-3.8428,-3.7032,-3.5425,-3.4972,-3.6195,-3.7617,-3.719,-3.6922,-3.6582,-3.6172,-3.6074,-3.6172,-3.6582,-3.6699,-3.6816,-3.7207,-3.7305,-3.7305,-3.7305,-3.7305,-3.7098,-3.6638,-3.6491,-3.6355,-3.5742,-3.6012,-3.6282,-3.6282,-3.491,-3.3964,-3.3964,-3.2117,-3.0743,-3.0614,-3.3702,-3.4883,-3.3101,-3.3013,-3.3013,-3.3013,-3.1245,-3.1158,-3.2961,-3.3013,-3.3951,-3.5811,-3.5811,-3.5879,-3.6016,-3.6016,-3.6016,-3.3535,0.0,-3.4726,-3.4824,-3.5371,-3.5898,0.0,-3.6016,-3.6016,-3.6016,-3.6016,-3.6016,-3.6016,-3.6016,-3.6152,-3.6601,-3.7031,-3.7441,-3.7871,-3.8965,-4.0019,-4.0781,-4.1055,-4.1172,-4.1172,-4.1348,-4.1465,-4.1465,-4.1387,-4.1504,-4.1933,-4.1445,-4.1367,-4.1797,-4.1484,-4.1328,-4.1328,-4.123,-4.1172,-4.1172,-4.084,-4.0625,-4.0488,-3.9726,-3.9297,0.0,0.0,0.0,-3.8613,-3.9023,-3.9141,-3.9062,-3.916,-3.9141,-3.9004,-3.8691,-3.8574,-3.8574,-3.8574,-3.8574,-3.8336,-3.6737,-3.576,-3.4899,-3.3243,-3.4112,-3.5521,-3.5261,-3.5901,-3.6641,-3.6543,-3.6523,-3.6543,-3.6641,-3.6914,-3.7168,-3.7266,-3.7305,-3.7305,-3.7305,-3.7305,-3.6752,-3.5092,-3.4788,-3.4234,-3.2601,-3.2454,-3.2505,-3.2505,-3.2154,-3.1896,-3.1896,-3.1463,-3.0534,-2.9087,-3.0617,-3.1456,-3.1017,-3.0946,-3.0946,-3.0946,-3.0522,-3.0522,-3.0946,-3.0946,-3.1948,-3.3882,-3.3882,-3.459,-3.6016,-3.6016,-3.6016,-3.3418,-3.3906,-3.4512,-3.4922,-3.5371,-3.584,-3.623,-3.6152,-3.6016,-3.6016,-3.6016,-3.6016,-3.6016,-3.6016,-3.6152,-3.6601,-3.7031,-3.7656,-3.8691,-3.9453,-4.0215,-4.1074,-4.1172,-4.1172,0.0,-4.1172,-4.1172,-4.1172,-4.1172,-4.1269,-4.1504,-4.1308,-4.1269,-4.1504,-4.1289,-4.1172,-4.1172,-4.0976,-4.0976,-4.1172,-4.0527,-4.0234,-4.0215,-3.9512,-3.9101,0.0,0.0,0.0,-3.8633,-3.9258,-3.9394,-3.9238,-3.9648,-3.9551,-3.918,-3.8945,-3.875,-3.8574,-3.8574,-3.7951,-3.6774,-3.4631,-3.314,-3.2027,-3.0675,-3.0859,-3.1839,-3.2671,-3.3287,-3.3812,-3.3923,-3.3977,-3.428,-3.5538,-3.6014,-3.6527,-3.7617,-3.7134,-3.6447,-3.6447,-3.5704,-3.4683,-3.3301,-3.312,-3.2702,-3.1416,-3.1384,-3.1499,-3.1499,-3.0825,-3.0395,-3.0395,-2.9441,-2.8399,-2.7364,-2.7791,-2.8511,-2.9372,-2.9445,-2.9445,-2.9445,-2.8431,-2.8355,-2.9208,-2.9894,-3.0889,-3.2068,-3.1965,-3.2368,-3.3378,-3.3378,-3.3974,-3.3496,-3.3887,-3.4434,-3.5117,-3.5391,-3.5684,-3.6406,-3.6289,-3.6016,-3.6016,-3.6016,-3.6016,-3.6016,-3.6074,-3.623,-3.6621,-3.7129,-3.8047,-3.9668,-3.9961,-4.0293,-4.1074,-4.1172,0.0,-4.1172,-4.1172,-4.1172,-4.1172,0.0,-4.1172,-4.1172,-4.1172,-4.1172,-4.1172,-4.1113,-4.1074,-4.1074,-4.0703,-4.0684,-4.0976,-4.0176,-3.9785,-3.9766,-3.9316,-3.8906,-3.8574,0.0,0.0,-3.873,-3.9473,-3.9629,-3.9473,-4.0156,-3.9961,-3.9297,-3.9238,-3.8779,-3.8117,-3.7805,-3.6516,-3.4698,-3.2351,-3.0382,-2.8791,-2.7999,-2.7585,-2.7777,-2.9622,-3.0209,-3.0458,-3.07,-3.0865,-3.1549,-3.388,-3.4442,-3.5118,-3.7196,-3.6275,-3.505,-3.505,-3.37,-3.2254,-3.1566,-3.1442,-3.1179,-3.0575,-3.0782,-3.099,-3.099,-2.9808,-2.8905,-2.8905,-2.724,-2.6026,-2.6026,-2.5798,-2.6315,-2.7961,-2.801,-2.7966,-2.7966,-2.6157,-2.5855,-2.7408,-2.8847,-2.9737,-3.0267,-3.0046,-3.0058,-3.0392,-3.0392,-3.1446,-3.3867,-3.457,-3.5137,-3.4863,-3.5371,-3.5957,-3.6094,-3.6074,-3.6016,-3.6016,-3.6016,-3.6016,-3.6016,-3.6328,-3.6601,-3.666,-3.7637,-3.873,-3.9746,-4.0195,-4.0605,-4.1113,0.0,-4.1172,-4.1172,-4.1172,-4.1172,-4.1172,0.0,-4.1172,-4.1172,-4.1172,-4.1172,-4.1172,-4.082,-4.0625,-4.0625,-4.0566,-4.0371,-4.0078,-3.9551,-3.9316,-3.9297,-3.8867,-3.8633,-3.8574,0.0,-3.8769,-3.9121,-3.9258,-3.9707,-4.0293,-4.0078,-3.9902,-3.9746,-3.9355,-3.7854,-3.5738,-3.4018,-3.3264,-3.2641,-3.053,-2.9305,-2.8356,-2.6822,-2.5745,-2.5261,-2.5805,-2.8306,-3.0716,-3.0766,-3.1243,-3.1737,-3.2151,-3.2568,-3.2953,-3.3322,-3.3188,-3.2944,-3.2944,-3.2717,-3.1956,-3.0069,-2.9745,-2.9204,-2.7401,-2.7208,-2.7236,-2.7236,-2.6977,-2.6847,-2.6847,-2.6583,-2.6319,-2.6319,-2.6279,-2.641,-2.6711,-2.6235,-2.5963,-2.5963,-2.5617,-2.5483,-2.5527,-2.5758,-2.6569,-2.8,-2.7955,-2.8913,-3.07,-3.07,-3.1042,-3.3672,-3.4355,-3.5019,-3.5059,-3.5898,-3.6641,-3.6426,-3.6367,-3.6309,-3.6074,-3.6016,-3.6016,-3.6016,-3.6367,-3.6816,-3.7266,-3.8047,-3.8887,-3.9766,-4.0254,-4.0684,0.0,0.0,-4.1172,-4.1172,-4.1172,-4.1172,0.0,0.0,0.0,-4.1172,-4.1172,-4.1074,-4.084,-4.0625,-4.0293,-3.9824,-3.9805,-3.9844,-3.9883,-3.9199,-3.8984,-3.9199,-3.9004,-3.8789,-3.8594,0.0,-3.9023,-3.9219,-3.9473,-3.9941,-4.0508,-4.0312,-4.0098,-3.9654,-3.7876,-3.6497,-3.505,-3.1879,-3.0823,-3.0484,-2.825,-2.7403,-2.7024,-2.6026,-2.5438,-2.5144,-2.5277,-2.6509,-2.7718,-2.7896,-2.8295,-2.9,-3.0236,-3.0698,-3.113,-3.2277,-3.159,-3.0823,-3.0823,-2.9991,-2.892,-2.7919,-2.7762,-2.7462,-2.6544,-2.6386,-2.6386,-2.6386,-2.6386,-2.6386,-2.6386,-2.6386,-2.6386,-2.6386,-2.6386,-2.6386,-2.6386,-2.6132,-2.5919,-2.5758,-2.5758,-2.5692,-2.5558,-2.5398,-2.5772,-2.6678,-2.6509,-2.6929,-2.794,-2.794,-2.8701,-3.3535,-3.4199,-3.4941,-3.5312,-3.6191,-3.6973,-3.6836,-3.6738,-3.6582,-3.623,-3.6172,-3.6133,-3.6035,-3.6465,-3.709,-3.7949,-3.8535,-3.9121,-3.9805,-4.0351,-4.0801,-4.1133,-4.1074,-4.1055,-4.1172,-4.1074,-4.1055,0.0,0.0,0.0,-4.1035,-4.1016,-4.082,-4.0391,-4.0273,-3.9883,-3.9199,-3.9101,-3.9238,-3.959,-3.8906,-3.8789,-3.9199,-3.9199,-3.9082,-3.8906,-3.9219,-3.9414,-3.9531,-3.9785,-3.9891,-3.9836,-3.9721,-3.9071,-3.799,-3.5091,-3.4059,-3.3532,-2.9975,-2.8686,-2.8409,-2.6666,-2.609,-2.5932,-2.5772,-2.5625,-2.5531,-2.5598,-2.5451,-2.5331,-2.5558,-2.5838,-2.6497,-2.8238,-2.8686,-2.9138,-3.0746,-2.9836,-2.8686,-2.8686,-2.7462,-2.6386,-2.6386,-2.6386,-2.6386,-2.6386,-2.6386,-2.6386,-2.6386,-2.6386,-2.6386,-2.6386,-2.6386,-2.6386,-2.6386,-2.6386,-2.6386,-2.6386,-2.6386,-2.6293,-2.6066,-2.6052,-2.6026,-2.6037,-2.5732,-2.5692,-2.5852,-2.5625,-2.5545,-2.5611,-2.5611,-2.6592,-3.3906,-3.4668,-3.5351,-3.5391,-3.5762,-3.6309,-3.707,-3.6953,-3.666,-3.6641,-3.6621,-3.6504,-3.6094,-3.6699,-3.7539,-3.8398,-3.9238,-3.9824,-3.9883,0.0,-4.1133,-4.1172,-4.082,-4.0723,-4.1133,-4.0801,0.0,0.0,0.0,0.0,-4.0586,-4.0566,-4.0371,-3.9961,-3.9512,-3.9258,-3.9199,-3.8809,-3.8633,-3.8672,-3.8613,-3.8789,-3.9199,-3.9199,-3.9414,-3.9805,-3.9824,-4.0059,-4.041,-4.0039,-3.9184,-3.8025,-3.7358,-3.5663,-3.3249,-3.0794,-2.9821,-2.9511,-2.7384,-2.6623,-2.661,-2.6439,-2.6172,-2.5999,-2.6253,-2.5945,-2.5571,-2.5852,-2.5983,-2.597,-2.5996,-2.6146,-2.6439,-2.661,-2.6623,-2.6702,-2.6768,-2.6689,-2.6623,-2.6623,-2.6465,-2.6386,-2.6386,-2.6386,-2.6386,-2.6386,-2.6386,-2.6386,-2.6386,-2.6386,-2.6386,-2.6386,-2.6386,-2.6386,-2.6386,-2.6386,-2.6386,-2.6386,-2.6386,-2.6373,-2.636,-2.636,-2.6226,-2.6037,-2.601,-2.5798,-2.5545,-2.5518,-2.5651,-2.5919,-2.5919,-2.6157,-3.3633,-3.4297,-3.5019,-3.5332,-3.5703,-3.6172,-3.6777,-3.6992,-3.7051,-3.7051,-3.7051,-3.7012,-3.6836,-3.707,-3.748,-3.8066,-3.9141,-3.9902,-3.9902,-4.0625,-4.1074,-4.0801,-4.0625,-4.0586,-4.0762,0.0,0.0,0.0,0.0,0.0,-4.0527,-4.0273,-3.9922,-3.9473,-3.9297,-3.9082,-3.8809,-3.8652,-3.8574,-3.8574,-3.8574,-3.8789,-3.9219,-3.9492,-3.9726,-3.9902,-4.0176,-4.0371,-4.0355,-3.8915,-3.8002,-3.7463,-3.5322,-3.3787,-3.2457,-3.0253,-2.9371,-2.9138,-2.7083,-2.6386,-2.6386,-2.6386,-2.6319,-2.6239,-2.636,-2.6239,-2.6079,-2.6199,-2.6226,-2.6186,-2.5999,-2.6172,-2.6386,-2.6386,-2.6386,-2.6386,-2.6386,-2.6386,-2.6386,-2.6386,-2.6386,-2.6386,-2.6386,-2.6386,-2.6386,-2.6386,-2.6386,-2.6386,-2.6386,-2.6386,-2.6386,-2.6386,-2.6386,-2.6386,-2.6386,-2.6386,-2.6386,-2.6386,-2.6386,-2.6386,-2.6386,-2.6386,-2.6333,-2.6226,-2.6226,-2.6172,-2.6052,-2.6052,-2.6119,-2.6226,-2.6226,-2.6279,-3.3633,-3.4258,-3.5,-3.5312,-3.582,-3.6348,-3.6777,-3.709,-3.7305,-3.7305,-3.7187,-3.7187,-3.7441,-3.7383,-3.7519,-3.8223,-3.9219,-3.9941,-4.0078,-4.0723,-4.1016,-4.0586,-4.0527,-4.0527,-4.0527,0.0,0.0,0.0,0.0,0.0,0.0,-3.9844,-3.9473,-3.9023,-3.9004,-3.8867,-3.8574,-3.8574,-3.8574,-3.8574,-3.8574,-3.8789,-3.9219,-3.9687,-3.9961,-4.0117,-4.0547,-4.0723,-4.0549,-3.825,-3.6454,-3.4906,-3.2139,-3.0888,-3.0361,-2.8997,-2.8452,-2.8218,-2.6847,-2.6386,-2.6386,-2.6386,-2.6386,-2.6386,-2.6386,-2.6386,-2.6386,-2.6386,-2.6386,-2.6346,-2.6146,-2.6239,-2.6386,-2.6386,-2.6386,-2.6386,-2.6386,-2.6386,-2.6386,-2.6386,-2.6386,-2.6386,-2.6386,-2.6386,-2.6386,-2.6386,-2.6386,-2.6386,-2.6386,-2.6386,-2.6386,-2.6386,-2.6386,-2.6386,-2.6386,-2.6386,-2.6386,-2.6386,-2.6386,-2.6386,-2.6386,-2.6386,-2.6386,-2.6386,-2.6386,-2.6386,-2.6386,-2.6386,-2.6386,-2.6386,-2.6386,-2.6386,-3.4062,-3.4707,-3.5391,-3.5391,-3.6035,-3.6777,-3.7187,-3.7305,-3.7305,-3.7305,-3.6973,-3.6934,-3.7773,-3.7578,-3.7715,-3.8984,-3.959,-4.0039,-4.0469,-4.0898,-4.1016,-4.0566,-4.0508,-4.0508,0.0,0.0,0.0,0.0,0.0,0.0,0.0,-3.9199,-3.9004,-3.8594,-3.8574,-3.8574,-3.8574,-3.8574,-3.8574,-3.8574,-3.8574,-3.8789,-3.9219,-3.9687,-4.0117,-4.0547,-4.0976,-4.1172,-4.0977,-3.8439,-3.4558,-2.9863,-2.7682,-2.664,-2.6386,-2.6386,-2.6386,-2.6386,-2.6386,-2.6386,-2.6386,-2.6386,-2.6386,-2.6386,-2.6386,-2.6386,-2.6386,-2.6386,-2.6386,-2.6386,-2.6386,-2.6386,-2.6386,-2.6386,-2.6386,-2.6386,-2.6386,-2.6386,-2.6386,-2.6386,-2.6386,-2.6386,-2.6386,-2.6386,-2.6386,-2.6386,-2.6386,-2.6386,-2.6386,-2.6386,-2.6386,-2.6386,-2.6386,-2.6386,-2.6386,-2.6386,-2.6386,-2.6386,-2.6386,-2.6386,-2.6386,-2.6386,-2.6386,-2.6386,-2.6386,-2.6386,-2.6386,-2.6386,-2.6386,-2.6386,-2.6386,-2.6386,-3.3691,-3.4238,-3.4902,-3.4902,-3.5801,-3.6699,-3.6836,-3.7324,-3.7832,-3.8125,-3.7851,-3.7637,-3.7871,-3.7812,-3.7871,-3.8242,-3.9199,-3.9941,-4.0059,-4.0449,-4.0566,-4.0137,-3.9805,-3.959,0.0,0.0,0.0,0.0,0.0,0.0,0.0,-3.8926,-3.8711,-3.8574,-3.8574,-3.8574,-3.8574,-3.8574,-3.8574,-3.8574,-3.8574,-3.8789,-3.9219,-3.9687,-4.0117,-4.047,-3.9343,-3.8795,-3.8246,-3.4004,-3.0502,-2.7654,-2.6826,-2.6466,-2.6386,-2.6386,-2.6386,-2.6386,-2.6386,-2.6386,-2.6386,-2.6386,-2.6386,-2.6386,-2.6386,-2.6386,-2.6386,-2.6386,-2.6386,-2.6386,-2.6386,-2.6386,-2.6386,-2.6386,-2.6386,-2.6386,-2.6386,-2.6386,-2.6386,-2.6386,-2.6386,-2.6386,-2.6386,-2.6386,-2.6386,-2.6386,-2.6386,-2.6386,-2.6386,-2.6386,-2.6386,-2.6386,-2.6386,-2.6386,-2.6386,-2.6386,-2.6386,-2.6386,-2.6386,-2.6386,-2.6386,-2.6386,-2.6386,-2.6386,-2.6386,-2.6386,-2.6386,-2.6386,-2.6386,-2.6386,-2.6386,-2.6386,-3.4219,-3.4707,-3.5254,-3.5449,-3.6211,-3.7012,-3.7344,-3.7676,-3.8047,-3.8476,-3.8223,-3.7969,-3.8144,-3.8047,0.0,-3.8379,-3.9258,-3.9902,-3.9902,-4.0254,-4.0293,-3.9687,-3.9531,0.0,0.0,0.0,0.0,0.0,0.0,0.0,0.0,-3.8711,-3.8574,-3.8574,-3.8574,-3.8574,-3.8574,-3.8574,-3.8574,-3.8574,-3.8574,-3.8711,-3.8965,-3.9609,-4.0039,-4.0141,-3.8457,-3.6561,-3.4491,-3.1401,-2.8698,-2.664,-2.6453,-2.6386,-2.6386,-2.6386,-2.6386,-2.6386,-2.6386,-2.6386,-2.6386,-2.6386,-2.6386,-2.6386,-2.6386,-2.6386,-2.6386,-2.6386,-2.6386,-2.6386,-2.6386,-2.6386,-2.6386,-2.6386,-2.6386,-2.6386,-2.6386,-2.6386,-2.6386,-2.6386,-2.6386,-2.6386,-2.6386,-2.6386,-2.6386,-2.6386,-2.6386,-2.6386,-2.6386,-2.6386,-2.6386,-2.6386,-2.6386,-2.6386,-2.6386,-2.6386,-2.6386,-2.6386,-2.6386,-2.6386,-2.6386,-2.6386,-2.6386,-2.6386,-2.6386,-2.6386,-2.6386,-2.6386,-2.6386,-2.6386,-2.6386,-2.6386,-3.5156,-3.5644,-3.6113,-3.6504,-3.6992,-3.7578,-3.8398,-3.8262,-3.8086,-3.8496,-3.8262,-3.8105,-3.8496,-3.8242,-3.8242,-3.9023,-3.957,-3.9883,-3.9844,-4.0195,-4.0156,-3.9297,-3.9551,0.0,0.0,0.0,0.0,0.0,0.0,0.0,0.0,-3.8574,-3.8574,-3.8574,-3.8574,-3.8574,-3.8574,-3.8574,-3.8574,-3.8574,-3.8574,-3.8574,-3.8613,-3.9492,-3.9676,-3.926,-3.7604,-3.4333,-3.0106,-2.9873,-2.8411,-2.6386,-2.6386,-2.6386,-2.6386,-2.6386,-2.6386,-2.6386,-2.6386,-2.6386,-2.6386,-2.6386,-2.6386,-2.6386,-2.6386,-2.6386,-2.6386,-2.6386,-2.6386,-2.6386,-2.6386,-2.6386,-2.6386,-2.6386,-2.6386,-2.6386,-2.6386,-2.6386,-2.6386,-2.6386,-2.6386,-2.6386,-2.6386,-2.6386,-2.6386,-2.6386,-2.6386,-2.6386,-2.6386,-2.6386,-2.6386,-2.6386,-2.6386,-2.6386,-2.6386,-2.6386,-2.6386,-2.6386,-2.6386,-2.6386,-2.6386,-2.6386,-2.6386,-2.6386,-2.6413,-2.6426,-2.6426,-2.6453,-2.6466,-2.6466,-2.6466,-2.6466,-3.4336,-3.5176,-3.6035,-3.6133,-3.6973,-3.793,-3.8457,-3.8496,-3.8457,-3.8555,-3.8496,-3.8457,-3.8555,-3.8496,-3.8496,-3.8691,-3.9375,-3.9766,-3.9394,-3.9746,-3.9824,-3.9258,0.0,0.0,0.0,0.0,0.0,0.0,0.0,0.0,-3.8574,-3.8574,-3.8574,-3.8574,-3.8574,-3.8574,-3.8574,-3.8574,-3.8574,0.0,-3.8574,-3.8574,-3.8613,-3.9492,-3.8249,-3.5337,-3.2984,-3.0346,-2.7591,-2.7302,-2.6901,-2.6386,-2.6386,-2.6386,-2.6386,-2.6386,-2.6386,-2.6386,-2.6386,-2.6386,-2.6386,-2.6386,-2.6386,-2.6386,-2.6386,-2.6386,-2.6386,-2.6386,-2.6386,-2.6386,-2.6386,-2.6386,-2.6386,-2.6386,-2.6386,-2.6386,-2.6386,-2.6386,-2.6386,-2.6386,-2.6386,-2.6386,-2.6386,-2.6386,-2.6386,-2.6386,-2.6386,-2.6386,-2.6386,-2.6386,-2.6386,-2.6386,-2.6386,-2.6386,-2.6386,-2.6386,-2.6386,-2.6386,-2.6386,-2.6386,-2.6386,-2.6386,-2.6386,-2.6386,-2.6613,-2.6734,-2.6734,-2.6961,-2.7081,-2.7081,-2.7081,-2.7081,-3.4258,-3.5039,-3.5859,-3.6484,-3.7441,-3.8301,-3.8516,-3.8574,-3.8574,-3.8574,-3.873,-3.8809,-3.8613,-3.875,-3.8887,-3.8887,-3.9453,-3.9726,-3.9258,-3.9609,-3.9726,0.0,0.0,0.0,0.0,0.0,0.0,0.0,0.0,-3.8574,-3.8574,-3.8574,-3.8574,-3.8574,-3.8574,-3.8574,-3.8574,-3.8574,-3.8574,-3.8574,-3.8574,-3.8233,-3.7464,-3.8009,-3.6785,-3.409,-3.1582,-2.9057,-2.68,-2.6507,-2.6386,-2.6386,-2.6386,-2.6386,-2.6386,-2.6386,-2.6386,-2.6386,-2.6386,-2.6386,-2.6386,-2.6386,-2.6386,-2.6386,-2.6386,-2.6386,-2.6386,-2.6386,-2.6386,-2.6386,-2.6386,-2.6386,-2.6386,-2.6386,-2.6386,-2.6386,-2.6386,-2.6386,-2.6386,-2.6386,-2.6386,-2.6386,-2.6386,-2.6386,-2.6386,-2.6386,-2.6386,-2.6386,-2.6386,-2.6386,-2.6386,-2.6386,-2.6386,-2.6386,-2.6386,-2.6386,-2.6386,-2.6386,-2.652,-2.66,-2.66,-2.6734,-2.6747,-2.66,-2.6881,-2.7028,-2.7041,-2.7188,-2.7268,-2.7268,-2.7268,-2.7268,-3.416,-3.4883,-3.5723,-3.707,-3.7949,-3.8476,-3.8555,-3.8574,-3.8574,-3.8574,-3.8906,-3.9101,-3.875,-3.8965,-3.9238,-3.9316,-3.9648,-3.9766,-3.9375,-3.9707,-3.9844,0.0,0.0,0.0,0.0,0.0,0.0,0.0,0.0,-3.8574,-3.8574,-3.8574,-3.8574,-3.8574,-3.8574,-3.8574,-3.8574,-3.8574,-3.8574,-3.8574,-3.8574,-3.7739,-3.6146,-3.6012,-3.5054,-3.3352,-3.0931,-2.8665,-2.6734,-2.6493,-2.6386,-2.6386,-2.6386,-2.6386,-2.6386,-2.6386,-2.6386,-2.6386,-2.6386,-2.6386,-2.6386,-2.6386,-2.6386,-2.6386,-2.6386,-2.6386,-2.6386,-2.6386,-2.6386,-2.6386,-2.6386,-2.6386,-2.6386,-2.6386,-2.6386,-2.6386,-2.6386,-2.6386,-2.6386,-2.6386,-2.6386,-2.6386,-2.6386,-2.6386,-2.6386,-2.6386,-2.6386,-2.6386,-2.6386,-2.6386,-2.6386,-2.6386,-2.6386,-2.6386,-2.6386,-2.6386,-2.6413,-2.6466,-2.6694,-2.6841,-2.6894,-2.7188,-2.7228,-2.6974,-2.7215,-2.7348,-2.7348,-2.7388,-2.7497,-2.7497,-2.7497,-2.7497,-3.291,-3.4199,-3.5781,-3.7422,-3.793,-3.8105,-3.8496,-3.8574,-3.8574,-3.8574,-3.8906,-3.918,-3.9121,-3.916,-3.9336,-3.9746,-3.9863,-3.9883,-3.9805,-4.0176,-4.0273,0.0,0.0,0.0,0.0,0.0,0.0,0.0,-3.8789,-3.8574,-3.8574,-3.8574,-3.8574,-3.8574,-3.8574,-3.8574,-3.8574,-3.8574,-3.8574,-3.8574,-3.8574,-3.7739,-3.6146,-3.4239,-3.2356,-3.0536,-2.8297,-2.6947,-2.644,-2.64,-2.6386,-2.6386,-2.6386,-2.6386,-2.6386,-2.6386,-2.6386,-2.6386,-2.6386,-2.6386,-2.6386,-2.6386,-2.6386,-2.6386,-2.6386,-2.6386,-2.6386,-2.6386,-2.6386,-2.6386,-2.6386,-2.6386,-2.6386,-2.6386,-2.6386,-2.6386,-2.6386,-2.6386,-2.6386,-2.6386,-2.6386,-2.6386,-2.6386,-2.6386,-2.6386,-2.6386,-2.6386,-2.6386,-2.6386,-2.6386,-2.6386,-2.6386,-2.6386,-2.6386,-2.6386,-2.6386,-2.6493,-2.6747,-2.68,-2.6934,-2.7201,-2.7482,-2.7629,-2.7575,-2.7615,-2.7642,-2.7642,-2.7896,-2.8114,-2.8114,-2.8114,-2.8114,-3.1903,-3.2805,-3.4047,-3.5294,-3.5931,-3.6686,-3.7947,-3.8398,-3.8574,-3.8574,-3.8002,-3.7745,-3.8666,-3.9043,-3.9277,-3.9473,-3.9726,-3.9902,-3.9902,-4.0254,0.0,0.0,0.0,0.0,0.0,0.0,0.0,0.0,-3.918,-3.8926,-3.8926,-3.8926,-3.8828,-3.8574,-3.8809,-3.8809,-3.8574,-3.8574,-3.8574,-3.8574,-3.8574,-3.6997,-3.4126,-3.3119,-3.1772,-3.0021,-2.7762,-2.6653,-2.6386,-2.6386,-2.6386,-2.6386,-2.6386,-2.6386,-2.6386,-2.6386,-2.6386,-2.6386,-2.6386,-2.6386,-2.6386,-2.6386,-2.6386,-2.6386,-2.6386,-2.6386,-2.6386,-2.6386,-2.6386,-2.6386,-2.6386,-2.6386,-2.6386,-2.6386,-2.6386,-2.6386,-2.6386,-2.6386,-2.6386,-2.6386,-2.6386,-2.6386,-2.6386,-2.6386,-2.6386,-2.6386,-2.6386,-2.6386,-2.6386,-2.6386,-2.6386,-2.6386,-2.6386,-2.6453,-2.6613,-2.6627,-2.676,-2.7054,-2.7228,-2.7375,-2.7509,-2.7789,-2.7949,-2.7949,-2.7949,-2.7949,-2.7949,-2.8167,-2.8221,-2.8221,-2.8221,-2.8221,-3.0792,-3.1043,-3.152,-3.263,-3.3375,-3.4378,-3.5917,-3.7036,-3.7686,-3.759,-3.6682,-3.6273,-3.747,-3.8073,-3.8475,-3.8571,-3.9348,-3.9941,-4.0039,-4.041,0.0,0.0,0.0,0.0,0.0,0.0,0.0,0.0,-3.9629,-3.9375,-3.9375,-3.9375,-3.918,-3.875,-3.9043,-3.9004,-3.8574,-3.8574,-3.8574,-3.8574,-3.8574,-3.6442,-3.2505,-3.2505,-3.1273,-2.9035,-2.7412,-2.6587,-2.6386,-2.6386,-2.6386,-2.6386,-2.6386,-2.6386,-2.6386,-2.6386,-2.6386,-2.6386,-2.6386,-2.6386,-2.6386,-2.6386,-2.6386,-2.6386,-2.6386,-2.6386,-2.6386,-2.6386,-2.6386,-2.6386,-2.6386,-2.6386,-2.6386,-2.6386,-2.6453,-2.648,-2.64,-2.6453,-2.648,-2.64,-2.6453,-2.648,-2.64,-2.6386,-2.6386,-2.6386,-2.6386,-2.6386,-2.6386,-2.6386,-2.6413,-2.6493,-2.6493,-2.6613,-2.6907,-2.6934,-2.7068,-2.7362,-2.7575,-2.7736,-2.7802,-2.8114,-2.8221,-2.8221,-2.8221,-2.8221,-2.8221,-2.8221,-2.8221,-2.8221,-2.8221,-2.8221,-2.9426,-2.8905,-2.8327,-2.9897,-3.0533,-3.0931,-3.1722,-3.3646,-3.5139,-3.4776,-3.4939,-3.5138,-3.5102,-3.5754,-3.65,-3.6863,-3.8614,-4.0039,-4.043,-4.0859,0.0,0.0,0.0,0.0,0.0,0.0,0.0,0.0,-4.0098,-3.9863,-3.9863,-3.9863,-3.9648,-3.918,-3.9199,-3.9004,-3.8574,-3.8574,-3.8574,-3.8574,-3.8574,-3.6442,-3.2505,-3.2505,-3.0377,-2.6571,-2.6492,-2.64,-2.6386,-2.6386,-2.6386,-2.6386,-2.6386,-2.6386,-2.6386,-2.6386,-2.6386,-2.6386,-2.6386,-2.6386,-2.6386,-2.6386,-2.6386,-2.6386,-2.6386,-2.6386,-2.6386,-2.6386,-2.6386,-2.6386,-2.6386,-2.6386,-2.6386,-2.6386,-2.66,-2.672,-2.6453,-2.66,-2.672,-2.644,-2.6613,-2.6707,-2.644,-2.6386,-2.6386,-2.6386,-2.6386,-2.6386,-2.6386,-2.6386,-2.6493,-2.6774,-2.68,-2.6921,-2.7215,-2.7241,-2.7362,-2.7655,-2.7696,-2.7829,-2.8194,-2.8221,-2.8221,-2.8221,-2.8221,-2.8221,-2.8221,-2.8221,-2.8221,-2.8221,-2.8221,-2.8221,-2.6523,-2.5802,-2.5683,-2.7238,-2.8005,-2.8822,-3.0519,-3.1895,-3.2831,-3.2694,-3.1845,-3.1195,-3.112,-3.3506,-3.5718,-3.6312,-3.8368,-4.0039,-4.0469,-4.0898,0.0,0.0,0.0,0.0,0.0,0.0,0.0,0.0,0.0,-4.0293,-4.0293,-4.0293,-3.9961,-3.9219,-3.9492,-3.9297,-3.8574,-3.8574,-3.8574,-3.8574,-3.7272,-3.5142,-3.2429,-3.113,-2.91,-2.6667,-2.6667,-2.6667,-2.6667,-2.6667,-2.6667,-2.6667,-2.6667,-2.6547,-2.6386,-2.6386,-2.6386,-2.6386,-2.6386,-2.6386,-2.6386,-2.6386,-2.6386,-2.6386,-2.6386,-2.6386,-2.6386,-2.6386,-2.6386,-2.6386,-2.6386,-2.6533,-2.672,-2.6907,-2.7028,-2.7081,-2.6974,-2.7028,-2.6961,-2.648,-2.6627,-2.6734,-2.644,-2.6386,-2.6386,-2.6386,-2.6386,-2.6453,-2.664,-2.6667,-2.6787,-2.7068,-2.7108,-2.7228,-2.7522,-2.7549,-2.7669,-2.7963,-2.7989,-2.803,-2.8221,-2.8221,-2.8221,-2.8221,-2.8221,-2.8221,-2.8221,-2.8221,-2.8221,-2.8221,-2.8221,-2.8221,-2.4967,-2.3899,-2.3385,-2.4723,-2.5415,-2.6246,-2.81,-2.9407,-3.0267,-3.0251,-3.0044,-2.9623,-2.8942,-3.1712,-3.425,-3.4825,-3.7159,-3.9203,-4.0197,0.0,0.0,0.0,0.0,0.0,0.0,0.0,0.0,0.0,0.0,0.0,-4.0742,-4.0605,-4.0195,-3.9453,-3.9726,-3.9531,-3.8789,-3.8789,-3.8711,-3.8574,-3.6497,-3.4469,-3.2429,-3.0485,-2.8569,-2.6827,-2.6934,-2.6974,-2.6974,-2.6974,-2.6974,-2.6974,-2.6974,-2.6787,-2.6533,-2.6533,-2.6466,-2.6386,-2.6386,-2.6386,-2.64,-2.6507,-2.6533,-2.6547,-2.6653,-2.668,-2.668,-2.668,-2.668,-2.668,-2.668,-2.6827,-2.7041,-2.7335,-2.7415,-2.7388,-2.7281,-2.7268,-2.7121,-2.6627,-2.6694,-2.6734,-2.644,-2.6386,-2.6426,-2.652,-2.6533,-2.664,-2.6934,-2.6974,-2.7081,-2.7375,-2.7415,-2.7535,-2.7816,-2.7843,-2.7936,-2.8221,-2.8221,-2.8221,-2.8221,-2.8221,-2.8221,-2.8221,-2.8221,-2.8221,-2.8221,-2.8221,-2.8221,-2.8221,-2.8221,-2.8221,0.0,0.0,0.0,-2.2728,-2.3038,-2.3278,-2.4388,-2.6241,-2.7677,-2.7548,-2.967,-3.0958,-2.8852,-3.0371,-3.2076,-3.2439,-3.4887,-3.7433,-3.9505,0.0,0.0,0.0,0.0,0.0,0.0,0.0,0.0,0.0,-4.1172,-4.1172,-4.1172,-4.0762,-4.0332,-3.9902,-3.9902,-3.9668,-3.9199,-3.9199,-3.8984,-3.8574,-3.6442,-3.4411,-3.2446,-3.0638,-2.8704,-2.6854,-2.7148,-2.7281,-2.7295,-2.7281,-2.7268,-2.7268,-2.7281,-2.7094,-2.6827,-2.6827,-2.664,-2.6386,-2.64,-2.64,-2.6453,-2.6734,-2.6841,-2.6894,-2.7175,-2.7268,-2.7268,-2.7268,-2.7268,-2.7268,-2.7281,-2.7281,-2.7348,-2.7642,-2.7709,-2.7629,-2.7348,-2.7281,-2.7188,-2.6867,-2.6814,-2.6734,-2.6453,-2.64,-2.6507,-2.6787,-2.6841,-2.6947,-2.7241,-2.7281,-2.7388,-2.7682,-2.7709,-2.7829,-2.8207,-2.8221,-2.8221,-2.8221,-2.8221,-2.8221,-2.8221,-2.8221,-2.8221,-2.8221,-2.8221,-2.8221,-2.8221,-2.8221,-2.8221,-2.8221,-2.8221,-2.8221,-2.5418,0.0,0.0,0.0,0.0,0.0,0.0,-2.6733,-2.7994,-2.7311,-2.894,-3.0556,-3.0566,-3.0072,-3.028,-3.2211,-3.3657,-3.5323,-3.7837,0.0,0.0,0.0,0.0,0.0,0.0,0.0,0.0,0.0,-4.1172,-4.1172,-4.1172,-4.0762,-4.0332,-3.9902,-3.9902,-3.9668,-3.9199,-3.9199,-3.8984,-3.8574,-3.5011,-3.3037,-3.2353,-2.9164,-2.7485,-2.7161,-2.7455,-2.7696,-2.7966,-2.7669,-2.7455,-2.7281,-2.7495,-2.7268,-2.6827,-2.6827,-2.664,-2.6413,-2.6627,-2.6707,-2.6747,-2.7054,-2.7148,-2.7161,-2.7241,-2.7268,-2.7268,-2.7268,-2.7268,-2.7308,-2.7522,-2.7575,-2.7655,-2.7949,-2.8016,-2.8003,-2.8006,-2.7736,-2.7375,-2.664,-2.668,-2.68,-2.672,-2.6707,-2.68,-2.7094,-2.7148,-2.7255,-2.7535,-2.7575,-2.7696,-2.8073,-2.8016,-2.814,-2.8221,-2.8221,-2.8221,-2.8221,-2.8221,-2.8221,-2.8221,-2.8221,-2.8221,-2.8221,-2.8221,-2.8221,-2.8221,-2.8221,-2.8221,-2.8221,-2.8221,-2.8221,-2.6468,-2.5974,-2.5714,-2.6405,0.0,0.0,-2.6671,-2.7554,-2.8432,0.0,-2.9851,-3.1344,-3.1198,-3.1227,-3.1275,-3.1029,-3.1698,-3.3408,-3.6719,0.0,0.0,0.0,0.0,0.0,0.0,-4.2168,-4.1894,-4.1465,-4.1269,-4.1094,-4.0918,-4.084,-4.0605,-4.0176,-4.0332,-4.0137,-3.9492,-3.9492,-3.879,-3.7272,-3.4018,-3.213,-3.1352,-2.8363,-2.7175,-2.7468,-2.7762,-2.7909,-2.7949,-2.7909,-2.7789,-2.7655,-2.7816,-2.7602,-2.7188,-2.7188,-2.7001,-2.6774,-2.6947,-2.7001,-2.7054,-2.7348,-2.7442,-2.7468,-2.7589,-2.7712,-2.7712,-2.7712,-2.7712,-2.7669,-2.7843,-2.7883,-2.7923,-2.8181,-2.8221,-2.8194,-2.7989,-2.7816,-2.7549,-2.7028,-2.6974,-2.7001,-2.7001,-2.7001,-2.7108,-2.7402,-2.7442,-2.7549,-2.7843,-2.7883,-2.7949,-2.8207,-2.8221,-2.8221,-2.8221,-2.8221,-2.8221,-2.8221,-2.8221,-2.8221,-2.8221,-2.8221,-2.8221,-2.8221,-2.8221,-2.8221,-2.8221,-2.8221,-2.8221,-2.8221,-2.8221,-2.8221,-2.7991,-2.7147,-2.6414,-2.7214,-2.7483,0.0,-2.8478,-2.8843,-2.9194,0.0,-3.1427,-3.2542,-3.1081,-3.2574,-3.2873,-2.9245,-2.9345,-3.1366,-3.5529,0.0,0.0,0.0,0.0,0.0,-4.3105,-4.2734,-4.2305,-4.1836,-4.1406,-4.0976,-4.0547,-4.0937,-4.0976,-4.0527,-4.0957,-4.0781,-3.998,-3.9734,-3.8292,-3.5566,-3.3289,-3.1399,-2.9923,-2.8122,-2.7455,-2.7709,-2.8016,-2.7989,-2.7762,-2.8114,-2.8207,-2.8181,-2.8221,-2.7963,-2.7696,-2.7696,-2.7509,-2.7268,-2.7308,-2.7308,-2.7362,-2.7655,-2.7749,-2.7802,-2.814,-2.8221,-2.8221,-2.8221,-2.8221,-2.8221,-2.8221,-2.8221,-2.8221,-2.8221,-2.8221,-2.8154,-2.7802,-2.7749,-2.7749,-2.7749,-2.7482,-2.7281,-2.7308,-2.7308,-2.7415,-2.7709,-2.7749,-2.7843,-2.8194,-2.8221,-2.8221,-2.8221,-2.8221,-2.8221,-2.8221,-2.8221,-2.8221,-2.8221,-2.8221,-2.8221,-2.8221,-2.8221,-2.8221,-2.8221,-2.8221,-2.8221,-2.8221,-2.8221,-2.8221,-2.8221,-2.8221,-2.8221,-2.9795,-2.9814,-2.9981,-3.049,0.0,0.0,-2.9976,-3.0956,-3.1478,0.0,-3.0596,-3.1496,-3.0738,-2.9681,-2.8722,-2.8009,-2.7478,-2.8194,-3.1286,0.0,0.0,0.0,0.0,0.0,-4.2942,-4.3008,-4.2637,-4.1855,-4.1406,-4.0976,-4.0547,-4.0937,-4.0976,-4.0527,-4.0957,-4.0918,-4.041,-3.8644,-3.7363,-3.6336,-3.2581,-3.0574,-3.0186,-2.844,-2.7642,-2.7709,-2.8016,-2.8194,-2.814,-2.8207,-2.8003,-2.7802,-2.8043,-2.7963,-2.7696,-2.7696,-2.7509,-2.7295,-2.7535,-2.7615,-2.7669,-2.7963,-2.814,-2.8154,-2.8207,-2.8221,-2.8221,-2.8221,-2.8221,-2.8221,-2.8221,-2.8221,-2.8221,-2.8221,-2.8221,-2.8207,-2.8154,-2.814,-2.814,-2.814,-2.7712,-2.7348,-2.7575,-2.7615,-2.7709,-2.8003,-2.814,-2.8167,-2.8221,-2.8221,-2.8221,-2.8221,-2.8221,-2.8221,-2.8221,-2.8221,-2.8221,-2.8221,-2.8221,-2.8221,-2.8221,-2.8221,-2.8221,-2.8221,-2.8221,-2.8221,-2.8221,-2.8221,-2.8221,-2.8221,-2.8221,-2.8221,-3.0664,-3.0703,-3.0996,-3.1406,0.0,0.0,0.0,-3.2306,-3.2815,-3.184,-3.2419,-3.267,-3.1475,-3.0932,-2.9968,-2.7955,-2.8462,-2.8865,-2.8339,0.0,0.0,0.0,0.0,0.0,-4.2903,-4.2695,-4.2168,-4.1543,-4.0292,-3.9437,-3.9231,-3.8438,-3.8298,-3.9153,-3.9418,-3.9812,-4.0527,-3.8368,-3.6557,-3.5081,-3.1841,-2.9881,-2.8998,-2.8111,-2.7776,-2.7923,-2.8167,-2.8221,-2.8221,-2.8221,-2.814,-2.7936,-2.8167,-2.814,-2.7923,-2.7923,-2.7829,-2.7805,-2.7869,-2.7923,-2.7949,-2.8181,-2.8221,-2.8221,-2.8221,-2.8221,-2.8221,-2.8221,-2.8221,-2.8221,-2.8221,-2.8221,-2.8221,-2.8221,-2.8221,-2.8221,-2.8221,-2.8221,-2.8221,-2.8221,-2.7993,-2.7749,-2.7896,-2.7923,-2.7976,-2.8207,-2.8221,-2.8221,-2.8221,-2.8221,-2.8221,-2.8221,-2.8221,-2.8221,-2.8221,-2.8221,-2.8221,-2.8221,-2.8221,-2.8221,-2.8221,-2.8221,-2.8221,-2.8221,-2.8221,-2.8221,-2.8221,-2.8221,-2.8221,-2.8221,-2.8221,-2.8221,0.0,0.0,0.0,0.0,0.0,-3.2402,0.0,0.0,0.0,-3.3515,-3.3739,0.0,0.0,0.0,0.0,0.0,0.0,0.0,0.0,0.0,0.0,0.0,0.0,0.0,0.0,-4.1215,-4.1092,-4.1426,-3.9063,-3.7733,-3.7896,-3.5863,-3.546,-3.7241,-3.7241,-3.7989,-3.9353,-3.727,-3.5185,-3.3143,-3.0937,-2.9151,-2.7789,-2.7789,-2.7909,-2.8221,-2.8221,-2.8221,-2.8221,-2.8221,-2.8221,-2.8221,-2.8221,-2.8221,-2.8221,-2.8221,-2.8221,-2.8221,-2.8221,-2.8221,-2.8221,-2.8221,-2.8221,-2.8221,-2.8221,-2.8221,-2.8221,-2.8221,-2.8221,-2.8221,-2.8221,-2.8221,-2.8221,-2.8221,-2.8221,-2.8221,-2.8221,-2.8221,-2.8221,-2.8221,-2.8221,-2.8221,-2.8221,-2.8221,-2.8221,-2.8221,-2.8221,-2.8221,-2.8221,-2.8221,-2.8221,-2.8221,-2.8221,-2.8221,-2.8221,-2.8221,-2.8221,-2.8221,-2.8221,-2.8221,-2.8221,-2.8221,-2.8221,-2.8221,-2.8221,-2.8221,-2.8221,-2.8221,-2.8221,-2.8221,-2.8221,-2.8221,0.0,0.0,0.0,0.0,-3.2676,0.0,0.0,0.0,-3.3027,-3.1771,0.0,0.0,0.0,0.0,0.0,0.0,0.0,0.0,0.0,0.0,0.0,0.0,0.0,0.0,0.0,-3.7259,-3.9082,-4.2047,-3.8859,-3.7078,-3.786,-3.5863,-3.4813,-3.5056,-3.5056,-3.512,-3.5329,-3.3204,-3.1894,-3.1617,-2.9508,-2.8308,-2.8181,-2.8181,-2.8194,-2.8221,-2.8221,-2.8221,-2.8221,-2.8221,-2.8221,-2.8221,-2.8221,-2.8221,-2.8221,-2.8221,-2.8221,-2.8221,-2.8221,-2.8221,-2.8221,-2.8221,-2.8221,-2.8221,-2.8221,-2.8221,-2.8221,-2.8221,-2.8221,-2.8221,-2.8221,-2.8221,-2.8221,-2.8221,-2.8221,-2.8221,-2.8221,-2.8221,-2.8221,-2.8221,-2.8221,-2.8221,-2.8221,-2.8221,-2.8221,-2.8221,-2.8221,-2.8221,-2.8221,-2.8221,-2.8221,-2.8221,-2.8221,-2.8221,-2.8221,-2.8221,-2.8221,-2.8221,-2.8221,-2.8221,-2.8221,-2.8221,-2.8221,-2.8221,-2.8221,-2.8221,-2.8221,-2.8221,-2.8221,-2.8221,-2.8221,-2.8221,0.0,0.0,0.0,0.0,0.0,0.0,-3.3379,0.0,-3.3204,0.0,0.0,0.0,0.0,0.0,0.0,0.0,0.0,0.0,0.0,0.0,0.0,0.0,0.0,0.0,0.0,0.0,0.0,0.0,-3.7102,-3.4991,-3.56,-3.2683,-3.149,-3.2792,-3.2776,-3.3431,-3.4651,-3.2546,-3.1392,-3.1392,-2.9202,-2.8221,-2.8221,-2.8221,-2.8221,-2.8221,-2.8221,-2.8221,-2.8221,-2.8221,-2.8221,-2.8221,-2.8221,-2.8221,-2.8221,-2.8221,-2.8221,-2.8221,-2.8221,-2.8221,-2.8221,-2.8221,-2.8221,-2.8221,-2.8221,-2.8221,-2.8221,-2.8221,-2.8221,-2.8221,-2.8221,-2.8221,-2.8221,-2.8221,-2.8221,-2.8221,-2.8221,-2.8221,-2.8221,-2.8221,-2.8221,-2.8221,-2.8221,-2.8221,-2.8221,-2.8221,-2.8221,-2.8221,-2.8221,-2.8221,-2.8221,-2.8221,-2.8221,-2.8221,-2.8221,-2.8221,-2.8221,-2.8221,-2.8221,-2.8221,-2.8221,-2.8221,-2.8221,-2.8221,-2.8221,-2.8221,-2.8221,-2.8221,-2.8221,-2.8221,-2.8221,-2.8221,-3.2598,0.0,0.0,0.0,0.0,0.0,0.0,0.0,0.0,0.0,0.0,0.0,0.0,0.0,0.0,0.0,0.0,0.0,0.0,0.0,0.0,0.0,0.0,0.0,0.0,0.0,0.0,0.0,0.0,-3.3536,-3.3066,-3.0451,-2.9411,-3.0379,-3.0466,-3.1324,-3.2874,-3.1324,-3.0509,-3.0509,-2.8964,-2.8221,-2.8221,-2.8221,-2.8221,-2.8221,-2.8221,-2.8221,-2.8221,-2.8221,-2.8221,-2.8221,-2.8221,-2.8221,-2.8221,-2.8221,-2.8221,-2.8221,-2.8221,-2.8221,-2.8221,-2.8221,-2.8221,-2.8221,-2.8221,-2.8221,-2.8221,-2.8221,-2.8221,-2.8221,-2.8221,-2.8221,-2.8221,-2.8221,-2.8221,-2.8221,-2.8221,-2.8221,-2.8221,-2.8221,-2.8221,-2.8221,-2.8221,-2.8221,-2.8221,-2.8221,-2.8221,-2.8221,-2.8221,-2.8221,-2.8221,-2.8221,-2.8221,-2.8221,-2.8221,-2.8221,-2.8221,-2.8221,-2.8221,-2.8221,-2.8221,-2.8221,-2.8221,-2.8221,-2.8221,-2.8221,-2.8221,-2.8221,-2.8221,-2.8221,-2.8221,-2.8221,0.0,0.0,0.0,-3.3398,0.0,0.0,0.0,0.0,-3.4043,0.0,0.0,0.0,0.0,0.0,0.0,0.0,0.0,0.0,0.0,0.0,0.0,0.0,0.0,0.0,0.0,0.0,0.0,0.0,0.0,0.0,-3.0775,-3.0668,-2.9813,-2.7875,-2.8157,-2.8305,-2.8389,-2.8305,-2.8305,-2.8305,-2.8221,-2.8221,-2.8221,-2.8221,-2.8221,-2.8221,-2.8221,-2.8221,-2.8221,-2.8221,-2.8221,-2.8221,-2.8221,-2.8221,-2.8221,-2.8221,-2.8221,-2.8221,-2.8221,-2.8221,-2.8221,-2.8221,-2.8221,-2.8221,-2.8221,-2.8221,-2.8221,-2.8221,-2.8221,-2.8221,-2.8221,-2.8221,-2.8221,-2.8221,-2.8221,-2.8221,-2.8221,-2.8221,-2.8221,-2.8221,-2.8221,-2.8221,-2.8221,-2.8221,-2.8221,-2.8221,-2.8221,-2.8221,-2.8221,-2.8221,-2.8221,-2.8221,-2.8221,-2.8221,-2.8221,-2.8221,-2.8221,-2.8221,-2.8221,-2.8221,-2.8221,-2.8221,-2.8221,-2.8221,-2.8221,-2.8221,-2.8221,-2.8221,-2.8221,-2.8221,-2.8221,-2.8221,0.0,0.0,-3.4199,-3.3926,0.0,0.0,0.0,0.0,0.0,0.0,0.0,0.0,0.0,0.0,0.0,0.0,0.0,0.0,0.0,0.0,0.0,0.0,0.0,0.0,0.0,0.0,0.0,0.0,-3.2821,0.0,0.0,-3.0831,-2.9895,-2.9468,-2.8414,-2.7856,-2.7856,-2.7856,-2.7856,-2.7856,-2.7856,-2.7856,-2.7856,-2.814,-2.8221,-2.8221,-2.8221,-2.8221,-2.8221,-2.8221,-2.8221,-2.8221,-2.8221,-2.8221,-2.8221,-2.8221,-2.8221,-2.8221,-2.8221,-2.8221,-2.8221,-2.8221,-2.8221,-2.8221,-2.8221,-2.8221,-2.8221,-2.8221,-2.8221,-2.8221,-2.8221,-2.8221,-2.8221,-2.8221,-2.8221,-2.8221,-2.8221,-2.8221,-2.8221,-2.8221,-2.8221,-2.8221,-2.8221,-2.8221,-2.8221,-2.8221,-2.8221,-2.8221,-2.8221,-2.8221,-2.8221,-2.8221,-2.8221,-2.8221,-2.8221,-2.8221,-2.8221,-2.8221,-2.8221,-2.8221,-2.8221,-2.8221,-2.8221,-2.8221,-2.8221,-2.8221,-2.8221,-2.8221,-2.8221,-2.8221,-2.8221,-2.8221,-3.3613,-3.4062,0.0,-3.4316,-3.4492,0.0,-3.4355,0.0,0.0,0.0,0.0,0.0,0.0,0.0,0.0,0.0,0.0,0.0,0.0,-2.9488,0.0,0.0,0.0,0.0,0.0,0.0,-3.2073,-3.0643,-3.148,0.0,0.0,0.0,-2.9395,-2.8899,-2.8057,-2.7549,-2.7549,-2.7549,-2.7549,-2.7549,-2.7642,-2.7642,-2.7562,-2.7963,-2.8167,-2.7989,-2.8181,-2.8221,-2.8221,-2.8221,-2.8221,-2.8221,-2.8221,-2.8221,-2.8221,-2.8221,-2.8221,-2.8221,-2.8221,-2.8221,-2.8221,-2.8221,-2.8221,-2.8221,-2.8221,-2.8221,-2.8221,-2.8221,-2.8221,-2.8221,-2.8221,-2.8221,-2.8221,-2.8221,-2.8221,-2.8221,-2.8221,-2.823,-2.827,-2.8248,-2.8315,-2.827,-2.8248,-2.8221,-2.8221,-2.8221,-2.8221,-2.8221,-2.8221,-2.8221,-2.8221,-2.8221,-2.8221,-2.8221,-2.8221,-2.8221,-2.8221,-2.8221,-2.8221,-2.8221,-2.8221,-2.8221,-2.8221,-2.8221,-2.8221,-2.8221,-2.8221,-2.8221,-2.8221,-2.8234,-2.8341,-2.831]},{"header":{"parameterUnit":"m.s-1","parameterCategory":1,"la1":30.6,"la2":29.2853,"lo1":-89.7004,"lo2":-87.6739,"dy":0.0162,"dx":0.0183,"nx":112,"ny":82,"refTime":"2024-06-13T06:00:00:Z","depth":0,"parameterNumber":3,"parameterNumberName":"V-component_of_WINDS"},"data":[0.0,0.0,0.0,0.0,0.0,0.0,0.0,0.0,0.0,0.0,0.0,0.0,0.0,0.0,0.0,0.0,0.0,0.0,0.0,0.0,0.0,0.0,0.0,0.0,0.0,0.0,0.0,0.0,0.0,0.0,0.0,0.0,0.0,0.0,0.0,0.0,0.0,0.0,0.0,0.0,0.0,0.0,0.0,0.0,0.0,0.0,0.0,0.0,0.0,0.0,0.0,0.0,0.0,0.0,0.0,0.0,0.0,0.0,0.0,0.0,0.0,0.0,0.0,0.0,0.0,0.0,0.0,0.0,0.0,0.0,0.0,0.0,0.0,0.0,0.0,0.0,0.0,0.0,0.0,0.0,0.0,0.0,0.0,0.0,0.0,0.0,0.0,0.0,0.0,0.0,3.8366,3.9321,4.1106,4.1932,4.1326,4.0752,3.927,3.6707,0.0,0.0,0.0,0.0,0.0,0.0,0.0,0.0,0.0,0.0,0.0,0.0,0.0,0.0,0.0,0.0,0.0,0.0,0.0,0.0,0.0,0.0,0.0,0.0,0.0,0.0,0.0,0.0,0.0,0.0,0.0,0.0,0.0,0.0,0.0,0.0,0.0,0.0,0.0,0.0,0.0,0.0,0.0,0.0,0.0,0.0,0.0,0.0,0.0,0.0,0.0,0.0,0.0,0.0,0.0,0.0,0.0,0.0,0.0,0.0,0.0,0.0,0.0,0.0,0.0,0.0,0.0,0.0,0.0,0.0,0.0,0.0,0.0,0.0,0.0,0.0,0.0,0.0,0.0,0.0,0.0,0.0,0.0,0.0,0.0,0.0,0.0,0.0,0.0,0.0,0.0,0.0,0.0,0.0,0.0,0.0,0.0,0.0,0.0,0.0,0.0,0.0,0.0,0.0,3.8944,4.1458,4.2011,4.1932,4.1326,4.04,3.9044,3.7186,0.0,0.0,0.0,0.0,0.0,0.0,0.0,0.0,0.0,0.0,0.0,0.0,0.0,0.0,0.0,0.0,0.0,0.0,0.0,0.0,0.0,0.0,0.0,0.0,0.0,0.0,0.0,0.0,0.0,0.0,0.0,0.0,0.0,0.0,0.0,0.0,0.0,0.0,0.0,0.0,0.0,0.0,0.0,0.0,0.0,0.0,0.0,0.0,0.0,0.0,0.0,0.0,0.0,0.0,0.0,0.0,0.0,0.0,0.0,0.0,0.0,0.0,0.0,0.0,0.0,0.0,0.0,0.0,0.0,0.0,0.0,0.0,0.0,0.0,0.0,0.0,0.0,0.0,0.0,0.0,0.0,0.0,0.0,0.0,0.0,0.0,0.0,0.0,0.0,0.0,0.0,0.0,0.0,0.0,0.0,0.0,0.0,0.0,0.0,0.0,0.0,0.0,0.0,3.8191,3.9421,4.1936,4.1882,4.148,4.0874,4.0149,3.8969,3.7287,3.6684,0.0,0.0,0.0,0.0,0.0,0.0,0.0,0.0,0.0,0.0,0.0,0.0,0.0,0.0,0.0,0.0,0.0,0.0,0.0,0.0,0.0,0.0,0.0,0.0,0.0,0.0,0.0,0.0,0.0,0.0,0.0,0.0,0.0,0.0,0.0,0.0,0.0,0.0,0.0,0.0,0.0,0.0,0.0,0.0,0.0,0.0,0.0,0.0,0.0,0.0,0.0,0.0,0.0,0.0,0.0,0.0,0.0,0.0,0.0,0.0,0.0,0.0,0.0,0.0,0.0,0.0,0.0,0.0,0.0,0.0,0.0,0.0,0.0,0.0,0.0,0.0,0.0,0.0,0.0,0.0,0.0,0.0,0.0,0.0,0.0,0.0,0.0,0.0,0.0,0.0,0.0,0.0,0.0,0.0,0.0,0.0,0.0,0.0,0.0,0.0,0.0,0.0,3.927,3.9948,4.1781,4.148,4.0924,4.0551,3.9772,3.8693,3.7287,3.6433,0.0,0.0,0.0,0.0,0.0,0.0,0.0,0.0,0.0,0.0,0.0,0.0,0.0,0.0,0.0,0.0,0.0,0.0,0.0,0.0,0.0,0.0,0.0,0.0,0.0,0.0,0.0,0.0,0.0,0.0,0.0,0.0,0.0,0.0,0.0,0.0,0.0,0.0,0.0,0.0,0.0,0.0,0.0,0.0,0.0,0.0,0.0,0.0,0.0,0.0,0.0,0.0,0.0,0.0,0.0,0.0,0.0,0.0,0.0,0.0,0.0,0.0,0.0,0.0,0.0,0.0,0.0,0.0,0.0,0.0,0.0,0.0,0.0,0.0,0.0,0.0,0.0,0.0,0.0,0.0,0.0,0.0,0.0,0.0,0.0,0.0,0.0,0.0,0.0,0.0,0.0,0.0,0.0,0.0,0.0,0.0,0.0,0.0,0.0,0.0,0.0,0.0,3.9446,4.0651,4.1275,4.0902,4.0551,4.0526,3.9044,3.7864,3.7236,3.5705,0.0,0.0,0.0,0.0,0.0,0.0,0.0,0.0,0.0,0.0,0.0,0.0,0.0,0.0,0.0,0.0,0.0,0.0,0.0,0.0,0.0,0.0,0.0,0.0,0.0,0.0,0.0,0.0,0.0,0.0,0.0,0.0,0.0,0.0,0.0,0.0,0.0,0.0,0.0,0.0,0.0,0.0,0.0,0.0,0.0,0.0,0.0,0.0,0.0,0.0,0.0,0.0,0.0,0.0,0.0,0.0,0.0,0.0,0.0,0.0,0.0,0.0,0.0,0.0,0.0,0.0,0.0,0.0,0.0,0.0,0.0,0.0,0.0,0.0,0.0,0.0,0.0,0.0,0.0,0.0,0.0,0.0,0.0,0.0,0.0,0.0,0.0,0.0,0.0,0.0,0.0,0.0,0.0,0.0,0.0,0.0,0.0,0.0,0.0,0.0,0.0,0.0,3.8668,3.9848,0.0,4.0651,4.0375,4.0023,3.912,3.8165,3.7236,0.0,0.0,0.0,0.0,0.0,0.0,0.0,0.0,0.0,0.0,0.0,0.0,0.0,0.0,0.0,0.0,0.0,0.0,0.0,0.0,0.0,0.0,0.0,0.0,0.0,0.0,0.0,0.0,0.0,0.0,0.0,0.0,0.0,0.0,0.0,0.0,0.0,0.0,0.0,0.0,0.0,0.0,0.0,0.0,0.0,0.0,0.0,0.0,0.0,0.0,0.0,0.0,0.0,0.0,0.0,0.0,0.0,0.0,0.0,0.0,0.0,0.0,0.0,0.0,0.0,0.0,0.0,0.0,0.0,0.0,0.0,0.0,0.0,0.0,0.0,0.0,0.0,0.0,0.0,0.0,0.0,0.0,0.0,0.0,0.0,0.0,0.0,0.0,0.0,0.0,0.0,0.0,0.0,0.0,0.0,0.0,0.0,0.0,0.0,0.0,0.0,0.0,3.683,3.8434,3.9652,0.0,4.0249,4.0179,4.0007,3.9318,3.8401,3.73,0.0,0.0,0.0,0.0,0.0,0.0,0.0,0.0,0.0,0.0,0.0,0.0,0.0,0.0,0.0,0.0,0.0,0.0,0.0,0.0,0.0,0.0,0.0,0.0,0.0,0.0,0.0,0.0,0.0,0.0,0.0,0.0,0.0,0.0,0.0,0.0,0.0,0.0,0.0,0.0,0.0,0.0,0.0,0.0,0.0,0.0,0.0,0.0,0.0,0.0,0.0,0.0,0.0,0.0,0.0,0.0,0.0,0.0,0.0,0.0,0.0,0.0,0.0,0.0,0.0,0.0,0.0,0.0,0.0,0.0,0.0,0.0,0.0,0.0,0.0,0.0,0.0,0.0,0.0,0.0,0.0,0.0,0.0,0.0,0.0,0.0,0.0,0.0,0.0,0.0,0.0,0.0,0.0,0.0,0.0,0.0,0.0,0.0,0.0,0.0,0.0,0.0,3.6442,3.8881,4.0395,3.9827,3.9749,3.9982,4.0556,3.957,3.8477,0.0,0.0,0.0,0.0,0.0,0.0,0.0,0.0,0.0,0.0,0.0,0.0,0.0,0.0,0.0,0.0,0.0,0.0,0.0,0.0,0.0,0.0,0.0,0.0,0.0,0.0,0.0,0.0,0.0,0.0,0.0,0.0,0.0,0.0,0.0,0.0,0.0,0.0,0.0,0.0,0.0,0.0,0.0,0.0,0.0,0.0,0.0,0.0,0.0,0.0,0.0,0.0,0.0,0.0,0.0,0.0,0.0,0.0,0.0,0.0,0.0,0.0,0.0,0.0,0.0,0.0,0.0,0.0,0.0,0.0,0.0,0.0,0.0,0.0,0.0,0.0,0.0,0.0,0.0,0.0,0.0,0.0,0.0,0.0,0.0,0.0,0.0,0.0,0.0,0.0,0.0,0.0,0.0,0.0,0.0,0.0,0.0,0.0,0.0,0.0,0.0,0.0,0.0,3.7703,4.0201,4.2039,4.2345,4.235,4.2253,4.1944,4.1276,4.0177,3.8542,0.0,0.0,0.0,0.0,0.0,0.0,0.0,0.0,0.0,0.0,0.0,0.0,0.0,0.0,0.0,0.0,0.0,0.0,0.0,0.0,0.0,0.0,0.0,0.0,0.0,0.0,0.0,0.0,0.0,0.0,0.0,0.0,0.0,0.0,0.0,0.0,0.0,0.0,0.0,0.0,0.0,0.0,0.0,0.0,0.0,0.0,0.0,0.0,0.0,0.0,0.0,0.0,0.0,0.0,0.0,0.0,0.0,0.0,0.0,0.0,0.0,0.0,0.0,0.0,0.0,0.0,0.0,0.0,0.0,0.0,0.0,0.0,0.0,0.0,0.0,0.0,0.0,0.0,0.0,0.0,0.0,0.0,0.0,0.0,0.0,0.0,0.0,0.0,0.0,0.0,0.0,0.0,0.0,0.0,0.0,0.0,0.0,0.0,0.0,0.0,0.0,0.0,3.8878,4.1239,4.3026,4.344,4.3504,4.3443,4.3248,4.2722,4.1615,3.9802,0.0,0.0,0.0,0.0,0.0,0.0,0.0,0.0,0.0,0.0,0.0,0.0,0.0,0.0,0.0,0.0,0.0,0.0,0.0,0.0,0.0,0.0,0.0,0.0,0.0,0.0,0.0,0.0,0.0,0.0,0.0,0.0,0.0,0.0,0.0,0.0,0.0,0.0,0.0,0.0,0.0,0.0,0.0,0.0,0.0,0.0,0.0,0.0,0.0,0.0,0.0,0.0,0.0,0.0,0.0,0.0,0.0,0.0,0.0,0.0,0.0,0.0,0.0,0.0,0.0,0.0,0.0,0.0,0.0,0.0,0.0,0.0,0.0,0.0,0.0,0.0,0.0,0.0,0.0,0.0,0.0,0.0,0.0,0.0,0.0,0.0,0.0,0.0,0.0,0.0,0.0,0.0,0.0,0.0,0.0,0.0,0.0,0.0,0.0,0.0,0.0,0.0,3.9953,4.2122,4.364,4.3836,4.3834,4.405,4.4525,4.395,4.2852,4.1065,0.0,0.0,0.0,0.0,0.0,0.0,0.0,0.0,0.0,0.0,0.0,0.0,0.0,0.0,0.0,0.0,0.0,0.0,0.0,0.0,0.0,0.0,0.0,0.0,0.0,0.0,0.0,0.0,0.0,0.0,0.0,0.0,0.0,0.0,0.0,0.0,0.0,0.0,0.0,0.0,0.0,0.0,0.0,0.0,0.0,0.0,0.0,0.0,0.0,0.0,0.0,0.0,0.0,0.0,0.0,0.0,0.0,0.0,0.0,0.0,4.3189,0.0,0.0,0.0,0.0,0.0,0.0,0.0,0.0,0.0,0.0,0.0,0.0,0.0,0.0,0.0,0.0,0.0,0.0,0.0,0.0,0.0,0.0,0.0,0.0,0.0,0.0,0.0,0.0,0.0,0.0,0.0,0.0,0.0,0.0,0.0,0.0,0.0,0.0,0.0,0.0,0.0,4.1232,4.3416,4.5289,4.6403,4.6506,4.6329,4.5925,4.5285,4.408,4.2188,4.0783,0.0,0.0,0.0,0.0,0.0,0.0,0.0,0.0,0.0,0.0,0.0,0.0,0.0,0.0,0.0,0.0,0.0,0.0,0.0,0.0,0.0,0.0,0.0,0.0,0.0,0.0,0.0,0.0,0.0,0.0,0.0,0.0,0.0,0.0,0.0,0.0,0.0,0.0,0.0,0.0,0.0,0.0,0.0,0.0,0.0,0.0,0.0,0.0,0.0,0.0,0.0,0.0,0.0,0.0,0.0,0.0,0.0,0.0,0.0,0.0,4.4077,0.0,0.0,0.0,0.0,0.0,0.0,0.0,0.0,0.0,0.0,0.0,0.0,0.0,0.0,0.0,0.0,0.0,0.0,0.0,0.0,0.0,0.0,0.0,0.0,0.0,0.0,0.0,0.0,0.0,0.0,0.0,0.0,0.0,0.0,0.0,0.0,0.0,0.0,0.0,0.0,4.2313,4.4139,4.5813,4.716,4.7309,4.716,4.683,4.5873,4.4736,4.3389,4.1474,0.0,0.0,0.0,0.0,0.0,0.0,0.0,0.0,0.0,0.0,0.0,0.0,0.0,0.0,0.0,0.0,0.0,0.0,0.0,0.0,0.0,0.0,0.0,0.0,0.0,0.0,0.0,0.0,0.0,0.0,0.0,0.0,0.0,0.0,0.0,0.0,0.0,0.0,0.0,0.0,0.0,0.0,0.0,0.0,0.0,0.0,0.0,0.0,0.0,0.0,0.0,0.0,0.0,5.0545,5.1151,5.207,5.1063,5.1151,5.1934,4.9316,4.7643,4.693,4.6535,0.0,0.0,0.0,0.0,0.0,0.0,0.0,0.0,0.0,0.0,0.0,0.0,0.0,0.0,0.0,0.0,0.0,0.0,0.0,0.0,0.0,0.0,0.0,0.0,4.7573,4.7166,0.0,0.0,0.0,0.0,0.0,0.0,0.0,0.0,0.0,0.0,0.0,0.0,4.32,4.4556,4.5813,4.716,4.7219,4.713,4.713,4.5903,4.4855,4.4197,4.2013,4.0457,0.0,0.0,0.0,0.0,0.0,0.0,0.0,0.0,0.0,0.0,0.0,0.0,0.0,0.0,0.0,0.0,0.0,0.0,0.0,0.0,0.0,0.0,0.0,0.0,0.0,0.0,0.0,0.0,0.0,0.0,0.0,0.0,4.7107,4.8541,0.0,0.0,0.0,0.0,0.0,0.0,0.0,0.0,0.0,0.0,0.0,0.0,0.0,5.3337,5.3943,5.4592,5.4943,5.4974,5.5536,5.5909,5.6039,5.5866,5.5909,5.6007,5.5623,0.0,4.9512,5.0405,0.0,0.0,0.0,0.0,0.0,0.0,0.0,0.0,0.0,0.0,0.0,0.0,0.0,0.0,0.0,0.0,0.0,0.0,0.0,0.0,0.0,0.0,5.039,4.9363,5.0107,5.0544,0.0,4.6347,4.3796,4.1543,4.1205,0.0,0.0,0.0,0.0,0.0,0.0,0.0,4.3928,4.4825,4.5813,4.716,4.68,4.6399,4.6399,4.5214,4.4167,4.3469,4.2611,4.1841,4.1145,3.9858,0.0,0.0,0.0,0.0,0.0,0.0,0.0,0.0,0.0,0.0,0.0,0.0,0.0,0.0,0.0,0.0,0.0,0.0,0.0,0.0,0.0,0.0,0.0,0.0,0.0,0.0,0.0,0.0,0.0,4.7126,4.9126,4.9686,4.9756,4.9347,0.0,0.0,0.0,0.0,0.0,0.0,0.0,0.0,0.0,5.4861,5.5278,5.5824,5.6488,5.714,5.7524,5.7524,5.7769,5.828,5.8926,5.8236,5.8323,5.8926,5.8926,5.7534,5.5146,5.3488,5.1765,5.0097,0.0,0.0,0.0,0.0,4.8092,4.8306,4.9726,5.0213,0.0,4.9693,0.0,0.0,0.0,0.0,0.0,0.0,0.0,0.0,0.0,0.0,0.0,5.2891,5.3467,5.3548,5.237,5.0719,4.8514,0.0,4.4136,4.3265,4.212,0.0,0.0,0.0,0.0,4.291,4.4167,4.5214,4.6232,4.7189,4.704,4.686,4.686,4.5633,4.4736,4.4436,4.312,4.2261,4.1991,4.1025,4.0187,0.0,0.0,0.0,0.0,0.0,0.0,0.0,0.0,0.0,0.0,0.0,0.0,0.0,0.0,0.0,0.0,0.0,0.0,0.0,0.0,0.0,0.0,0.0,0.0,0.0,0.0,0.0,0.0,5.0151,5.1574,5.1622,5.2318,5.2104,0.0,0.0,0.0,0.0,0.0,0.0,5.6251,5.652,5.7024,5.8023,5.8535,5.9013,5.9534,6.0,6.0293,6.0293,6.0098,6.0466,6.1335,6.0226,6.0204,6.1036,6.1036,6.0738,5.9967,5.6676,5.4767,5.3823,5.256,5.1888,5.1662,5.1771,5.1782,5.1999,5.3357,5.385,5.3684,5.2855,0.0,5.1204,4.8665,0.0,0.0,0.0,0.0,5.0192,5.2404,5.3515,5.4428,5.5711,5.6156,5.5977,5.4985,5.4155,5.2528,0.0,4.7184,4.6015,4.494,0.0,0.0,0.0,0.0,4.3858,4.4665,4.5651,4.6591,4.7249,4.716,4.698,4.68,4.5723,4.4975,4.4796,4.3419,4.265,4.265,4.2021,4.1198,4.0281,0.0,0.0,0.0,0.0,0.0,0.0,0.0,0.0,0.0,0.0,0.0,0.0,0.0,0.0,0.0,0.0,0.0,0.0,0.0,0.0,0.0,0.0,0.0,0.0,0.0,0.0,0.0,0.0,0.0,5.6347,5.6877,0.0,0.0,0.0,0.0,5.5505,5.6263,5.7806,6.0256,6.1066,6.229,6.4113,6.418,6.4214,6.4248,6.4281,6.4315,6.4281,6.3606,6.3269,6.3349,6.2566,6.2263,6.2302,6.2302,6.2268,6.2133,6.0473,5.8791,5.7173,5.6414,5.5502,5.4607,5.4939,5.5056,5.5104,5.5461,5.5579,5.568,5.6288,5.5015,5.3036,5.217,5.0765,0.0,0.0,5.2428,5.337,5.5063,5.6052,5.6662,5.6731,5.7273,5.7577,5.6829,5.5866,5.4202,0.0,4.9731,4.876,4.7465,0.0,4.5718,4.5687,4.4847,4.4736,4.601,4.6249,4.6591,4.7249,4.6741,4.6112,4.5454,4.4766,4.4107,4.3439,4.329,4.323,4.323,4.2671,4.241,4.253,4.1303,0.0,0.0,0.0,0.0,0.0,0.0,0.0,0.0,0.0,0.0,0.0,0.0,0.0,0.0,0.0,0.0,0.0,0.0,0.0,0.0,0.0,0.0,0.0,0.0,0.0,0.0,0.0,0.0,5.7814,5.8469,0.0,5.6797,5.7403,5.8198,5.8918,6.0332,6.1732,6.3139,6.3441,6.3908,6.458,6.4613,6.4613,6.4613,6.4613,6.4613,6.4613,6.4343,6.3971,6.3497,6.3226,6.2854,6.2381,6.2381,6.2381,6.2347,6.1806,6.0936,5.9851,5.9079,5.8552,5.8253,5.8327,5.8375,5.8379,5.8515,5.8524,5.8423,5.7712,5.6316,5.4787,5.4518,5.4004,5.3659,5.428,5.4955,5.5665,5.6254,5.6968,5.7509,5.7509,5.7712,5.7814,5.7543,5.685,5.5917,5.4752,5.2878,5.1218,5.05,4.9507,4.8542,4.7654,4.7536,4.7738,4.824,4.867,4.8764,4.8304,4.8037,4.735,4.6065,4.589,4.5272,4.4028,4.4695,4.4899,4.4282,4.4645,4.4688,4.4313,4.3363,4.2092,0.0,0.0,0.0,0.0,0.0,0.0,0.0,0.0,0.0,0.0,0.0,0.0,0.0,0.0,0.0,0.0,0.0,0.0,0.0,0.0,0.0,0.0,0.0,0.0,0.0,5.7192,5.8652,5.9378,6.031,6.0423,5.9156,6.0399,6.1475,6.1983,6.3403,6.458,6.5324,6.5595,6.5831,6.6102,6.5865,6.5696,6.5696,6.5459,6.5358,6.5358,6.5087,6.4715,6.4241,6.4005,6.3463,6.2753,6.2753,6.2618,6.2381,6.2381,6.211,6.1603,6.1061,6.0892,6.0858,6.0588,6.052,6.0452,6.0182,6.0114,5.9945,5.8964,5.7983,5.7137,5.69,5.6833,5.6765,5.6528,5.6799,5.7171,5.7171,5.7509,5.7881,5.7881,5.7881,5.7881,5.7881,5.7509,5.7171,5.7171,5.5277,5.3541,5.328,5.2425,5.1297,5.0135,5.0027,5.0025,4.9801,5.0147,5.0126,4.9416,4.9336,4.8711,4.7119,4.6837,4.6237,4.5025,4.5446,4.5597,4.53,4.5561,4.5582,4.5271,4.4594,4.3428,4.1659,0.0,0.0,0.0,0.0,0.0,0.0,0.0,0.0,0.0,0.0,0.0,0.0,0.0,0.0,0.0,0.0,0.0,0.0,0.0,0.0,0.0,0.0,0.0,5.7848,5.9235,6.0452,6.1264,6.2651,6.3531,6.3531,6.4241,6.4681,6.4681,6.5358,6.6102,6.6846,6.7557,6.8301,6.9079,6.8335,6.7895,6.7895,6.7184,6.6812,6.6812,6.6068,6.5696,6.5662,6.4952,6.4241,6.3531,6.3531,6.3091,6.2415,6.2415,6.2381,6.2381,6.2381,6.2381,6.2313,6.1603,6.1332,6.1231,6.0452,6.0148,6.0148,6.0148,6.0114,5.9979,5.9268,5.9032,5.8896,5.8118,5.7915,5.7915,5.7881,5.7881,5.7881,5.7881,5.7881,5.7881,5.7881,5.7881,5.7881,5.7881,5.6765,5.5784,5.575,5.4865,5.394,5.3181,5.2265,0.0,5.064,5.0506,5.0474,5.0435,5.0435,4.9891,4.8445,4.7491,4.678,4.6266,4.541,4.5337,4.6208,4.541,4.5108,4.5465,4.4959,4.4279,4.3443,0.0,0.0,0.0,0.0,0.0,0.0,0.0,0.0,0.0,0.0,0.0,0.0,0.0,0.0,0.0,0.0,0.0,0.0,0.0,0.0,0.0,5.7881,5.9268,5.9471,6.0791,6.2042,6.2821,6.3734,6.4309,6.4309,6.5459,6.6203,6.6203,6.7421,6.8267,6.847,6.8673,6.8876,6.9079,6.8335,6.7895,6.7895,6.7184,6.6812,6.6812,6.6609,6.6203,6.5662,6.5493,6.4986,6.4275,6.3734,6.3396,6.3159,6.2618,6.2381,6.2381,6.2381,6.2381,6.2381,6.2178,6.211,6.2076,6.1839,6.14,6.096,6.096,6.0588,6.0047,5.9877,5.981,5.9641,5.893,5.8693,5.8592,5.8017,5.7881,5.7881,5.7881,5.7881,5.7881,5.7881,5.7881,5.7881,5.7881,5.7577,5.7137,5.6596,5.6246,5.5797,5.5058,5.4274,0.0,5.3497,5.2961,5.2345,5.1594,5.1488,5.0871,4.9229,4.8978,4.8372,4.7077,4.7533,4.7671,4.7239,4.7638,4.7664,4.72,4.6457,4.5445,0.0,0.0,0.0,0.0,0.0,0.0,0.0,0.0,0.0,0.0,0.0,0.0,0.0,0.0,0.0,0.0,0.0,0.0,0.0,0.0,0.0,0.0,5.981,6.1163,6.1501,6.2313,6.3125,6.3869,6.4613,6.529,6.5933,6.6779,6.7421,6.776,6.8605,6.9214,6.9553,6.9553,6.9688,7.0026,6.9282,6.8842,6.8842,6.8132,6.759,6.7252,6.7252,6.688,6.617,6.617,6.5764,0.0,6.4613,6.4241,6.3903,6.3159,6.2854,0.0,0.0,0.0,0.0,0.0,6.2381,6.2381,6.2381,6.211,6.1772,6.1772,6.1434,6.0994,6.0689,6.0588,6.0452,5.9674,5.9471,5.937,5.893,5.8592,5.8457,5.8727,5.8355,5.7983,5.8287,5.8118,5.7881,5.7881,5.7881,0.0,5.734,5.7273,5.7002,5.6292,5.5818,5.5412,5.5108,5.4431,5.3719,5.3129,5.2759,5.2049,5.0725,5.0368,0.0,0.0,0.0,4.8927,4.81,4.8348,0.0,0.0,0.0,0.0,0.0,0.0,0.0,0.0,4.6736,4.6844,0.0,0.0,0.0,0.0,0.0,0.0,0.0,0.0,0.0,0.0,0.0,0.0,0.0,0.0,0.0,0.0,6.1569,6.2787,6.3531,6.37,6.4005,6.4647,6.5358,6.6373,6.776,6.7996,6.8368,6.9147,6.9316,6.962,7.0297,0.0,0.0,0.0,0.0,7.0195,7.0195,6.9451,6.8741,6.803,6.7929,6.7557,6.6948,6.6846,6.644,6.5797,6.573,6.5324,6.4681,6.3937,6.3599,6.3429,6.2685,6.2381,6.2381,6.2381,6.2381,6.2381,6.2381,0.0,0.0,6.2381,6.2381,6.2279,6.1637,6.1434,6.1264,6.0452,6.025,6.0216,6.0114,5.9607,5.9302,5.9945,5.9099,5.8321,5.8998,5.8524,5.8017,5.8017,5.7949,5.7881,5.7881,5.7881,5.7679,5.7036,5.6867,5.6562,5.5919,5.5175,5.4702,5.4702,0.0,0.0,5.2604,5.1662,5.1125,5.1321,5.046,4.9689,4.9026,4.8545,4.7872,4.7043,4.8509,4.9255,4.9255,5.0574,5.1251,5.1252,4.9224,4.8644,0.0,0.0,0.0,0.0,0.0,0.0,0.0,0.0,0.0,0.0,0.0,0.0,0.0,0.0,0.0,6.167,6.2719,6.3565,6.4275,6.4884,6.5324,6.5459,6.6136,6.6948,6.7793,6.8504,6.918,6.9925,7.0534,7.0939,7.1075,7.1109,7.1176,7.1312,7.0567,7.0195,7.0195,6.9451,6.9011,6.8876,0.0,0.0,6.7658,6.7083,6.6745,6.6542,6.5967,6.5595,6.5425,6.4681,6.4038,6.3429,6.2685,6.2381,6.2381,6.2381,6.2381,6.2381,6.2381,6.2381,6.2381,6.2381,6.2381,6.2347,6.2212,6.2178,0.0,6.1264,6.1061,6.0926,6.0283,5.9979,5.9911,6.008,5.9877,5.9708,5.9844,5.9302,5.8795,5.8795,5.8321,5.7881,5.7881,5.7881,5.7848,5.7712,5.7171,5.6765,5.6596,5.5953,5.5513,5.5513,5.4837,5.4329,5.416,5.2842,5.2067,5.2064,5.1359,5.0856,5.0722,5.0614,5.0479,5.0284,5.0614,5.0745,5.0777,5.105,5.1522,5.2063,5.1048,5.1289,0.0,0.0,0.0,0.0,0.0,0.0,0.0,0.0,0.0,0.0,0.0,5.8795,5.9945,0.0,6.2178,6.3328,6.4444,6.529,6.5662,6.6677,6.7117,6.6339,6.6914,6.7793,6.8944,6.9417,6.9958,7.0703,7.1447,7.1853,7.1853,7.1853,7.1853,7.1853,7.1142,7.0737,7.0737,7.0398,7.0026,6.9654,6.9248,6.8842,6.847,6.7692,6.7354,6.732,6.6576,6.6237,6.6203,6.5459,6.4512,6.3463,6.3091,6.2719,6.2381,6.2381,6.2381,6.2381,6.2381,6.2381,6.2381,6.2381,6.2381,6.2381,6.2381,6.2381,6.2313,6.1941,6.1839,6.1772,6.1366,6.0994,6.0791,6.1163,6.0655,6.0216,6.0622,6.008,5.9573,5.9573,5.8964,5.8457,5.8457,5.8152,5.7881,5.7881,5.7577,5.734,5.734,5.6697,5.6258,5.6258,5.5581,5.5006,5.4634,5.3551,5.2909,5.2909,5.2198,5.1758,5.1758,5.142,5.1185,5.1185,5.1589,5.1758,5.1758,5.2536,5.3078,5.345,5.345,5.3687,0.0,0.0,0.0,0.0,0.0,0.0,0.0,5.7374,5.8084,5.9573,6.0486,6.14,6.2787,6.3531,6.4241,6.5087,6.6237,6.7083,6.7218,6.8335,6.8707,6.759,6.7861,6.8673,7.006,7.0195,7.0567,7.1447,7.2056,7.2462,7.2597,7.2597,7.2563,7.2394,7.1819,7.1447,7.1312,7.1312,7.1007,7.0398,7.0263,6.9891,6.9282,6.8335,6.7895,6.7861,6.7117,6.6812,6.6745,6.6,6.4986,6.3903,6.3632,6.3159,6.2584,6.2448,6.2381,6.2381,6.2381,6.2381,6.2381,6.2381,6.2381,6.2381,6.2381,6.2381,6.2381,6.2381,6.2381,6.2381,6.2381,6.1941,6.167,6.2245,6.1434,6.0723,6.1366,6.0892,6.0317,6.0317,5.9742,5.9167,5.9032,5.8524,5.8051,5.7915,5.7881,5.7881,5.7881,5.7374,5.7002,5.7002,5.6359,5.5615,5.4871,5.4262,5.3923,5.3923,5.3315,5.2976,5.2976,5.2266,5.186,5.186,5.2435,5.2739,5.2739,5.4126,5.4803,5.4837,5.5581,5.5615,5.1894,5.3179,5.4837,5.6867,5.7036,5.7543,0.0,6.1197,6.1231,6.2719,6.3599,6.4343,6.5155,6.5392,6.5899,6.7286,6.7658,6.803,6.8741,6.8977,6.9282,6.9755,6.9316,6.9282,7.0094,7.0195,7.077,7.2157,7.236,7.2699,7.3341,7.3375,7.3071,7.2428,7.2326,7.1954,7.1312,7.1312,7.1278,7.1176,7.05,7.0161,7.0026,6.8571,6.7895,6.7861,6.7117,6.6812,6.6745,6.6,6.5595,6.5324,6.4005,6.3463,6.3294,6.2618,6.2381,6.2381,6.2381,6.2381,6.2381,6.2381,6.2381,6.2381,6.2381,6.2381,6.2381,6.2381,6.2381,6.2381,6.2381,6.2347,6.2279,6.2381,6.2245,6.2144,6.2245,6.167,6.1163,6.1163,6.052,5.9776,5.9133,5.893,5.866,5.7983,5.7881,5.7881,5.7881,5.7814,5.778,5.778,5.7103,5.6393,5.5649,5.5513,5.548,5.548,5.5343,5.5309,5.5309,5.46,5.4228,5.4228,5.4296,5.4329,5.4329,5.5175,5.5581,5.5615,5.6325,5.663,5.4499,5.6021,5.7374,5.8321,5.9302,6.0452,6.2042,6.2482,6.2888,6.3937,6.4715,6.5459,6.6203,6.6677,6.732,6.8402,6.8944,6.935,6.9688,7.0128,7.05,7.0804,7.0567,7.05,7.0804,7.0838,7.1278,7.2326,7.28,7.3341,7.4086,7.4153,7.4018,7.368,7.2834,7.2259,7.1954,7.1515,7.1312,7.1312,7.1007,7.0838,7.0804,6.9282,6.8335,6.7895,6.7557,6.7455,6.7387,6.6643,6.6102,6.5628,6.5019,6.4275,6.3429,6.2651,6.2381,6.2381,6.2381,6.2381,6.2381,6.2381,6.2381,6.2381,6.2381,6.2381,6.2381,6.2381,6.2381,6.2381,6.2381,6.2381,6.2381,6.2381,6.2381,6.2381,6.2381,6.2144,6.1941,6.1941,6.1332,6.0689,6.0385,5.9945,5.9404,5.866,5.8152,5.7881,5.7881,5.7881,5.7881,5.7881,5.7239,5.6697,5.6393,5.5953,5.5681,5.5681,5.5681,5.5681,5.5681,5.5412,5.5243,5.5243,5.5243,5.5243,5.5243,5.5987,5.6359,5.6359,5.7103,5.7442,5.6596,5.8051,5.9133,5.9539,6.0892,6.2144,6.2347,6.2956,6.3666,6.4208,6.5053,6.5967,6.6948,6.7726,6.8605,6.9823,7.0466,7.0804,7.0804,7.1278,7.1548,7.1345,7.1312,7.1312,7.1312,7.1312,7.1785,7.2935,7.3308,7.3916,7.4864,7.4897,7.483,7.4627,7.3578,7.28,7.2394,7.1887,7.1515,7.1312,7.1312,7.1312,7.1278,6.9789,6.8538,6.759,6.759,6.759,6.7557,6.7015,6.6508,6.5967,6.5764,6.5053,6.4038,6.326,6.2753,6.2381,6.2381,6.2381,6.2381,6.2381,6.2381,6.2381,6.2381,6.2381,6.2381,6.2381,6.2381,6.2381,6.2381,6.2381,6.2381,6.2381,6.2381,6.2381,6.2381,6.2381,6.2381,6.2381,6.1975,6.1535,6.1332,6.0825,6.0182,5.9438,5.8693,5.8118,5.7915,5.7881,5.7881,5.7881,5.7408,5.7103,5.7103,5.663,5.6325,5.6325,5.6325,5.6325,5.6325,5.6122,5.6021,5.6021,5.6021,5.6021,5.6021,5.6731,5.7103,5.7103,5.7645,5.8017,5.7645,5.8423,5.937,6.0858,6.1298,6.1535,6.2245,6.2956,6.3531,6.3531,6.4681,6.6136,6.759,6.8504,6.9789,7.1954,7.2326,7.2326,7.2326,7.236,7.209,7.1413,7.1312,7.1312,0.0,7.1312,7.2225,7.439,7.3883,7.4119,7.5574,7.5676,7.5337,7.4627,7.4559,7.3849,7.2428,7.2394,7.2022,7.1312,7.1312,7.1312,7.1278,6.9789,6.8267,6.6846,6.6846,6.6846,6.6846,6.6812,6.6812,6.6711,6.5967,6.5662,6.5527,6.4816,6.3632,6.2381,6.2381,6.2381,6.2381,6.2381,6.2381,6.2381,6.2381,6.2381,6.2381,6.2381,6.2381,6.2381,6.2381,6.2381,6.2381,6.2381,6.2381,6.2381,6.2381,6.2381,6.2381,6.2381,6.2381,6.2144,6.1434,6.1298,6.0994,6.0182,5.9438,5.8727,5.7983,5.7881,5.7881,5.7881,5.7881,5.7848,5.7848,5.7848,5.7814,5.7814,5.7814,5.7814,5.7814,5.7137,5.6765,5.6765,5.6765,5.6765,5.6765,5.7509,5.7848,5.7848,5.7881,5.8287,5.8321,5.9573,6.0655,6.1163,6.167,6.2212,6.2956,6.3328,6.3666,6.414,6.4613,6.5425,6.6914,6.7793,6.9045,7.1312,7.209,7.2563,7.3037,7.3105,7.2868,7.2124,7.2462,0.0,0.0,0.0,0.0,7.3747,7.3612,7.4119,7.5608,7.5709,7.5574,7.5337,7.439,7.3612,7.3105,7.2157,7.1548,7.1312,7.1312,7.1041,7.0567,7.0567,6.9755,6.8335,6.8335,6.803,6.7489,6.7015,6.6812,6.6779,6.6542,6.6136,6.5662,6.5425,6.441,6.3125,6.3125,6.2821,6.2381,6.2381,6.2381,6.2381,6.2381,6.2381,6.2381,6.2381,6.2381,6.2381,6.2381,6.2381,6.2381,6.2381,6.2381,6.2381,6.2381,6.2381,6.2381,6.2381,6.2381,6.2313,6.2076,6.2009,6.1772,6.1028,5.981,5.8727,5.7983,5.7881,5.7881,5.7881,5.7881,5.7881,5.7881,5.7881,5.8084,5.8592,5.8626,5.8626,5.8626,5.8389,5.8051,5.7543,5.7509,5.7509,5.7509,5.8287,5.8626,5.866,5.9133,5.9505,5.9066,6.0351,6.1366,6.1637,6.2042,6.2516,6.299,6.3125,6.326,6.37,6.4038,6.4647,6.6136,6.7015,6.8436,7.1244,7.209,7.2732,7.3747,7.3883,7.3612,7.2868,7.3206,7.3308,0.0,0.0,0.0,7.3781,7.3883,7.4424,7.5642,7.5709,7.5709,7.5709,7.4525,7.3747,7.3477,7.2293,7.1582,7.1312,7.1312,7.0906,7.0195,7.0432,6.9857,6.8673,6.8402,6.7996,6.7489,6.7015,6.6812,6.6812,6.6812,6.6508,6.6102,6.6102,6.5324,6.4208,6.37,6.3024,6.2381,6.2381,6.2381,6.2381,6.2381,6.2381,6.2381,6.2381,6.2381,6.2381,6.2381,6.2381,6.2381,6.2381,6.2381,6.2381,6.2381,6.2381,6.2381,6.2381,6.2381,6.2381,6.2381,6.2381,6.2144,6.14,6.0452,5.9539,5.8761,5.8693,5.8693,5.8693,5.8693,5.8693,5.8693,5.8693,5.8896,5.937,5.9404,5.9404,5.9404,5.9404,5.9167,5.8693,5.8693,5.8693,5.8693,5.9167,5.9404,5.9404,5.9877,6.025,5.9979,6.0757,6.1535,6.2212,6.2381,6.2381,6.2381,6.2381,6.2381,6.2381,6.2956,6.3903,6.5324,6.6271,6.7996,7.1684,7.2394,7.2969,7.4458,7.4661,7.439,7.3612,7.3578,7.3578,7.3477,7.3544,0.0,7.4559,0.0,7.4931,7.5676,7.5709,7.5709,7.5709,7.4965,7.4221,7.3477,7.2732,7.1988,7.1312,7.1312,7.0939,7.0229,6.9519,6.8774,6.7996,6.7286,6.6948,6.688,6.688,6.6846,6.6812,6.6812,6.6812,6.6812,6.6812,6.6339,6.5493,6.4106,6.3125,6.2448,6.2448,6.2415,6.2381,6.2381,6.2381,6.2381,6.2381,6.2381,6.2381,6.2381,6.2381,6.2381,6.2381,6.2381,6.2381,6.2381,6.2381,6.2381,6.2381,6.2381,6.2381,6.2381,6.2381,6.2144,6.1467,6.1366,6.1061,6.0216,6.0114,6.0114,6.0114,6.0114,6.0114,6.0114,6.0114,6.0114,6.0148,6.0148,6.0148,6.0148,6.0148,6.0148,6.0114,6.0114,6.0114,6.0114,6.0148,6.0148,6.0148,6.0216,6.0622,6.0791,6.1535,6.2144,6.2347,6.2381,6.2381,6.2381,6.2381,6.2381,6.2381,6.255,6.2956,6.3903,6.5561,6.7692,7.0331,7.2124,7.3713,7.5202,7.5439,7.5134,7.4424,7.4796,7.4695,7.3578,7.4492,7.4999,0.0,7.4627,7.4931,7.5676,7.5709,7.5709,7.5709,7.4458,7.368,7.3477,7.2225,7.1515,7.1312,7.1312,7.121,7.1007,7.0838,7.0331,6.9586,6.9417,6.8673,6.7624,6.7624,6.732,6.6812,6.6812,6.6812,6.6812,6.6812,6.6339,6.5628,6.5256,6.4309,6.3226,6.3226,6.2854,6.2381,6.2381,6.2381,6.2381,6.2381,6.2381,6.2381,6.2381,6.2381,6.2381,6.2381,6.2381,6.2381,6.2381,6.2381,6.2381,6.2381,6.2381,6.2381,6.2381,6.2381,6.2347,6.2144,6.211,6.1637,6.0283,6.0114,6.0114,6.0114,6.0114,6.0114,6.0114,6.0114,6.0351,6.096,6.0994,6.0994,6.0994,6.0994,6.0723,6.0114,6.0114,6.0114,6.0114,6.0689,6.0994,6.1028,6.1569,6.1907,6.1197,6.1839,6.2381,6.2381,6.2381,6.2313,6.1975,6.2144,6.2313,6.1975,6.2178,6.2618,6.3362,6.4783,6.6677,6.9282,7.1312,7.3172,7.4965,7.5506,7.554,7.5134,7.5439,7.5371,7.4525,7.5202,7.554,7.51,7.51,7.527,7.5676,7.5709,7.5709,7.5709,7.4255,7.3172,7.2529,7.1718,7.1312,7.1312,7.1312,7.1312,7.1312,7.0973,7.0601,7.0161,0.0,6.9214,6.8402,6.803,6.7658,6.7252,6.6948,6.6812,6.6812,6.6812,6.6542,6.617,6.617,6.5425,6.4377,6.3734,6.299,6.2381,6.2381,6.2381,6.2381,6.2381,6.2381,6.2381,6.2381,6.2381,6.2381,6.2381,6.2381,6.2381,6.2381,6.2381,6.2381,6.2381,6.2381,6.2381,6.2381,6.2381,6.2381,6.2381,6.2381,6.2076,6.1197,6.1095,6.1095,6.1095,6.1095,6.1095,6.1095,6.1095,6.1298,6.1738,6.1772,6.1772,6.1772,6.1772,6.1569,6.1129,6.1095,6.1095,6.1095,6.1569,6.1772,6.1772,6.2212,6.2381,6.1467,6.1907,6.2381,6.2381,6.2381,6.2212,6.1603,6.1941,6.2212,6.1569,6.1941,6.2584,6.326,6.4038,6.5561,6.847,7.0195,7.1954,7.4289,7.5168,7.5574,7.5676,7.5709,7.5709,7.5709,7.5709,7.5709,7.5709,7.5709,7.5709,7.5709,7.5709,7.5608,7.5405,7.4052,7.2699,7.1312,7.1312,7.1312,7.1312,7.1312,7.1312,7.1312,7.0635,7.0331,7.0297,6.9654,0.0,6.9045,6.8335,6.7929,6.7692,6.7049,6.6812,6.6812,6.6812,6.6812,6.6812,6.6812,6.6305,6.5459,6.4106,6.3159,6.2516,6.2415,6.2381,6.2381,6.2381,6.2381,6.2381,6.2381,6.2381,6.2381,6.2381,6.2381,6.2381,6.2381,6.2381,6.2381,6.2381,6.2381,6.2381,6.2381,6.2381,6.2381,6.2381,6.2381,6.2381,6.2381,6.2381,6.2381,6.2381,6.2381,6.2381,6.2381,6.2381,6.2381,6.2381,6.2381,6.2381,6.2381,6.2381,6.2381,6.2381,6.2381,6.2381,6.2381,6.2381,6.2381,6.2381,6.2381,6.2381,6.2212,6.2279,6.2381,6.2381,6.2381,6.2347,6.2245,6.2313,6.2347,6.2245,6.2313,6.2415,6.255,6.37,6.5358,6.7726,6.9383,7.1379,7.4221,7.4728,7.5033,7.5642,7.5709,7.5709,7.5709,7.5709,7.5709,0.0,7.5709,7.5709,7.5709,7.5709,7.5134,7.3916,7.3037,7.2191,7.1312,7.1312,7.1312,7.1312,7.1312,7.1312,7.1312,7.1176,7.1109,7.1109,7.0973,0.0,6.9079,6.8944,6.8132,6.6981,6.688,6.6812,6.6812,6.6812,6.6812,6.6812,6.6812,6.6305,6.5561,6.4681,6.3903,6.3193,6.2584,6.2381,6.2381,6.2381,6.2381,6.2381,6.2381,6.2381,6.2381,6.2381,6.2381,6.2381,6.2381,6.2381,6.2381,6.2381,6.2381,6.2381,6.2381,6.2381,6.2381,6.2381,6.2381,6.2381,6.2381,6.2381,6.2381,6.2381,6.2381,6.2381,6.2381,6.2381,6.2381,6.2381,6.2381,6.2381,6.2381,6.2381,6.2381,6.2381,6.2381,6.2381,6.2381,6.2381,6.2381,6.2381,6.2381,6.2381,6.2381,6.2381,6.2381,6.2381,6.2381,6.2279,6.1907,6.211,6.2279,6.1907,6.211,6.2381,6.2381,6.3294,6.4647,6.644,6.7996,7.006,7.3037,7.3781,7.4424,7.5574,7.5709,7.5709,7.5709,7.5709,7.5709,7.5709,7.5709,7.5709,7.5709,7.5337,7.4627,7.351,7.2766,7.2056,7.1312,7.1312,7.1312,7.1312,7.1312,7.1312,7.1312,7.1312,7.1312,7.1312,7.0906,0.0,6.962,6.8808,6.803,6.7354,6.6948,6.6812,6.6812,6.6812,6.6812,6.6812,6.6812,6.6576,6.6136,6.5392,6.4681,6.4005,6.3632,6.3531,6.3531,6.3531,6.326,6.2956,6.2956,6.2685,6.2381,6.2381,6.2381,6.2381,6.2381,6.2381,6.2381,6.2381,6.2381,6.2381,6.2381,6.2381,6.2381,6.2381,6.2381,6.2381,6.2381,6.2381,6.2381,6.2381,6.2381,6.2381,6.2381,6.2381,6.2381,6.2381,6.2381,6.2381,6.2381,6.2381,6.2381,6.2381,6.2381,6.2381,6.2381,6.2381,6.2381,6.2381,6.2381,6.2381,6.2381,6.2381,6.2381,6.2381,6.2381,6.2245,6.167,6.1975,6.2245,6.167,6.2009,6.2381,6.2381,6.2854,6.3802,6.5425,6.6677,6.8538,7.1718,7.28,7.3815,7.5303,7.5608,7.5709,7.5709,7.5709,0.0,7.5709,7.5709,7.5709,7.5709,7.4999,7.4322,7.3747,7.3003,7.2293,7.1548,7.1548,7.1481,7.1312,7.1312,7.1312,7.1312,7.1312,7.1312,7.1278,7.05,0.0,0.0,6.847,6.7793,6.7624,6.7049,6.6812,6.6812,6.6812,6.6812,6.6812,6.6812,6.6812,6.6711,6.6102,6.5425,6.4816,6.4647,6.4613,6.4613,6.4613,6.4072,6.3531,6.3531,6.2956,6.2381,6.2381,6.2381,6.2381,6.2381,6.2381,6.2381,6.2381,6.2381,6.2381,6.2381,6.2381,6.2381,6.2381,6.2381,6.2381,6.2381,6.2381,6.2381,6.2381,6.2381,6.2381,6.2381,6.2381,6.2381,6.2381,6.2381,6.2381,6.2381,6.2381,6.2381,6.2381,6.2381,6.2381,6.2381,6.2381,6.2381,6.2381,6.2381,6.2381,6.2381,6.2381,6.2381,6.2381,6.2381,6.2381,6.2313,6.2347,6.2381,6.2313,6.2347,6.2381,6.2381,6.2448,6.3193,6.5324,6.5797,6.7184,7.0906,7.2056,7.3037,7.4525,7.5303,7.5709,7.5709,7.5709,7.5709,7.5709,7.5709,7.5709,7.5709,7.4999,7.4593,7.4525,7.3781,7.3037,7.2326,7.2293,7.1954,7.1312,7.1312,7.1312,7.1312,7.1312,7.1312,7.1278,7.05,0.0,0.0,6.8267,6.7523,6.6914,6.6846,6.6812,6.6812,6.6812,6.6812,6.6812,6.6812,6.6812,6.6812,6.6745,6.6203,6.5459,6.4783,6.4613,6.4613,6.4613,6.4072,6.3531,6.3531,6.2956,6.2381,6.2381,6.2381,6.2381,6.2381,6.2381,6.2381,6.2381,6.2381,6.2381,6.2381,6.2381,6.2381,6.2381,6.2381,6.2381,6.2381,6.2381,6.2381,6.2381,6.2381,6.2381,6.2381,6.2381,6.2381,6.2381,6.2381,6.2381,6.2381,6.2381,6.2381,6.2381,6.2381,6.2381,6.2381,6.2381,6.2381,6.2381,6.2381,6.2381,6.2279,6.2381,6.2381,6.2381,6.2381,6.2381,6.2381,6.2381,6.2381,6.2381,6.2381,6.2381,6.2381,6.2381,6.2821,6.4174,6.4749,6.6,6.8876,6.9925,7.1278,7.3646,7.4187,7.4695,7.5608,7.5709,7.5709,7.5709,7.5709,7.5709,7.5709,7.4999,7.4627,7.4627,7.3443,7.2699,7.2394,7.1954,7.1616,7.1312,7.1312,7.1312,7.1312,7.0838,7.0635,7.0567,6.935,0.0,0.0,6.7557,6.7083,6.6812,6.6812,6.6812,6.6812,6.6812,6.6812,6.6812,6.6812,6.6812,6.6812,6.6812,6.6609,6.6305,6.6034,6.5933,6.5933,6.5933,6.5087,6.4174,6.4174,6.3294,6.2381,6.2381,6.2381,6.2381,6.2381,6.2381,6.2381,6.2381,6.2381,6.2381,6.2381,6.2381,6.2381,6.2381,6.2381,6.2381,6.2381,6.2381,6.2381,6.2381,6.2381,6.2381,6.2381,6.2381,6.2381,6.2381,6.2381,6.2381,6.2381,6.2381,6.2381,6.2381,6.2381,6.2381,6.2381,6.2381,6.2381,6.2381,6.2381,6.2381,6.1941,6.2212,6.2381,6.2381,6.2381,6.2381,6.2381,6.2381,6.2381,6.2381,6.2381,6.2381,6.2381,6.2381,6.2618,6.3396,6.414,6.529,6.7286,6.847,6.9958,7.2225,7.2699,7.3409,7.4897,7.5439,7.5709,7.5709,7.5506,7.5473,7.5676,7.4796,7.4492,7.4931,7.3713,7.2935,7.2732,7.1988,7.1548,7.1312,7.1312,7.1312,7.1278,7.0534,7.0195,7.0094,6.8571,0.0,0.0,6.7117,6.6812,6.6812,6.6812,6.6812,6.6812,6.6812,6.6812,6.6812,6.6812,6.6812,6.6812,6.6812,6.6812,6.6812,6.6812,6.6812,6.6812,6.6812,6.573,6.4512,6.4072,6.3159,6.2381,6.2381,6.2381,6.2381,6.2381,6.2381,6.2381,6.2381,6.2381,6.2381,6.2381,6.2381,6.2381,6.2381,6.2381,6.2381,6.2381,6.2381,6.2381,6.2381,6.2381,6.2381,6.2381,6.2381,6.2381,6.2381,6.2381,6.2381,6.2381,6.2381,6.2381,6.2381,6.2381,6.2381,6.2381,6.2381,6.2381,6.2381,6.2381,6.2381,6.1332,6.1839,6.2381,6.2381,6.2381,6.2381,6.2381,6.2381,6.2381,6.2381,6.2381,6.2381,6.2381,6.2381,6.2618,6.3396,6.414,6.5121,6.6609,6.8132,6.9383,7.0128,7.0872,7.1921,7.3375,7.483,7.5709,7.5709,7.5033,0.0,7.5676,7.4289,7.4153,7.5642,7.4965,7.4221,7.3477,7.2766,7.2022,7.1312,7.1312,7.1312,7.1278,7.0534,7.0195,0.0,0.0,0.0,0.0,6.7117,6.6812,6.6812,6.6812,6.6812,6.6812,6.6812,6.6812,6.6812,6.6812,6.6812,6.6812,6.6812,6.6812,6.6812,6.6812,6.6812,6.6812,6.6812,6.573,6.4275,6.2787,6.2415,6.2381,6.2381,6.2381,6.2381,6.2381,6.2381,6.2381,6.2381,6.2381,6.2381,6.2381,6.2381,6.2381,6.2381,6.2381,6.2381,6.2381,6.2381,6.2381,6.2381,6.2381,6.2381,6.2381,6.2381,6.2381,6.2381,6.2381,6.2381,6.2381,6.2381,6.2381,6.2381,6.2381,6.2381,6.2381,6.2381,6.2381,6.2381,6.2381,6.2381,6.0351,6.1061,6.1637,6.1637,6.2009,6.2381,6.2381,6.2381,6.2381,6.2381,6.2381,6.2381,6.2381,6.2381,6.2618,6.3396,6.414,6.4952,6.5899,6.732,6.8741,7.0026,7.1718,7.2969,7.3443,0.0,7.4187,7.4187,7.3984,7.4153,7.4931,7.4018,7.395,7.4931,7.3747,7.2969,7.2732,7.2022,7.1548,7.1312,7.1312,7.1312,7.1278,7.0026,6.9451,0.0,0.0,0.0,0.0,6.6914,6.6812,6.6812,6.6812,6.6812,6.6812,6.6812,6.6812,6.6812,6.6812,6.6812,6.6812,6.6812,6.6812,6.6812,6.6812,6.6812,6.6711,6.6203,6.5358,6.4377,6.3396,6.2787,6.2381,6.2381,6.2381,6.2381,6.2381,6.2381,6.2381,6.2381,6.2381,6.2381,6.2381,6.2381,6.2381,6.2381,6.2381,6.2381,6.2381,6.2381,6.2381,6.2381,6.2381,6.2381,6.2381,6.2381,6.2381,6.2381,6.2381,6.2381,6.2381,6.2381,6.2381,6.2381,6.2381,6.2381,6.2381,6.2381,6.2381,6.2381,6.2381,6.2381,5.9471,6.025,6.0926,6.1231,6.1637,6.2042,6.2347,6.2381,6.2381,6.2381,6.2381,6.2381,6.2381,6.2381,6.2618,6.3396,6.414,6.485,6.5595,6.6948,6.8368,6.962,7.1481,7.2665,0.0,7.3172,7.3477,7.3477,7.324,7.3409,7.4153,7.3206,7.3003,7.3747,7.2868,7.2394,7.2394,7.1684,7.1312,7.1312,7.1312,7.1176,7.0838,6.9654,6.8944,0.0,0.0,0.0,0.0,6.7117,6.7049,6.6846,6.7117,6.7049,6.6812,6.6812,6.6812,6.6812,6.6812,6.6812,6.6812,6.6812,6.7071,6.7298,6.6984,6.6629,6.6237,6.5493,6.4749,6.4038,6.3294,6.2753,6.2448,6.2753,6.2821,6.2888,6.3159,6.3226,6.3226,6.3226,6.3226,6.3125,6.2854,6.2821,6.2719,6.2415,6.2618,6.2821,6.2821,6.3383,6.3751,6.3751,6.3786,6.3839,6.3839,6.2949,6.2537,6.2855,6.2893,6.2893,6.2893,6.3202,6.324,6.2893,6.2893,6.2736,6.2381,6.2381,6.2381,6.2381,6.2381,6.2381,0.0,5.9505,6.0283,6.1028,6.1298,6.1569,6.2245,6.2381,0.0,6.2381,6.2381,6.2381,6.2381,6.2381,6.2618,6.3396,6.414,6.485,6.5595,6.7015,6.8301,6.9147,7.0466,7.1312,7.1312,7.2529,7.3341,7.3341,7.2699,7.2631,7.3375,7.209,7.165,7.2394,7.236,7.2326,7.2326,7.165,7.1312,7.1312,7.1278,7.0872,7.0161,6.9383,6.8605,0.0,0.0,0.0,0.0,6.759,6.7489,6.6948,6.7624,6.7489,6.688,6.6846,6.6812,6.6812,6.6812,6.6812,6.6812,6.6896,6.7501,6.805,6.7361,6.649,6.565,6.4905,6.4113,6.3362,6.2651,6.2482,6.2651,6.3362,6.3565,6.3768,6.4444,6.4613,6.4613,6.4613,6.4613,6.4417,6.378,6.3685,6.3447,6.2853,6.3328,6.3804,6.3804,6.5141,6.6123,6.6123,6.6216,6.6305,6.6408,6.4058,6.2931,6.3755,6.3757,6.3757,6.3757,6.4598,6.4597,6.3827,6.3757,6.3351,6.2498,6.2498,6.2459,6.2381,6.2381,6.2381,5.8084,0.0,6.0148,6.0317,6.1264,6.2178,0.0,6.2381,6.2381,6.2381,6.2381,6.2381,6.2381,6.2381,6.2618,6.3396,6.414,6.485,6.5595,6.7489,6.9316,7.0635,7.1109,7.1312,7.1312,7.1616,7.1819,7.1819,7.1684,7.1887,7.2631,7.1785,7.165,7.2394,7.1853,7.1582,7.1582,7.1413,7.1312,7.1312,7.0737,7.0364,7.0128,6.8808,6.8064,0.0,0.0,0.0,6.688,6.759,6.7793,6.7658,6.7827,6.7793,6.7557,6.7015,6.6812,6.6812,6.6812,6.6812,6.6904,6.7662,6.761,6.7399,6.797,6.7494,6.6631,6.5795,6.4601,6.3463,6.3294,6.326,6.3294,6.3463,6.3937,6.4377,6.4546,6.4613,6.4613,6.4613,6.4613,6.4794,6.531,6.5428,6.5587,6.6109,6.6356,6.6461,6.6461,6.6848,6.7059,6.7059,6.709,6.739,6.8111,6.5847,6.4495,6.4665,6.4698,6.4698,6.4698,6.49,6.49,6.4698,6.4698,6.4253,6.3388,6.3388,6.3049,6.2381,6.2381,6.2381,5.7881,5.8727,5.9776,6.0486,6.1264,6.2076,6.2753,6.2618,6.2381,6.2381,6.2381,6.2381,6.2381,6.2381,6.2618,6.3396,6.414,6.5222,6.7015,6.8335,6.9654,7.1142,7.1312,7.1312,0.0,7.1312,7.1312,7.1312,7.1312,7.1481,7.1887,7.1548,7.1481,7.1887,7.1515,7.1312,7.1312,7.0973,7.0973,7.1312,7.0195,6.9688,6.9654,6.8436,6.7726,0.0,0.0,0.0,6.6914,6.7996,6.8233,6.7963,6.8673,6.8504,6.7861,6.7455,6.7117,6.6812,6.6812,6.7078,6.7553,6.8151,6.8324,6.8293,6.8097,6.7714,6.7129,6.6249,6.5153,6.4265,6.4648,6.4752,6.4813,6.5113,6.5475,6.5727,6.565,6.597,6.6263,6.6263,6.6622,6.6983,6.7158,6.716,6.7234,6.7371,6.7688,6.7936,6.7936,6.8629,6.9077,6.9077,6.9149,6.9415,6.9914,6.8355,6.7168,6.6753,6.6721,6.6721,6.6721,6.6777,6.6598,6.6185,6.5406,6.4942,6.4848,6.4463,6.4043,6.361,6.361,6.356,5.8017,5.8693,5.9641,6.0825,6.1298,6.1806,6.3057,6.2854,6.2381,6.2381,6.2381,6.2381,6.2381,6.2482,6.2753,6.3429,6.4309,6.5899,6.8707,6.9214,6.9789,7.1142,7.1312,0.0,7.1312,7.1312,7.1312,7.1312,0.0,7.1312,7.1312,7.1312,7.1312,7.1312,7.121,7.1142,7.1142,7.05,7.0466,7.0973,6.9586,6.891,6.8876,6.8098,6.7387,6.6812,0.0,0.0,6.7083,6.8368,6.8639,6.8368,6.9553,6.9214,6.8064,6.7963,6.7506,6.7029,6.7161,6.7782,6.8467,6.8788,6.9253,6.9507,6.8439,6.7849,6.7475,6.6728,6.5906,6.5318,6.6024,6.6378,6.6704,6.7217,6.7414,6.7461,6.7277,6.7866,6.842,6.842,6.9095,6.9566,6.9066,6.8993,6.8813,6.8271,6.8734,6.9198,6.9198,7.0437,7.1318,7.1318,7.1427,7.1505,7.1505,7.0881,7.0148,6.9424,6.911,6.9001,6.9001,6.9039,6.8694,6.7836,6.6343,6.5821,6.6223,6.5551,6.5202,6.5176,6.5176,6.5195,5.866,5.9877,6.0858,6.0385,6.1264,6.2279,6.2516,6.2482,6.2381,6.2381,6.2381,6.2381,6.2381,6.2922,6.3396,6.3497,6.5189,6.7083,6.8842,6.962,7.0331,7.121,0.0,7.1312,7.1312,7.1312,7.1312,7.1312,0.0,7.1312,7.1312,7.1312,7.1312,7.1312,7.0703,7.0364,7.0364,7.0263,6.9925,6.9417,6.8504,6.8098,6.8064,6.732,6.6914,6.6812,0.0,6.7151,6.776,6.7996,6.8774,6.9789,6.9417,6.9113,6.8842,6.8166,6.794,6.8107,6.8982,6.9349,6.9601,7.0425,6.9885,6.9095,7.0332,6.9319,6.779,6.8337,6.7297,6.6059,6.6166,6.7193,6.8255,6.8364,6.8858,6.9281,6.9277,6.9385,6.9458,6.9458,6.9566,6.9918,7.0623,7.0718,7.0943,7.1616,7.1815,7.1888,7.1888,7.2153,7.2285,7.2285,7.2299,7.2312,7.2312,7.2202,7.2071,7.1919,7.0637,6.9905,6.9905,6.9907,6.954,6.8733,6.8438,6.7666,6.6366,6.6258,6.6101,6.6024,6.6024,6.6381,5.8321,5.9505,6.0655,6.0723,6.2178,6.3463,6.3091,6.299,6.2888,6.2482,6.2381,6.2381,6.2381,6.299,6.3768,6.4546,6.5899,6.7354,6.8876,6.9722,7.0466,0.0,0.0,7.1312,7.1312,7.1312,7.1312,0.0,0.0,0.0,7.1312,7.1312,7.1142,7.0737,7.0364,6.9789,6.8977,6.8944,6.9011,6.9079,6.7895,6.7523,6.7895,6.7557,6.7184,6.6846,0.0,6.759,6.7929,6.8368,6.918,7.0161,6.9823,6.9451,6.903,6.833,6.8102,6.842,6.9953,7.0468,7.053,7.1034,7.0695,7.0171,7.0547,6.9889,6.9082,6.9449,6.8611,6.7752,6.8186,6.9162,7.0013,6.9956,7.0181,7.0332,6.9814,7.0127,7.0468,7.0468,7.0868,7.1354,7.1794,7.1854,7.2011,7.2438,7.2496,7.2496,7.2496,7.2496,7.2496,7.2496,7.2496,7.2496,7.2496,7.2496,7.2496,7.2496,7.1798,7.1211,7.077,7.077,7.0587,7.022,6.9779,6.9392,6.9049,6.8611,6.8364,6.8295,6.8295,6.8444,5.8084,5.9235,6.052,6.1163,6.2685,6.4038,6.3802,6.3632,6.3362,6.2753,6.2651,6.2584,6.2415,6.3159,6.4241,6.573,6.6745,6.776,6.8944,6.9891,7.0669,7.1244,7.1142,7.1109,7.1312,7.1142,7.1109,0.0,0.0,0.0,7.1075,7.1041,7.0703,6.9958,6.9755,6.9079,6.7895,6.7726,6.7963,6.8571,6.7387,6.7184,6.7895,6.7895,6.7692,6.7387,6.7929,6.8267,6.847,6.891,6.9795,7.0769,7.0386,6.9944,6.9426,6.9056,6.8875,6.9133,7.0832,7.1448,7.1433,7.156,7.1439,7.1248,7.0807,7.0403,7.0146,7.033,6.9926,6.9596,7.022,7.0991,7.1581,7.1459,7.1448,7.1223,7.0501,7.0934,7.1448,7.1448,7.2011,7.2496,7.2496,7.2496,7.2496,7.2496,7.2496,7.2496,7.2496,7.2496,7.2496,7.2496,7.2496,7.2496,7.2496,7.2496,7.2496,7.2496,7.2496,7.2239,7.1615,7.1578,7.1505,7.1293,7.0697,7.0587,7.1027,7.0403,7.0183,7.0367,7.0367,7.042,5.8727,6.0047,6.1231,6.1298,6.1941,6.2888,6.4208,6.4005,6.3497,6.3463,6.3429,6.3226,6.2516,6.3565,6.5019,6.6508,6.7963,6.8977,6.9079,0.0,7.1244,7.1312,7.0703,7.0534,7.1244,7.0669,0.0,0.0,0.0,0.0,7.0297,7.0263,6.9925,6.9214,6.8436,6.7996,6.7895,6.7218,6.6914,6.6981,6.688,6.7184,6.7895,6.7895,6.8267,6.8944,6.8977,6.9383,6.9992,6.935,7.0508,7.2465,7.1006,7.0562,7.0697,7.0821,7.0898,7.1027,7.2041,7.2409,7.2372,7.2393,7.1908,7.1431,7.2129,7.1284,7.0257,7.1027,7.1146,7.1109,7.1183,7.1835,7.2393,7.2372,7.2409,7.238,7.2314,7.2343,7.2409,7.2409,7.2467,7.2496,7.2496,7.2496,7.2496,7.2496,7.2496,7.2496,7.2496,7.2496,7.2496,7.2496,7.2496,7.2496,7.2496,7.2496,7.2496,7.2496,7.2496,7.2459,7.2422,7.2422,7.2055,7.1293,7.1219,7.0881,7.0183,7.011,7.0477,7.1211,7.1211,7.1623,5.8254,5.9404,6.0655,6.1197,6.1839,6.2651,6.37,6.4072,6.4174,6.4174,6.4174,6.4106,6.3802,6.4208,6.4918,6.5933,6.7793,6.9113,6.9113,7.0364,7.1142,7.0669,7.0364,7.0297,7.0601,0.0,0.0,0.0,0.0,0.0,7.0195,6.9755,6.9147,6.8368,6.8064,6.7692,6.7218,6.6948,6.6812,6.6812,6.6812,6.7184,6.7929,6.8402,6.8808,6.9113,6.9586,6.9925,7.025,7.0567,7.1284,7.1966,7.1039,7.0441,7.0204,7.0842,7.1127,7.1223,7.2197,7.2496,7.2496,7.2496,7.2312,7.2092,7.2422,7.2092,7.1651,7.1982,7.2055,7.1945,7.1431,7.1908,7.2496,7.2496,7.2496,7.2496,7.2496,7.2496,7.2496,7.2496,7.2496,7.2496,7.2496,7.2496,7.2496,7.2496,7.2496,7.2496,7.2496,7.2496,7.2496,7.2496,7.2496,7.2496,7.2496,7.2496,7.2496,7.2496,7.2496,7.2496,7.2496,7.2496,7.2349,7.2055,7.2055,7.1908,7.1578,7.1578,7.1762,7.2055,7.2055,7.2202,5.8254,5.9336,6.0622,6.1163,6.2042,6.2956,6.37,6.4241,6.4613,6.4613,6.441,6.441,6.485,6.4749,6.4986,6.6203,6.7929,6.918,6.9417,7.0534,7.1041,7.0297,7.0195,7.0195,7.0195,0.0,0.0,0.0,0.0,0.0,0.0,6.9011,6.8368,6.759,6.7557,6.732,6.6812,6.6812,6.6812,6.6812,6.6812,6.7184,6.7929,6.8741,6.9214,6.9485,7.0229,7.0534,7.0588,7.1373,7.1738,7.1766,7.1765,7.1249,7.0668,7.1323,7.1542,7.1635,7.2285,7.2496,7.2496,7.2496,7.2496,7.2496,7.2496,7.2496,7.2496,7.2496,7.2496,7.2386,7.1835,7.2092,7.2496,7.2496,7.2496,7.2496,7.2496,7.2496,7.2496,7.2496,7.2496,7.2496,7.2496,7.2496,7.2496,7.2496,7.2496,7.2496,7.2496,7.2496,7.2496,7.2496,7.2496,7.2496,7.2496,7.2496,7.2496,7.2496,7.2496,7.2496,7.2496,7.2496,7.2496,7.2496,7.2496,7.2496,7.2496,7.2496,7.2496,7.2496,7.2496,7.2496,5.8998,6.0114,6.1298,6.1298,6.2415,6.37,6.441,6.4613,6.4613,6.4613,6.4038,6.3971,6.5425,6.5087,6.5324,6.7523,6.8571,6.935,7.0094,7.0838,7.1041,7.0263,7.0161,7.0161,0.0,0.0,0.0,0.0,0.0,0.0,0.0,6.7895,6.7557,6.6846,6.6812,6.6812,6.6812,6.6812,6.6812,6.6812,6.6812,6.7184,6.7929,6.8741,6.9485,7.0229,7.0973,7.1312,7.1334,7.1538,7.1847,7.2319,7.3307,7.3193,7.2496,7.2496,7.2496,7.2496,7.2496,7.2496,7.2496,7.2496,7.2496,7.2496,7.2496,7.2496,7.2496,7.2496,7.2496,7.2496,7.2496,7.2496,7.2496,7.2496,7.2496,7.2496,7.2496,7.2496,7.2496,7.2496,7.2496,7.2496,7.2496,7.2496,7.2496,7.2496,7.2496,7.2496,7.2496,7.2496,7.2496,7.2496,7.2496,7.2496,7.2496,7.2496,7.2496,7.2496,7.2496,7.2496,7.2496,7.2496,7.2496,7.2496,7.2496,7.2496,7.2496,7.2496,7.2496,7.2496,7.2496,7.2496,5.8355,5.9302,6.0452,6.0452,6.2009,6.3565,6.3802,6.4647,6.5527,6.6034,6.5561,6.5189,6.5595,6.5493,6.5595,6.6237,6.7895,6.918,6.9383,7.006,7.0263,6.9519,6.8944,6.8571,0.0,0.0,0.0,0.0,0.0,0.0,0.0,6.7421,6.7049,6.6812,6.6812,6.6812,6.6812,6.6812,6.6812,6.6812,6.6812,6.7184,6.7929,6.8741,6.9485,7.0273,7.1713,7.2012,7.1553,7.1895,7.2518,7.3234,7.2959,7.2716,7.2496,7.2496,7.2496,7.2496,7.2496,7.2496,7.2496,7.2496,7.2496,7.2496,7.2496,7.2496,7.2496,7.2496,7.2496,7.2496,7.2496,7.2496,7.2496,7.2496,7.2496,7.2496,7.2496,7.2496,7.2496,7.2496,7.2496,7.2496,7.2496,7.2496,7.2496,7.2496,7.2496,7.2496,7.2496,7.2496,7.2496,7.2496,7.2496,7.2496,7.2496,7.2496,7.2496,7.2496,7.2496,7.2496,7.2496,7.2496,7.2496,7.2496,7.2496,7.2496,7.2496,7.2496,7.2496,7.2496,7.2496,7.2496,5.9268,6.0114,6.1061,6.14,6.2719,6.4106,6.4681,6.5256,6.5899,6.6643,6.6203,6.5764,6.6068,6.5899,0.0,6.6474,6.7996,6.9113,6.9113,6.9722,6.9789,6.8741,6.847,0.0,0.0,0.0,0.0,0.0,0.0,0.0,0.0,6.7049,6.6812,6.6812,6.6812,6.6812,6.6812,6.6812,6.6812,6.6812,6.6812,6.7049,6.7489,6.8605,6.935,6.9877,7.1572,7.234,7.2312,7.2218,7.2621,7.3193,7.2679,7.2496,7.2496,7.2496,7.2496,7.2496,7.2496,7.2496,7.2496,7.2496,7.2496,7.2496,7.2496,7.2496,7.2496,7.2496,7.2496,7.2496,7.2496,7.2496,7.2496,7.2496,7.2496,7.2496,7.2496,7.2496,7.2496,7.2496,7.2496,7.2496,7.2496,7.2496,7.2496,7.2496,7.2496,7.2496,7.2496,7.2496,7.2496,7.2496,7.2496,7.2496,7.2496,7.2496,7.2496,7.2496,7.2496,7.2496,7.2496,7.2496,7.2496,7.2496,7.2496,7.2496,7.2496,7.2496,7.2496,7.2496,7.2496,7.2496,6.0892,6.1738,6.255,6.3226,6.4072,6.5087,6.6508,6.6271,6.5967,6.6677,6.6271,6.6,6.6677,6.6237,6.6237,6.759,6.8538,6.9079,6.9011,6.962,6.9553,6.8064,6.8504,0.0,0.0,0.0,0.0,0.0,0.0,0.0,0.0,6.6812,6.6812,6.6812,6.6812,6.6812,6.6812,6.6812,6.6812,6.6812,6.6812,6.6812,6.688,6.8402,6.9243,6.9569,7.1097,7.2388,7.336,7.2568,7.2356,7.2496,7.2496,7.2496,7.2496,7.2496,7.2496,7.2496,7.2496,7.2496,7.2496,7.2496,7.2496,7.2496,7.2496,7.2496,7.2496,7.2496,7.2496,7.2496,7.2496,7.2496,7.2496,7.2496,7.2496,7.2496,7.2496,7.2496,7.2496,7.2496,7.2496,7.2496,7.2496,7.2496,7.2496,7.2496,7.2496,7.2496,7.2496,7.2496,7.2496,7.2496,7.2496,7.2496,7.2496,7.2496,7.2496,7.2496,7.2496,7.2496,7.2496,7.2496,7.2496,7.2496,7.2569,7.2606,7.2606,7.2679,7.2716,7.2716,7.2716,7.2716,5.9471,6.0926,6.2415,6.2584,6.4038,6.5696,6.6609,6.6677,6.6609,6.6779,6.6677,6.6609,6.6779,6.6677,6.6677,6.7015,6.8199,6.8876,6.8233,6.8842,6.8977,6.7996,0.0,0.0,0.0,0.0,0.0,0.0,0.0,0.0,6.6812,6.6812,6.6812,6.6812,6.6812,6.6812,6.6812,6.6812,6.6812,0.0,6.6812,6.6812,6.688,6.8402,7.0264,7.2251,7.2798,7.3261,7.355,7.2782,7.2431,7.2496,7.2496,7.2496,7.2496,7.2496,7.2496,7.2496,7.2496,7.2496,7.2496,7.2496,7.2496,7.2496,7.2496,7.2496,7.2496,7.2496,7.2496,7.2496,7.2496,7.2496,7.2496,7.2496,7.2496,7.2496,7.2496,7.2496,7.2496,7.2496,7.2496,7.2496,7.2496,7.2496,7.2496,7.2496,7.2496,7.2496,7.2496,7.2496,7.2496,7.2496,7.2496,7.2496,7.2496,7.2496,7.2496,7.2496,7.2496,7.2496,7.2496,7.2496,7.2496,7.2496,7.312,7.345,7.345,7.4074,7.4404,7.4404,7.4404,7.4404,5.9336,6.0689,6.211,6.3193,6.485,6.6339,6.6711,6.6812,6.6812,6.6812,6.7083,6.7218,6.688,6.7117,6.7354,6.7354,6.8335,6.8808,6.7996,6.8605,6.8808,0.0,0.0,0.0,0.0,0.0,0.0,0.0,0.0,6.6812,6.6812,6.6812,6.6812,6.6812,6.6812,6.6812,6.6812,6.6812,6.6812,6.6812,6.6812,6.7233,6.8111,6.9282,7.1041,7.3106,7.3289,7.3529,7.3634,7.2826,7.2496,7.2496,7.2496,7.2496,7.2496,7.2496,7.2496,7.2496,7.2496,7.2496,7.2496,7.2496,7.2496,7.2496,7.2496,7.2496,7.2496,7.2496,7.2496,7.2496,7.2496,7.2496,7.2496,7.2496,7.2496,7.2496,7.2496,7.2496,7.2496,7.2496,7.2496,7.2496,7.2496,7.2496,7.2496,7.2496,7.2496,7.2496,7.2496,7.2496,7.2496,7.2496,7.2496,7.2496,7.2496,7.2496,7.2496,7.2496,7.2863,7.3083,7.3083,7.345,7.3487,7.3083,7.3854,7.4258,7.4294,7.4698,7.4918,7.4918,7.4918,7.4918,5.9167,6.0419,6.1873,6.4208,6.573,6.6643,6.6779,6.6812,6.6812,6.6812,6.7387,6.7726,6.7117,6.7489,6.7963,6.8098,6.8673,6.8876,6.8199,6.8774,6.9011,0.0,0.0,0.0,0.0,0.0,0.0,0.0,0.0,6.6812,6.6812,6.6812,6.6812,6.6812,6.6812,6.6812,6.6812,6.6812,6.6812,6.6812,6.6812,6.7735,6.9436,7.0297,7.1476,7.2974,7.3312,7.3473,7.345,7.2789,7.2496,7.2496,7.2496,7.2496,7.2496,7.2496,7.2496,7.2496,7.2496,7.2496,7.2496,7.2496,7.2496,7.2496,7.2496,7.2496,7.2496,7.2496,7.2496,7.2496,7.2496,7.2496,7.2496,7.2496,7.2496,7.2496,7.2496,7.2496,7.2496,7.2496,7.2496,7.2496,7.2496,7.2496,7.2496,7.2496,7.2496,7.2496,7.2496,7.2496,7.2496,7.2496,7.2496,7.2496,7.2496,7.2496,7.2569,7.2716,7.334,7.3744,7.3891,7.4698,7.4808,7.4111,7.4771,7.5139,7.5139,7.5249,7.5292,7.5292,7.5292,7.5292,5.7002,5.9235,6.1975,6.4816,6.5696,6.6,6.6677,6.6812,6.6812,6.6812,6.7387,6.7861,6.776,6.7827,6.8132,6.8842,6.9045,6.9079,6.8944,6.9586,6.9755,0.0,0.0,0.0,0.0,0.0,0.0,0.0,6.7184,6.6812,6.6812,6.6812,6.6812,6.6812,6.6812,6.6812,6.6812,6.6812,6.6812,6.6812,6.6812,6.7735,6.9436,7.0396,7.141,7.2377,7.3239,7.3289,7.2642,7.2532,7.2496,7.2496,7.2496,7.2496,7.2496,7.2496,7.2496,7.2496,7.2496,7.2496,7.2496,7.2496,7.2496,7.2496,7.2496,7.2496,7.2496,7.2496,7.2496,7.2496,7.2496,7.2496,7.2496,7.2496,7.2496,7.2496,7.2496,7.2496,7.2496,7.2496,7.2496,7.2496,7.2496,7.2496,7.2496,7.2496,7.2496,7.2496,7.2496,7.2496,7.2496,7.2496,7.2496,7.2496,7.2496,7.2496,7.2789,7.3487,7.3634,7.4001,7.4735,7.5506,7.5909,7.5763,7.5873,7.5946,7.5946,7.6644,7.698,7.698,7.698,7.698,5.8152,6.0419,6.2544,6.4667,6.5833,6.6354,6.6226,6.6508,6.6812,6.6812,6.7857,6.8446,6.7481,6.7624,6.803,6.8368,6.8808,6.9113,6.9113,6.9722,0.0,0.0,0.0,0.0,0.0,0.0,0.0,0.0,6.7861,6.7421,6.7421,6.7421,6.7252,6.6812,6.7218,6.7218,6.6812,6.6812,6.6812,6.6812,6.6812,6.7787,6.9582,7.0024,7.0945,7.2253,7.3276,7.323,7.2496,7.2496,7.2496,7.2496,7.2496,7.2496,7.2496,7.2496,7.2496,7.2496,7.2496,7.2496,7.2496,7.2496,7.2496,7.2496,7.2496,7.2496,7.2496,7.2496,7.2496,7.2496,7.2496,7.2496,7.2496,7.2496,7.2496,7.2496,7.2496,7.2496,7.2496,7.2496,7.2496,7.2496,7.2496,7.2496,7.2496,7.2496,7.2496,7.2496,7.2496,7.2496,7.2496,7.2496,7.2496,7.2679,7.312,7.3156,7.3523,7.4331,7.4808,7.5212,7.5579,7.635,7.679,7.679,7.679,7.679,7.679,7.7127,7.7273,7.7273,7.7273,7.7273,5.8527,6.0597,6.2196,6.4041,6.5503,6.6393,6.6151,6.6472,6.678,6.661,6.7736,6.8399,6.708,6.7638,6.8352,6.8523,6.8845,6.918,6.935,6.9992,0.0,0.0,0.0,0.0,0.0,0.0,0.0,0.0,6.8639,6.8199,6.8199,6.8199,6.7861,6.7117,6.7624,6.7557,6.6812,6.6812,6.6812,6.6812,6.6812,6.7822,6.9708,6.9708,7.0654,7.2318,7.3074,7.3046,7.2496,7.2496,7.2496,7.2496,7.2496,7.2496,7.2496,7.2496,7.2496,7.2496,7.2496,7.2496,7.2496,7.2496,7.2496,7.2496,7.2496,7.2496,7.2496,7.2496,7.2496,7.2496,7.2496,7.2496,7.2496,7.2496,7.2679,7.2753,7.2532,7.2679,7.2753,7.2532,7.2679,7.2753,7.2532,7.2496,7.2496,7.2496,7.2496,7.2496,7.2496,7.2496,7.2569,7.2789,7.2789,7.312,7.3927,7.4001,7.4368,7.5175,7.5763,7.6203,7.6387,7.698,7.7273,7.7273,7.7273,7.7273,7.7273,7.7273,7.7273,7.7273,7.7273,7.7273,5.6376,5.8132,6.0061,6.3035,6.4376,6.5398,6.6882,6.7117,6.6789,6.6097,6.6585,6.7142,6.7073,6.8319,6.956,7.0251,6.9662,6.935,7.0026,7.077,0.0,0.0,0.0,0.0,0.0,0.0,0.0,0.0,6.9451,6.9045,6.9045,6.9045,6.8673,6.7861,6.7895,6.7557,6.6812,6.6812,6.6812,6.6812,6.6812,6.7822,6.9708,6.9708,7.0704,7.2511,7.254,7.2532,7.2496,7.2496,7.2496,7.2496,7.2496,7.2496,7.2496,7.2496,7.2496,7.2496,7.2496,7.2496,7.2496,7.2496,7.2496,7.2496,7.2496,7.2496,7.2496,7.2496,7.2496,7.2496,7.2496,7.2496,7.2496,7.2496,7.3083,7.3413,7.2679,7.3083,7.3413,7.2642,7.312,7.3377,7.2642,7.2496,7.2496,7.2496,7.2496,7.2496,7.2496,7.2496,7.2789,7.356,7.3634,7.3964,7.4771,7.4845,7.5175,7.5983,7.6093,7.646,7.72,7.7273,7.7273,7.7273,7.7273,7.7273,7.7273,7.7273,7.7273,7.7273,7.7273,7.7273,5.7368,5.8466,5.9243,6.2272,6.4026,6.5117,6.5634,6.6496,6.7128,6.6847,6.7904,6.8848,6.8882,6.832,6.825,6.957,6.9396,6.935,7.0094,7.0838,0.0,0.0,0.0,0.0,0.0,0.0,0.0,0.0,0.0,6.9789,6.9789,6.9789,6.9214,6.7929,6.8402,6.8064,6.6812,6.6812,6.6812,6.6812,6.7414,6.8416,6.9743,7.0332,7.1576,7.3266,7.3266,7.3266,7.3266,7.3266,7.3266,7.3266,7.3266,7.2936,7.2496,7.2496,7.2496,7.2496,7.2496,7.2496,7.2496,7.2496,7.2496,7.2496,7.2496,7.2496,7.2496,7.2496,7.2496,7.2496,7.2496,7.2899,7.3413,7.3927,7.4258,7.4404,7.4111,7.4258,7.4074,7.2753,7.3156,7.345,7.2642,7.2496,7.2496,7.2496,7.2496,7.2679,7.3193,7.3266,7.3597,7.4368,7.4478,7.4808,7.5616,7.5689,7.6019,7.6827,7.69,7.7011,7.7273,7.7273,7.7273,7.7273,7.7273,7.7273,7.7273,7.7273,7.7273,7.7273,7.7273,7.7273,5.6742,5.7877,5.8802,6.1969,6.3501,6.4556,6.5602,6.6439,6.6996,6.696,6.8079,6.9157,6.9444,6.8396,6.795,6.9279,6.952,6.9646,6.9799,0.0,0.0,0.0,0.0,0.0,0.0,0.0,0.0,0.0,0.0,0.0,7.0567,7.0331,6.962,6.8335,6.8808,6.847,6.7184,6.7184,6.7049,6.6812,6.7747,6.8758,6.9743,7.0955,7.2294,7.3707,7.4001,7.4111,7.4111,7.4111,7.4111,7.4111,7.4111,7.3597,7.2899,7.2899,7.2716,7.2496,7.2496,7.2496,7.2532,7.2826,7.2899,7.2936,7.323,7.3303,7.3303,7.3303,7.3303,7.3303,7.3303,7.3707,7.4294,7.5102,7.5322,7.5249,7.4955,7.4918,7.4515,7.3156,7.334,7.345,7.2642,7.2496,7.2606,7.2863,7.2899,7.3193,7.4001,7.4111,7.4404,7.5212,7.5322,7.5652,7.6423,7.6497,7.6754,7.7273,7.7273,7.7273,7.7273,7.7273,7.7273,7.7273,7.7273,7.7273,7.7273,7.7273,7.7273,7.7273,7.7273,7.7273,0.0,0.0,0.0,6.1813,6.2657,6.3525,6.678,6.683,6.6205,6.6301,6.6835,6.754,6.8593,6.8618,6.8787,6.9566,7.0164,7.0215,6.9295,0.0,0.0,0.0,0.0,0.0,0.0,0.0,0.0,0.0,7.1312,7.1312,7.1312,7.0601,6.9857,6.9113,6.9113,6.8707,6.7895,6.7895,6.7523,6.6812,6.7822,6.883,6.9778,7.1527,7.287,7.378,7.4588,7.4955,7.4992,7.4955,7.4918,7.4918,7.4955,7.4441,7.3707,7.3707,7.3193,7.2496,7.2532,7.2532,7.2679,7.345,7.3744,7.3891,7.4661,7.4918,7.4918,7.4918,7.4918,7.4918,7.4955,7.4955,7.5139,7.5946,7.613,7.5909,7.5139,7.4955,7.4698,7.3817,7.367,7.345,7.2679,7.2532,7.2826,7.3597,7.3744,7.4037,7.4845,7.4955,7.5249,7.6056,7.613,7.646,7.7237,7.7273,7.7273,7.7273,7.7273,7.7273,7.7273,7.7273,7.7273,7.7273,7.7273,7.7273,7.7273,7.7273,7.7273,7.7273,7.7273,7.7273,5.4048,0.0,0.0,0.0,0.0,0.0,0.0,6.317,6.3433,6.513,6.5578,6.6091,6.7461,6.875,6.9639,6.9672,7.0763,7.1431,7.0974,0.0,0.0,0.0,0.0,0.0,0.0,0.0,0.0,0.0,7.1312,7.1312,7.1312,7.0601,6.9857,6.9113,6.9113,6.8707,6.7895,6.7895,6.7523,6.6812,6.8527,6.9457,6.9778,7.2183,7.3756,7.4625,7.5432,7.6093,7.6576,7.6019,7.5432,7.4955,7.5542,7.4918,7.3707,7.3707,7.3193,7.2569,7.3156,7.3377,7.3487,7.4331,7.4588,7.4625,7.4845,7.4918,7.4918,7.4918,7.4918,7.5028,7.5616,7.5763,7.5983,7.679,7.6974,7.6937,7.6686,7.6203,7.5212,7.3193,7.3303,7.3634,7.3413,7.3377,7.3634,7.4441,7.4588,7.4882,7.5652,7.5763,7.6093,7.687,7.6974,7.7053,7.7273,7.7273,7.7273,7.7273,7.7273,7.7273,7.7273,7.7273,7.7273,7.7273,7.7273,7.7273,7.7273,7.7273,7.7273,7.7273,7.7273,7.7273,5.3672,5.4303,5.4988,5.695,0.0,0.0,6.1156,6.1706,6.2209,0.0,6.4566,6.4984,6.6524,6.7932,6.9026,6.9693,7.1405,7.226,7.1295,0.0,0.0,0.0,0.0,0.0,0.0,7.3037,7.2563,7.1819,7.1481,7.1176,7.0872,7.0737,7.0331,6.9586,6.9857,6.9519,6.8402,6.8402,6.804,6.7414,6.8982,7.0096,7.0832,7.3172,7.4661,7.5469,7.6276,7.668,7.679,7.668,7.635,7.5983,7.6423,7.5836,7.4698,7.4698,7.4184,7.356,7.4037,7.4184,7.4331,7.5139,7.5395,7.5469,7.5799,7.5879,7.5879,7.5879,7.5879,7.6019,7.6497,7.6607,7.6717,7.7163,7.7273,7.72,7.69,7.6423,7.5689,7.4258,7.4111,7.4184,7.4184,7.4184,7.4478,7.5285,7.5395,7.5689,7.6497,7.6607,7.679,7.7237,7.7273,7.7273,7.7273,7.7273,7.7273,7.7273,7.7273,7.7273,7.7273,7.7273,7.7273,7.7273,7.7273,7.7273,7.7273,7.7273,7.7273,7.7273,7.7273,7.7273,5.3203,5.3858,5.4915,5.7217,5.7781,0.0,6.0724,6.1157,6.1552,0.0,6.3552,6.3867,6.5716,6.6602,6.7586,6.9317,7.1729,7.2787,7.1066,0.0,0.0,0.0,0.0,0.0,7.4661,7.4018,7.3274,7.2462,7.1718,7.0973,7.0229,7.0906,7.0973,7.0195,7.0939,7.0635,6.9248,6.9345,6.9081,6.8505,6.9597,7.094,7.2463,7.4226,7.5432,7.613,7.6974,7.69,7.6276,7.698,7.7237,7.7163,7.7273,7.6827,7.6093,7.6093,7.5579,7.4918,7.5028,7.5028,7.5175,7.5983,7.624,7.6387,7.7053,7.7273,7.7273,7.7273,7.7273,7.7273,7.7273,7.7273,7.7273,7.7273,7.7273,7.709,7.6387,7.624,7.624,7.624,7.5506,7.4955,7.5028,7.5028,7.5322,7.613,7.624,7.6497,7.72,7.7273,7.7273,7.7273,7.7273,7.7273,7.7273,7.7273,7.7273,7.7273,7.7273,7.7273,7.7273,7.7273,7.7273,7.7273,7.7273,7.7273,7.7273,7.7273,7.7273,7.7273,7.7273,7.7273,5.2663,5.3101,5.3948,5.5005,0.0,0.0,5.8203,5.8219,5.8737,0.0,6.1872,6.1813,6.4625,6.5889,6.6653,6.6998,7.0205,7.2735,7.2821,0.0,0.0,0.0,0.0,0.0,7.4755,7.4492,7.3849,7.2496,7.1718,7.0973,7.0229,7.0906,7.0973,7.0195,7.0939,7.0872,6.9992,7.0805,7.0827,7.0174,7.1908,7.2911,7.3327,7.5066,7.5946,7.613,7.6974,7.72,7.7053,7.7237,7.6937,7.6387,7.7047,7.6827,7.6093,7.6093,7.5579,7.4992,7.5652,7.5873,7.6019,7.6827,7.7053,7.709,7.7237,7.7273,7.7273,7.7273,7.7273,7.7273,7.7273,7.7273,7.7273,7.7273,7.7273,7.7237,7.709,7.7053,7.7053,7.7053,7.5879,7.5139,7.5763,7.5873,7.613,7.6937,7.7053,7.7127,7.7273,7.7273,7.7273,7.7273,7.7273,7.7273,7.7273,7.7273,7.7273,7.7273,7.7273,7.7273,7.7273,7.7273,7.7273,7.7273,7.7273,7.7273,7.7273,7.7273,7.7273,7.7273,7.7273,7.7273,5.3112,5.3179,5.3687,5.4397,0.0,0.0,0.0,5.7392,5.8001,6.0359,6.0493,6.0802,6.2786,6.4489,6.5759,6.6258,6.8713,7.0997,7.2174,0.0,0.0,0.0,0.0,0.0,7.4687,7.395,7.3037,7.1954,7.1947,7.1885,7.1508,7.2291,7.2409,7.1551,7.185,7.1454,7.0195,7.1221,7.1554,7.1333,7.2794,7.3957,7.4811,7.569,7.6313,7.6717,7.7127,7.7273,7.7273,7.7273,7.7053,7.6754,7.7127,7.7053,7.6717,7.6717,7.646,7.6136,7.657,7.6717,7.679,7.7163,7.7273,7.7273,7.7273,7.7273,7.7273,7.7273,7.7273,7.7273,7.7273,7.7273,7.7273,7.7273,7.7273,7.7273,7.7273,7.7273,7.7273,7.7273,7.665,7.624,7.6644,7.6717,7.6864,7.7237,7.7273,7.7273,7.7273,7.7273,7.7273,7.7273,7.7273,7.7273,7.7273,7.7273,7.7273,7.7273,7.7273,7.7273,7.7273,7.7273,7.7273,7.7273,7.7273,7.7273,7.7273,7.7273,7.7273,7.7273,7.7273,7.7273,0.0,0.0,0.0,0.0,0.0,5.6122,0.0,0.0,0.0,5.9086,5.9633,0.0,0.0,0.0,0.0,0.0,0.0,0.0,0.0,0.0,0.0,0.0,0.0,0.0,0.0,7.322,7.2078,7.1751,7.2133,7.2485,7.2797,7.3733,7.3928,7.309,7.309,7.2396,7.0994,7.1978,7.2542,7.2726,7.3776,7.4961,7.635,7.635,7.668,7.7273,7.7273,7.7273,7.7273,7.7273,7.7273,7.7273,7.7273,7.7273,7.7273,7.7273,7.7273,7.7273,7.7273,7.7273,7.7273,7.7273,7.7273,7.7273,7.7273,7.7273,7.7273,7.7273,7.7273,7.7273,7.7273,7.7273,7.7273,7.7273,7.7273,7.7273,7.7273,7.7273,7.7273,7.7273,7.7273,7.7273,7.7273,7.7273,7.7273,7.7273,7.7273,7.7273,7.7273,7.7273,7.7273,7.7273,7.7273,7.7273,7.7273,7.7273,7.7273,7.7273,7.7273,7.7273,7.7273,7.7273,7.7273,7.7273,7.7273,7.7273,7.7273,7.7273,7.7273,7.7273,7.7273,7.7273,0.0,0.0,0.0,0.0,5.6596,0.0,0.0,0.0,5.8375,5.9909,0.0,0.0,0.0,0.0,0.0,0.0,0.0,0.0,0.0,0.0,0.0,0.0,0.0,0.0,0.0,7.3125,7.2167,7.3196,7.1755,7.1417,7.2728,7.3733,7.4234,7.412,7.412,7.4046,7.3861,7.4797,7.5365,7.5397,7.6373,7.6992,7.7163,7.7163,7.72,7.7273,7.7273,7.7273,7.7273,7.7273,7.7273,7.7273,7.7273,7.7273,7.7273,7.7273,7.7273,7.7273,7.7273,7.7273,7.7273,7.7273,7.7273,7.7273,7.7273,7.7273,7.7273,7.7273,7.7273,7.7273,7.7273,7.7273,7.7273,7.7273,7.7273,7.7273,7.7273,7.7273,7.7273,7.7273,7.7273,7.7273,7.7273,7.7273,7.7273,7.7273,7.7273,7.7273,7.7273,7.7273,7.7273,7.7273,7.7273,7.7273,7.7273,7.7273,7.7273,7.7273,7.7273,7.7273,7.7273,7.7273,7.7273,7.7273,7.7273,7.7273,7.7273,7.7273,7.7273,7.7273,7.7273,7.7273,0.0,0.0,0.0,0.0,0.0,0.0,5.7814,0.0,5.8095,0.0,0.0,0.0,0.0,0.0,0.0,0.0,0.0,0.0,0.0,0.0,0.0,0.0,0.0,0.0,0.0,0.0,0.0,0.0,7.1273,7.1942,7.2992,7.4941,7.5789,7.5192,7.5156,7.4867,7.431,7.5299,7.5787,7.5787,7.6824,7.7273,7.7273,7.7273,7.7273,7.7273,7.7273,7.7273,7.7273,7.7273,7.7273,7.7273,7.7273,7.7273,7.7273,7.7273,7.7273,7.7273,7.7273,7.7273,7.7273,7.7273,7.7273,7.7273,7.7273,7.7273,7.7273,7.7273,7.7273,7.7273,7.7273,7.7273,7.7273,7.7273,7.7273,7.7273,7.7273,7.7273,7.7273,7.7273,7.7273,7.7273,7.7273,7.7273,7.7273,7.7273,7.7273,7.7273,7.7273,7.7273,7.7273,7.7273,7.7273,7.7273,7.7273,7.7273,7.7273,7.7273,7.7273,7.7273,7.7273,7.7273,7.7273,7.7273,7.7273,7.7273,7.7273,7.7273,7.7273,7.7273,7.7273,7.7273,5.6461,0.0,0.0,0.0,0.0,0.0,0.0,0.0,0.0,0.0,0.0,0.0,0.0,0.0,0.0,0.0,0.0,0.0,0.0,0.0,0.0,0.0,0.0,0.0,0.0,0.0,0.0,0.0,0.0,7.1511,7.319,7.537,7.6368,7.5904,7.6122,7.5857,7.5156,7.5857,7.6231,7.6231,7.6956,7.7273,7.7273,7.7273,7.7273,7.7273,7.7273,7.7273,7.7273,7.7273,7.7273,7.7273,7.7273,7.7273,7.7273,7.7273,7.7273,7.7273,7.7273,7.7273,7.7273,7.7273,7.7273,7.7273,7.7273,7.7273,7.7273,7.7273,7.7273,7.7273,7.7273,7.7273,7.7273,7.7273,7.7273,7.7273,7.7273,7.7273,7.7273,7.7273,7.7273,7.7273,7.7273,7.7273,7.7273,7.7273,7.7273,7.7273,7.7273,7.7273,7.7273,7.7273,7.7273,7.7273,7.7273,7.7273,7.7273,7.7273,7.7273,7.7273,7.7273,7.7273,7.7273,7.7273,7.7273,7.7273,7.7273,7.7273,7.7273,7.7273,7.7273,7.7273,0.0,0.0,0.0,5.7848,0.0,0.0,0.0,0.0,5.8964,0.0,0.0,0.0,0.0,0.0,0.0,0.0,0.0,0.0,0.0,0.0,0.0,0.0,0.0,0.0,0.0,0.0,0.0,0.0,0.0,0.0,7.3166,7.4268,7.5204,7.6069,7.6839,7.7243,7.7212,7.7243,7.7243,7.7243,7.7273,7.7273,7.7273,7.7273,7.7273,7.7273,7.7273,7.7273,7.7273,7.7273,7.7273,7.7273,7.7273,7.7273,7.7273,7.7273,7.7273,7.7273,7.7273,7.7273,7.7273,7.7273,7.7273,7.7273,7.7273,7.7273,7.7273,7.7273,7.7273,7.7273,7.7273,7.7273,7.7273,7.7273,7.7273,7.7273,7.7273,7.7273,7.7273,7.7273,7.7273,7.7273,7.7273,7.7273,7.7273,7.7273,7.7273,7.7273,7.7273,7.7273,7.7273,7.7273,7.7273,7.7273,7.7273,7.7273,7.7273,7.7273,7.7273,7.7273,7.7273,7.7273,7.7273,7.7273,7.7273,7.7273,7.7273,7.7273,7.7273,7.7273,7.7273,7.7273,0.0,0.0,5.9235,5.8761,0.0,0.0,0.0,0.0,0.0,0.0,0.0,0.0,0.0,0.0,0.0,0.0,0.0,0.0,0.0,0.0,0.0,0.0,0.0,0.0,0.0,0.0,0.0,0.0,6.8045,0.0,0.0,7.2633,7.353,7.4333,7.5744,7.6533,7.6533,7.6533,7.6533,7.6533,7.6533,7.6533,7.6533,7.7053,7.7273,7.7273,7.7273,7.7273,7.7273,7.7273,7.7273,7.7273,7.7273,7.7273,7.7273,7.7273,7.7273,7.7273,7.7273,7.7273,7.7273,7.7273,7.7273,7.7273,7.7273,7.7273,7.7273,7.7273,7.7273,7.7273,7.7273,7.7273,7.7273,7.7273,7.7273,7.7273,7.7273,7.7273,7.7273,7.7273,7.7273,7.7273,7.7273,7.7273,7.7273,7.7273,7.7273,7.7273,7.7273,7.7273,7.7273,7.7273,7.7273,7.7273,7.7273,7.7273,7.7273,7.7273,7.7273,7.7273,7.7273,7.7273,7.7273,7.7273,7.7273,7.7273,7.7273,7.7273,7.7273,7.7273,7.7273,7.7273,5.822,5.8998,0.0,5.9438,5.9742,0.0,5.9505,0.0,0.0,0.0,0.0,0.0,0.0,0.0,0.0,0.0,0.0,0.0,0.0,6.5462,0.0,0.0,0.0,0.0,0.0,0.0,6.5759,6.8026,6.7126,0.0,0.0,0.0,7.23,7.313,7.4793,7.5689,7.5689,7.5689,7.5689,7.5689,7.5946,7.5946,7.5726,7.6827,7.7127,7.69,7.7163,7.7273,7.7273,7.7273,7.7273,7.7273,7.7273,7.7273,7.7273,7.7273,7.7273,7.7273,7.7273,7.7273,7.7273,7.7273,7.7273,7.7273,7.7273,7.7273,7.7273,7.7273,7.7273,7.7273,7.7273,7.7273,7.7273,7.7273,7.7273,7.7273,7.7273,7.7561,7.7671,7.7347,7.753,7.7671,7.7347,7.7273,7.7273,7.7273,7.7273,7.7273,7.7273,7.7273,7.7273,7.7273,7.7273,7.7273,7.7273,7.7273,7.7273,7.7273,7.7273,7.7273,7.7273,7.7273,7.7273,7.7273,7.7273,7.7273,7.7273,7.7273,7.7273,7.731,7.7604,7.7781]}]]